[[{"header":{"parameterUnit":"m.s-1","parameterCategory":1,"la1":31.0,"la2":29.5877,"lo1":-88.7671,"lo2":-86.6584,"dy":0.0162,"dx":0.0185,"nx":115,"ny":88,"refTime":"2024-04-27T18:00:00:Z","depth":0,"parameterNumber":2,"parameterNumberName":"U-component_of_WINDS"},"data":[0.0,0.0,0.0,0.0,0.0,0.0,0.0,0.0,0.0,0.0,0.0,0.0,0.0,0.0,0.0,0.0,0.0,0.0,0.0,0.0,0.0,0.0,0.0,0.0,0.0,0.0,0.0,0.0,0.0,0.0,0.0,0.0,0.0,0.0,0.0,0.0,0.0,0.0,0.0,0.0,0.0,0.0,0.0,0.0,0.0,0.0,0.0,0.0,0.0,0.0,0.0,0.0,0.0,0.0,0.0,0.0,0.0,0.0,0.0,0.0,0.0,0.0,0.0,0.0,0.0,0.0,0.0,0.0,0.0,0.0,0.0,0.0,0.0,0.0,0.0,0.0,0.0,0.0,0.0,0.0,0.0,0.0,0.0,0.0,0.0,0.0,0.0,0.0,0.0,0.0,0.0,0.0,0.0,0.0,0.0,0.0,0.0,0.0,0.0,0.0,0.0,0.0,0.0,0.0,0.0,0.0,0.0,0.0,0.0,0.0,0.0,0.0,0.0,0.0,0.0,0.0,0.0,0.0,0.0,0.0,0.0,0.0,0.0,0.0,0.0,0.0,0.0,0.0,0.0,0.0,0.0,0.0,0.0,0.0,0.0,0.0,0.0,0.0,0.0,0.0,0.0,0.0,0.0,0.0,0.0,0.0,0.0,0.0,0.0,0.0,0.0,0.0,0.0,0.0,0.0,0.0,0.0,0.0,0.0,0.0,0.0,0.0,0.0,0.0,0.0,0.0,0.0,0.0,0.0,0.0,0.0,0.0,0.0,0.0,0.0,0.0,0.0,0.0,0.0,0.0,0.0,0.0,0.0,0.0,0.0,0.0,0.0,0.0,0.0,0.0,0.0,0.0,0.0,0.0,0.0,0.0,0.0,0.0,0.0,0.0,0.0,0.0,0.0,0.0,0.0,0.0,0.0,0.0,0.0,0.0,0.0,0.0,0.0,0.0,0.0,0.0,0.0,0.0,0.0,0.0,0.0,0.0,0.0,0.0,0.0,0.0,0.0,0.0,0.0,0.0,0.0,0.0,0.0,0.0,0.0,0.0,0.0,0.0,0.0,0.0,0.0,0.0,0.0,0.0,0.0,0.0,0.0,0.0,0.0,0.0,0.0,0.0,0.0,0.0,0.0,0.0,0.0,0.0,0.0,0.0,0.0,0.0,0.0,0.0,0.0,0.0,0.0,0.0,0.0,0.0,0.0,0.0,0.0,0.0,0.0,0.0,0.0,0.0,0.0,0.0,0.0,0.0,0.0,0.0,0.0,0.0,0.0,0.0,0.0,0.0,0.0,0.0,0.0,0.0,0.0,0.0,0.0,0.0,0.0,0.0,0.0,0.0,0.0,0.0,0.0,0.0,0.0,0.0,0.0,0.0,0.0,0.0,0.0,0.0,0.0,0.0,0.0,0.0,0.0,0.0,0.0,0.0,0.0,0.0,0.0,0.0,0.0,0.0,0.0,0.0,0.0,0.0,0.0,0.0,0.0,0.0,0.0,0.0,0.0,0.0,0.0,0.0,0.0,0.0,0.0,0.0,0.0,0.0,0.0,0.0,0.0,0.0,0.0,0.0,0.0,0.0,0.0,0.0,0.0,0.0,0.0,0.0,0.0,0.0,0.0,0.0,0.0,0.0,0.0,0.0,0.0,0.0,0.0,0.0,0.0,0.0,0.0,0.0,0.0,0.0,0.0,0.0,0.0,0.0,0.0,0.0,0.0,0.0,0.0,0.0,0.0,0.0,0.0,0.0,0.0,0.0,0.0,0.0,0.0,0.0,0.0,0.0,0.0,0.0,0.0,0.0,0.0,0.0,0.0,0.0,0.0,0.0,0.0,0.0,0.0,0.0,0.0,0.0,0.0,0.0,0.0,0.0,0.0,0.0,0.0,0.0,0.0,0.0,0.0,0.0,0.0,0.0,0.0,0.0,0.0,0.0,0.0,0.0,0.0,0.0,0.0,0.0,0.0,0.0,0.0,0.0,0.0,0.0,0.0,0.0,0.0,0.0,0.0,0.0,0.0,0.0,0.0,0.0,0.0,0.0,0.0,0.0,0.0,0.0,0.0,0.0,0.0,0.0,0.0,0.0,0.0,0.0,0.0,0.0,0.0,0.0,0.0,0.0,0.0,0.0,0.0,0.0,0.0,0.0,0.0,0.0,0.0,0.0,0.0,0.0,0.0,0.0,0.0,0.0,0.0,0.0,0.0,0.0,0.0,0.0,0.0,0.0,0.0,0.0,0.0,0.0,0.0,0.0,0.0,0.0,0.0,0.0,0.0,0.0,0.0,0.0,0.0,0.0,0.0,0.0,0.0,0.0,0.0,0.0,0.0,0.0,0.0,0.0,0.0,0.0,0.0,0.0,0.0,0.0,0.0,0.0,0.0,0.0,0.0,0.0,0.0,0.0,0.0,0.0,0.0,0.0,0.0,0.0,0.0,0.0,0.0,0.0,0.0,0.0,0.0,0.0,0.0,0.0,0.0,0.0,0.0,0.0,0.0,0.0,0.0,0.0,0.0,0.0,0.0,0.0,0.0,0.0,0.0,0.0,0.0,0.0,0.0,0.0,0.0,0.0,0.0,0.0,0.0,0.0,0.0,0.0,0.0,0.0,0.0,0.0,0.0,0.0,0.0,0.0,0.0,0.0,0.0,0.0,0.0,0.0,0.0,0.0,0.0,0.0,0.0,0.0,0.0,0.0,0.0,0.0,0.0,0.0,0.0,0.0,0.0,0.0,0.0,0.0,0.0,0.0,0.0,0.0,0.0,0.0,0.0,0.0,0.0,0.0,0.0,0.0,0.0,0.0,0.0,0.0,0.0,0.0,0.0,0.0,0.0,0.0,0.0,0.0,0.0,0.0,0.0,0.0,0.0,0.0,0.0,0.0,0.0,0.0,0.0,0.0,0.0,0.0,0.0,0.0,0.0,0.0,0.0,0.0,0.0,0.0,0.0,0.0,0.0,0.0,0.0,0.0,0.0,0.0,0.0,0.0,0.0,0.0,0.0,0.0,0.0,0.0,0.0,0.0,0.0,0.0,0.0,0.0,0.0,0.0,0.0,0.0,0.0,0.0,0.0,0.0,0.0,0.0,0.0,0.0,0.0,0.0,0.0,0.0,0.0,0.0,0.0,0.0,0.0,0.0,0.0,0.0,0.0,0.0,0.0,0.0,0.0,0.0,0.0,0.0,0.0,0.0,0.0,0.0,0.0,0.0,0.0,0.0,0.0,0.0,0.0,0.0,0.0,0.0,0.0,0.0,0.0,0.0,0.0,0.0,0.0,0.0,0.0,0.0,0.0,0.0,0.0,0.0,0.0,0.0,0.0,0.0,0.0,0.0,0.0,0.0,0.0,0.0,0.0,0.0,0.0,0.0,0.0,0.0,0.0,0.0,0.0,0.0,0.0,0.0,0.0,0.0,0.0,0.0,0.0,0.0,0.0,0.0,0.0,0.0,0.0,0.0,0.0,0.0,0.0,0.0,0.0,0.0,0.0,0.0,0.0,0.0,0.0,0.0,0.0,0.0,0.0,0.0,0.0,0.0,0.0,0.0,0.0,0.0,0.0,0.0,0.0,0.0,0.0,0.0,0.0,0.0,0.0,0.0,0.0,0.0,0.0,0.0,0.0,0.0,0.0,0.0,0.0,0.0,0.0,0.0,0.0,0.0,0.0,0.0,0.0,0.0,0.0,0.0,0.0,0.0,0.0,0.0,0.0,0.0,0.0,0.0,0.0,0.0,0.0,0.0,0.0,0.0,0.0,0.0,0.0,0.0,0.0,0.0,0.0,0.0,0.0,0.0,0.0,0.0,0.0,0.0,0.0,0.0,0.0,0.0,0.0,0.0,0.0,0.0,0.0,0.0,0.0,0.0,0.0,0.0,0.0,0.0,0.0,0.0,0.0,0.0,0.0,0.0,0.0,0.0,0.0,0.0,0.0,0.0,0.0,0.0,0.0,0.0,0.0,0.0,0.0,0.0,0.0,0.0,0.0,0.0,0.0,0.0,0.0,0.0,0.0,0.0,0.0,0.0,0.0,0.0,0.0,0.0,0.0,0.0,0.0,0.0,0.0,0.0,0.0,0.0,0.0,0.0,0.0,0.0,0.0,0.0,0.0,0.0,0.0,0.0,0.0,0.0,0.0,0.0,0.0,0.0,0.0,0.0,0.0,0.0,0.0,0.0,0.0,0.0,0.0,0.0,0.0,0.0,0.0,0.0,0.0,0.0,0.0,0.0,0.0,0.0,0.0,0.0,0.0,0.0,0.0,0.0,0.0,0.0,0.0,0.0,-4.0794,0.0,0.0,0.0,0.0,0.0,0.0,0.0,0.0,0.0,0.0,0.0,0.0,0.0,0.0,0.0,0.0,0.0,0.0,0.0,0.0,0.0,0.0,0.0,0.0,0.0,0.0,0.0,0.0,0.0,0.0,0.0,0.0,0.0,0.0,0.0,0.0,0.0,0.0,0.0,0.0,0.0,0.0,0.0,0.0,0.0,0.0,0.0,0.0,0.0,0.0,0.0,0.0,0.0,0.0,0.0,0.0,0.0,0.0,0.0,0.0,0.0,0.0,0.0,0.0,0.0,0.0,0.0,0.0,0.0,0.0,0.0,0.0,0.0,0.0,0.0,0.0,0.0,0.0,0.0,0.0,0.0,0.0,0.0,0.0,0.0,0.0,0.0,0.0,0.0,0.0,0.0,0.0,0.0,0.0,0.0,0.0,0.0,0.0,0.0,0.0,0.0,0.0,0.0,0.0,0.0,0.0,0.0,0.0,0.0,0.0,-4.166,-4.161,-4.1101,-4.0796,-4.08,0.0,0.0,0.0,0.0,0.0,0.0,0.0,0.0,0.0,0.0,0.0,0.0,0.0,0.0,0.0,0.0,0.0,0.0,0.0,0.0,0.0,0.0,0.0,0.0,0.0,0.0,0.0,0.0,0.0,0.0,0.0,0.0,0.0,0.0,0.0,0.0,0.0,0.0,0.0,0.0,0.0,0.0,0.0,0.0,0.0,0.0,0.0,0.0,0.0,0.0,0.0,0.0,0.0,0.0,0.0,0.0,0.0,0.0,0.0,0.0,0.0,0.0,0.0,0.0,0.0,0.0,0.0,0.0,0.0,0.0,0.0,0.0,0.0,0.0,0.0,0.0,0.0,0.0,0.0,0.0,0.0,0.0,0.0,0.0,0.0,0.0,0.0,0.0,0.0,0.0,0.0,0.0,0.0,0.0,0.0,0.0,0.0,0.0,0.0,0.0,0.0,0.0,0.0,0.0,0.0,0.0,0.0,0.0,0.0,0.0,0.0,0.0,-4.1776,-4.13,-4.1067,0.0,0.0,0.0,0.0,0.0,0.0,0.0,0.0,0.0,0.0,0.0,0.0,0.0,0.0,0.0,0.0,0.0,0.0,0.0,0.0,0.0,0.0,0.0,0.0,0.0,0.0,0.0,0.0,0.0,0.0,0.0,0.0,0.0,0.0,0.0,0.0,0.0,0.0,0.0,0.0,0.0,0.0,0.0,0.0,0.0,0.0,0.0,0.0,0.0,0.0,0.0,0.0,0.0,0.0,0.0,0.0,0.0,0.0,0.0,0.0,0.0,0.0,0.0,0.0,0.0,0.0,0.0,0.0,0.0,0.0,0.0,0.0,0.0,0.0,0.0,0.0,0.0,0.0,0.0,0.0,0.0,0.0,0.0,0.0,0.0,0.0,0.0,0.0,0.0,0.0,0.0,0.0,0.0,0.0,0.0,0.0,0.0,0.0,0.0,0.0,0.0,0.0,0.0,0.0,0.0,0.0,0.0,0.0,0.0,0.0,-4.347,-4.3486,-4.3258,0.0,-4.1918,0.0,0.0,0.0,0.0,0.0,0.0,0.0,0.0,0.0,0.0,0.0,0.0,0.0,0.0,0.0,0.0,0.0,0.0,0.0,0.0,0.0,0.0,0.0,0.0,0.0,0.0,0.0,0.0,0.0,0.0,0.0,0.0,0.0,0.0,0.0,0.0,0.0,0.0,0.0,0.0,0.0,0.0,0.0,0.0,0.0,0.0,0.0,0.0,0.0,0.0,0.0,0.0,0.0,0.0,0.0,0.0,0.0,0.0,0.0,0.0,0.0,0.0,0.0,0.0,0.0,0.0,0.0,0.0,0.0,0.0,0.0,0.0,0.0,0.0,0.0,0.0,0.0,0.0,0.0,0.0,0.0,0.0,0.0,0.0,0.0,0.0,0.0,0.0,0.0,0.0,0.0,0.0,0.0,0.0,0.0,0.0,0.0,0.0,0.0,0.0,0.0,0.0,0.0,0.0,0.0,0.0,0.0,0.0,0.0,0.0,-4.4347,-4.4308,-4.3733,-4.3193,0.0,0.0,0.0,0.0,0.0,0.0,0.0,0.0,0.0,0.0,0.0,0.0,0.0,0.0,0.0,0.0,0.0,0.0,0.0,0.0,0.0,0.0,0.0,0.0,0.0,0.0,0.0,0.0,0.0,0.0,0.0,0.0,0.0,0.0,0.0,0.0,0.0,0.0,0.0,0.0,0.0,0.0,0.0,0.0,0.0,0.0,0.0,0.0,0.0,0.0,0.0,0.0,0.0,0.0,0.0,0.0,0.0,0.0,0.0,0.0,0.0,0.0,0.0,0.0,0.0,0.0,0.0,0.0,0.0,0.0,0.0,0.0,0.0,0.0,0.0,0.0,0.0,0.0,0.0,0.0,0.0,0.0,0.0,0.0,0.0,0.0,0.0,0.0,0.0,0.0,0.0,0.0,0.0,0.0,0.0,0.0,0.0,0.0,0.0,0.0,0.0,0.0,0.0,0.0,0.0,0.0,0.0,0.0,0.0,0.0,-4.5585,-4.5234,-4.5131,-4.4261,-4.3729,-4.366,0.0,0.0,0.0,0.0,0.0,0.0,0.0,0.0,0.0,0.0,0.0,0.0,0.0,0.0,0.0,0.0,0.0,0.0,0.0,0.0,0.0,0.0,0.0,0.0,0.0,0.0,0.0,0.0,0.0,0.0,0.0,0.0,0.0,0.0,0.0,0.0,0.0,0.0,0.0,0.0,0.0,0.0,0.0,0.0,0.0,0.0,0.0,0.0,0.0,0.0,0.0,0.0,0.0,0.0,0.0,0.0,0.0,0.0,0.0,0.0,0.0,0.0,0.0,0.0,0.0,0.0,0.0,0.0,0.0,0.0,0.0,0.0,0.0,0.0,0.0,0.0,0.0,0.0,0.0,0.0,0.0,0.0,0.0,0.0,0.0,0.0,0.0,0.0,0.0,0.0,0.0,0.0,0.0,0.0,0.0,0.0,0.0,0.0,0.0,0.0,0.0,0.0,0.0,0.0,0.0,0.0,0.0,0.0,-4.6303,-4.6192,-4.6109,-4.6008,-4.5124,-4.4627,0.0,0.0,0.0,0.0,0.0,0.0,0.0,0.0,0.0,0.0,0.0,0.0,0.0,0.0,0.0,0.0,0.0,0.0,0.0,0.0,0.0,0.0,0.0,0.0,0.0,0.0,0.0,0.0,0.0,0.0,0.0,0.0,0.0,0.0,0.0,0.0,0.0,0.0,0.0,0.0,0.0,0.0,0.0,0.0,0.0,0.0,0.0,0.0,0.0,0.0,0.0,0.0,0.0,0.0,0.0,0.0,0.0,0.0,0.0,0.0,0.0,0.0,0.0,0.0,0.0,0.0,0.0,0.0,0.0,0.0,0.0,0.0,0.0,0.0,0.0,0.0,0.0,0.0,0.0,0.0,0.0,0.0,0.0,0.0,0.0,0.0,0.0,0.0,0.0,0.0,0.0,0.0,0.0,0.0,0.0,0.0,0.0,0.0,0.0,0.0,0.0,0.0,0.0,0.0,0.0,0.0,0.0,0.0,0.0,-4.6296,-4.6242,-4.6173,-4.6084,-4.5735,-4.5495,0.0,0.0,0.0,0.0,0.0,0.0,0.0,0.0,0.0,0.0,0.0,0.0,0.0,0.0,0.0,0.0,0.0,0.0,0.0,0.0,0.0,0.0,0.0,0.0,0.0,0.0,0.0,0.0,0.0,0.0,0.0,0.0,0.0,0.0,0.0,0.0,0.0,0.0,0.0,0.0,0.0,0.0,0.0,0.0,0.0,0.0,0.0,0.0,0.0,0.0,0.0,0.0,0.0,0.0,0.0,0.0,0.0,0.0,0.0,0.0,0.0,0.0,0.0,0.0,0.0,0.0,0.0,0.0,0.0,0.0,0.0,0.0,0.0,0.0,0.0,0.0,0.0,0.0,0.0,0.0,0.0,0.0,0.0,0.0,0.0,0.0,0.0,0.0,0.0,0.0,0.0,0.0,0.0,0.0,0.0,0.0,0.0,0.0,0.0,0.0,0.0,0.0,0.0,0.0,0.0,0.0,0.0,0.0,0.0,-4.6685,0.0,-4.701,-4.6936,-4.6601,-4.6408,0.0,0.0,0.0,0.0,0.0,0.0,0.0,0.0,0.0,0.0,0.0,0.0,0.0,0.0,0.0,0.0,0.0,0.0,0.0,0.0,0.0,0.0,0.0,0.0,0.0,0.0,0.0,0.0,0.0,0.0,0.0,0.0,0.0,0.0,0.0,0.0,0.0,0.0,0.0,0.0,0.0,0.0,0.0,0.0,0.0,0.0,0.0,0.0,0.0,0.0,0.0,0.0,0.0,0.0,0.0,0.0,0.0,0.0,0.0,0.0,0.0,0.0,0.0,0.0,0.0,0.0,0.0,0.0,0.0,0.0,0.0,0.0,0.0,0.0,0.0,0.0,0.0,0.0,0.0,0.0,0.0,0.0,0.0,0.0,0.0,0.0,0.0,0.0,0.0,0.0,0.0,0.0,0.0,0.0,0.0,0.0,0.0,0.0,0.0,0.0,0.0,0.0,0.0,0.0,0.0,0.0,0.0,0.0,-4.6781,-4.7533,-4.8343,-4.873,-4.869,-4.7831,-4.7317,0.0,0.0,0.0,0.0,0.0,0.0,0.0,0.0,0.0,0.0,0.0,0.0,0.0,0.0,0.0,0.0,0.0,0.0,0.0,0.0,0.0,0.0,0.0,0.0,0.0,0.0,0.0,0.0,0.0,0.0,0.0,0.0,0.0,0.0,0.0,0.0,0.0,0.0,0.0,0.0,0.0,0.0,0.0,0.0,0.0,0.0,0.0,0.0,0.0,0.0,0.0,0.0,0.0,0.0,0.0,0.0,0.0,0.0,0.0,0.0,0.0,0.0,0.0,0.0,0.0,0.0,0.0,0.0,0.0,0.0,0.0,0.0,0.0,0.0,0.0,0.0,0.0,0.0,0.0,0.0,0.0,0.0,0.0,0.0,0.0,0.0,0.0,0.0,0.0,0.0,0.0,0.0,0.0,0.0,0.0,0.0,0.0,0.0,0.0,0.0,0.0,0.0,0.0,0.0,0.0,0.0,0.0,0.0,0.0,-4.9323,-4.9549,-4.9661,-4.9593,-4.9313,-4.8584,0.0,0.0,0.0,0.0,0.0,0.0,0.0,0.0,0.0,0.0,0.0,0.0,0.0,0.0,0.0,0.0,0.0,0.0,0.0,0.0,0.0,0.0,0.0,0.0,0.0,0.0,0.0,0.0,0.0,0.0,0.0,0.0,0.0,0.0,0.0,0.0,0.0,0.0,0.0,0.0,0.0,0.0,0.0,0.0,0.0,0.0,0.0,0.0,0.0,0.0,0.0,0.0,0.0,0.0,0.0,0.0,0.0,0.0,0.0,0.0,0.0,0.0,0.0,0.0,0.0,0.0,0.0,0.0,0.0,0.0,0.0,0.0,0.0,0.0,0.0,0.0,0.0,0.0,0.0,0.0,0.0,0.0,0.0,0.0,0.0,0.0,0.0,0.0,0.0,0.0,0.0,0.0,0.0,0.0,0.0,0.0,0.0,0.0,0.0,0.0,0.0,0.0,0.0,0.0,0.0,0.0,0.0,0.0,0.0,-5.2016,-5.2046,-5.2028,-5.1996,-5.1326,-5.0287,-4.8822,0.0,0.0,0.0,0.0,0.0,0.0,0.0,0.0,0.0,0.0,0.0,0.0,0.0,0.0,0.0,0.0,0.0,0.0,0.0,0.0,0.0,0.0,0.0,0.0,0.0,0.0,0.0,0.0,0.0,0.0,0.0,0.0,0.0,0.0,0.0,0.0,0.0,0.0,0.0,0.0,0.0,0.0,0.0,0.0,0.0,0.0,0.0,0.0,0.0,0.0,0.0,0.0,0.0,0.0,0.0,0.0,0.0,0.0,0.0,0.0,0.0,0.0,0.0,0.0,0.0,0.0,0.0,0.0,0.0,0.0,0.0,0.0,0.0,0.0,0.0,0.0,0.0,0.0,0.0,0.0,0.0,0.0,0.0,0.0,0.0,0.0,0.0,0.0,0.0,0.0,0.0,0.0,0.0,0.0,0.0,0.0,0.0,0.0,0.0,0.0,0.0,0.0,0.0,0.0,0.0,0.0,0.0,0.0,-5.5408,-5.5492,-5.5478,-5.5378,-5.3732,-5.2333,0.0,0.0,0.0,0.0,0.0,0.0,0.0,0.0,0.0,0.0,0.0,0.0,0.0,0.0,0.0,0.0,0.0,0.0,0.0,0.0,0.0,0.0,0.0,0.0,0.0,0.0,0.0,0.0,0.0,0.0,0.0,0.0,0.0,0.0,0.0,0.0,0.0,0.0,0.0,0.0,0.0,0.0,0.0,0.0,0.0,0.0,0.0,0.0,0.0,0.0,0.0,0.0,0.0,0.0,0.0,0.0,0.0,0.0,0.0,0.0,0.0,0.0,0.0,0.0,0.0,0.0,0.0,0.0,0.0,0.0,0.0,0.0,0.0,0.0,0.0,0.0,0.0,0.0,0.0,0.0,0.0,0.0,0.0,0.0,0.0,0.0,0.0,0.0,0.0,0.0,0.0,0.0,0.0,0.0,0.0,0.0,0.0,0.0,0.0,0.0,0.0,0.0,0.0,0.0,0.0,0.0,0.0,0.0,0.0,-5.7109,-5.7848,-5.7839,-5.7157,-5.6072,-5.4462,0.0,0.0,0.0,0.0,0.0,0.0,0.0,0.0,0.0,0.0,0.0,0.0,0.0,0.0,0.0,0.0,0.0,0.0,0.0,0.0,0.0,0.0,0.0,0.0,0.0,0.0,0.0,0.0,0.0,0.0,0.0,0.0,0.0,0.0,0.0,0.0,0.0,0.0,0.0,0.0,0.0,0.0,0.0,0.0,0.0,0.0,0.0,0.0,0.0,0.0,0.0,0.0,0.0,0.0,0.0,0.0,0.0,0.0,0.0,0.0,0.0,0.0,0.0,0.0,0.0,0.0,0.0,0.0,0.0,0.0,0.0,0.0,0.0,0.0,0.0,0.0,0.0,0.0,0.0,0.0,0.0,0.0,0.0,0.0,0.0,0.0,0.0,0.0,0.0,0.0,0.0,0.0,0.0,0.0,0.0,0.0,0.0,0.0,0.0,0.0,0.0,0.0,0.0,0.0,0.0,0.0,0.0,0.0,-5.5078,-5.7305,-5.8554,-5.8942,-5.8384,-5.7514,-5.5987,0.0,0.0,0.0,0.0,0.0,0.0,0.0,0.0,0.0,0.0,0.0,0.0,0.0,0.0,0.0,0.0,0.0,0.0,0.0,0.0,0.0,0.0,0.0,0.0,0.0,0.0,0.0,0.0,0.0,0.0,0.0,0.0,0.0,0.0,0.0,0.0,0.0,0.0,0.0,0.0,0.0,0.0,0.0,0.0,0.0,0.0,0.0,0.0,0.0,0.0,0.0,0.0,0.0,0.0,0.0,0.0,0.0,0.0,0.0,0.0,0.0,0.0,0.0,0.0,0.0,0.0,0.0,0.0,0.0,0.0,0.0,0.0,0.0,0.0,0.0,0.0,0.0,0.0,0.0,0.0,0.0,0.0,0.0,0.0,0.0,0.0,0.0,0.0,0.0,0.0,0.0,0.0,0.0,0.0,0.0,0.0,0.0,0.0,0.0,0.0,0.0,0.0,0.0,0.0,0.0,0.0,0.0,0.0,-5.4883,-5.6699,-5.8262,-5.9121,-5.9178,-5.8383,-5.7092,0.0,0.0,0.0,0.0,0.0,0.0,0.0,0.0,0.0,0.0,0.0,0.0,0.0,0.0,0.0,0.0,0.0,0.0,0.0,0.0,0.0,0.0,0.0,0.0,0.0,0.0,0.0,0.0,0.0,0.0,0.0,0.0,0.0,0.0,0.0,0.0,0.0,0.0,0.0,0.0,0.0,0.0,0.0,0.0,0.0,0.0,0.0,0.0,0.0,0.0,0.0,0.0,0.0,0.0,0.0,0.0,0.0,0.0,0.0,0.0,0.0,0.0,0.0,0.0,0.0,0.0,0.0,0.0,0.0,0.0,0.0,0.0,0.0,0.0,0.0,0.0,0.0,0.0,0.0,0.0,0.0,0.0,0.0,0.0,0.0,0.0,0.0,0.0,0.0,0.0,0.0,0.0,0.0,0.0,0.0,0.0,0.0,0.0,0.0,0.0,0.0,0.0,0.0,0.0,0.0,0.0,0.0,0.0,-5.5175,-5.7558,-5.7988,-5.8515,-5.9199,-5.8959,-5.7697,0.0,0.0,0.0,0.0,0.0,0.0,0.0,0.0,0.0,0.0,0.0,0.0,0.0,0.0,0.0,0.0,0.0,0.0,0.0,0.0,0.0,0.0,0.0,0.0,0.0,0.0,0.0,0.0,0.0,0.0,0.0,0.0,0.0,0.0,0.0,0.0,0.0,0.0,0.0,0.0,0.0,0.0,0.0,0.0,0.0,0.0,0.0,0.0,-5.5861,0.0,0.0,0.0,0.0,0.0,0.0,0.0,0.0,0.0,0.0,0.0,0.0,0.0,0.0,0.0,0.0,0.0,0.0,0.0,0.0,0.0,0.0,0.0,0.0,0.0,0.0,0.0,0.0,0.0,0.0,0.0,0.0,0.0,0.0,0.0,0.0,0.0,0.0,0.0,0.0,0.0,0.0,0.0,0.0,0.0,0.0,0.0,0.0,0.0,0.0,0.0,0.0,0.0,0.0,0.0,0.0,0.0,0.0,0.0,-5.5074,-5.7206,-5.7695,-5.7929,-5.7988,-5.8337,-5.751,0.0,0.0,0.0,0.0,0.0,0.0,0.0,0.0,0.0,0.0,0.0,0.0,0.0,0.0,0.0,0.0,0.0,0.0,0.0,0.0,0.0,0.0,0.0,0.0,0.0,0.0,0.0,0.0,0.0,0.0,0.0,0.0,0.0,0.0,0.0,0.0,0.0,0.0,0.0,0.0,0.0,0.0,0.0,0.0,0.0,0.0,0.0,0.0,0.0,0.0,0.0,0.0,0.0,0.0,0.0,0.0,0.0,0.0,0.0,0.0,0.0,0.0,0.0,0.0,0.0,0.0,0.0,0.0,0.0,0.0,0.0,0.0,0.0,0.0,0.0,0.0,0.0,0.0,0.0,0.0,0.0,0.0,0.0,0.0,0.0,0.0,0.0,0.0,0.0,0.0,0.0,0.0,0.0,0.0,0.0,0.0,0.0,0.0,0.0,0.0,0.0,0.0,0.0,0.0,0.0,0.0,0.0,-5.3604,-5.4828,-5.6538,-5.73,-5.7341,-5.664,-5.7187,-5.6754,-5.5144,0.0,0.0,0.0,0.0,0.0,0.0,0.0,0.0,0.0,0.0,0.0,0.0,0.0,0.0,0.0,0.0,0.0,0.0,0.0,0.0,0.0,0.0,0.0,0.0,0.0,0.0,0.0,0.0,0.0,0.0,0.0,0.0,0.0,0.0,0.0,0.0,0.0,0.0,-5.2962,-5.6796,0.0,0.0,0.0,0.0,0.0,0.0,0.0,0.0,-6.149,0.0,0.0,0.0,0.0,0.0,0.0,0.0,0.0,0.0,0.0,0.0,0.0,0.0,0.0,0.0,0.0,0.0,0.0,0.0,0.0,0.0,0.0,0.0,0.0,0.0,0.0,0.0,0.0,0.0,0.0,0.0,0.0,0.0,0.0,0.0,0.0,0.0,0.0,0.0,0.0,0.0,0.0,0.0,0.0,0.0,0.0,0.0,0.0,0.0,0.0,0.0,0.0,0.0,0.0,0.0,0.0,-5.3644,-5.3835,-5.4757,-5.6476,-5.666,-5.6689,-5.66,-5.6053,-5.5254,-5.4196,0.0,0.0,0.0,0.0,0.0,0.0,0.0,0.0,0.0,0.0,0.0,0.0,0.0,0.0,0.0,0.0,0.0,0.0,0.0,0.0,0.0,0.0,0.0,0.0,0.0,0.0,0.0,0.0,0.0,0.0,0.0,0.0,0.0,0.0,0.0,0.0,0.0,0.0,0.0,-5.9622,-6.1585,0.0,0.0,0.0,0.0,0.0,0.0,0.0,0.0,-6.2898,0.0,0.0,0.0,0.0,0.0,0.0,0.0,0.0,0.0,0.0,0.0,0.0,0.0,0.0,0.0,0.0,0.0,0.0,0.0,0.0,0.0,0.0,0.0,0.0,0.0,0.0,0.0,0.0,0.0,0.0,0.0,0.0,0.0,0.0,0.0,0.0,0.0,0.0,0.0,0.0,0.0,0.0,0.0,0.0,0.0,0.0,0.0,0.0,0.0,0.0,0.0,0.0,0.0,0.0,0.0,-5.3643,-5.4236,-5.5108,-5.6384,-5.6461,-5.648,-5.6522,-5.575,-5.4896,0.0,0.0,0.0,0.0,0.0,0.0,0.0,0.0,0.0,0.0,0.0,0.0,0.0,0.0,0.0,0.0,0.0,0.0,0.0,0.0,0.0,0.0,0.0,0.0,0.0,0.0,0.0,0.0,0.0,0.0,0.0,0.0,0.0,0.0,0.0,0.0,0.0,0.0,0.0,0.0,-6.1795,-6.37,-6.3739,0.0,0.0,0.0,0.0,0.0,0.0,-6.5868,-6.5153,0.0,0.0,0.0,0.0,0.0,0.0,0.0,0.0,0.0,0.0,0.0,0.0,0.0,0.0,0.0,0.0,0.0,0.0,0.0,0.0,0.0,0.0,0.0,0.0,0.0,0.0,0.0,0.0,0.0,0.0,0.0,0.0,0.0,0.0,0.0,0.0,0.0,0.0,0.0,0.0,0.0,0.0,0.0,0.0,0.0,0.0,0.0,0.0,0.0,0.0,0.0,0.0,0.0,0.0,0.0,-5.3578,-5.4511,-5.5413,-5.631,-5.6357,-5.6395,-5.6475,-5.5677,-5.4873,0.0,0.0,0.0,0.0,0.0,0.0,0.0,0.0,0.0,0.0,0.0,0.0,0.0,0.0,0.0,0.0,0.0,0.0,0.0,0.0,0.0,0.0,0.0,0.0,0.0,0.0,0.0,0.0,0.0,0.0,0.0,0.0,0.0,0.0,0.0,0.0,0.0,0.0,0.0,0.0,0.0,-6.5415,-6.6433,-6.7377,0.0,0.0,0.0,0.0,-6.7735,-6.7629,0.0,0.0,0.0,0.0,0.0,0.0,0.0,0.0,0.0,0.0,0.0,0.0,0.0,0.0,0.0,0.0,0.0,0.0,0.0,0.0,0.0,0.0,0.0,0.0,0.0,0.0,0.0,0.0,0.0,0.0,0.0,0.0,0.0,0.0,0.0,0.0,0.0,0.0,0.0,0.0,0.0,0.0,0.0,0.0,0.0,0.0,0.0,0.0,0.0,0.0,0.0,0.0,0.0,0.0,0.0,0.0,-5.3441,-5.4382,-5.5276,-5.6168,-5.6207,-5.6283,-5.6394,-5.5564,-5.4749,0.0,0.0,0.0,0.0,0.0,0.0,0.0,0.0,0.0,0.0,0.0,0.0,0.0,0.0,0.0,0.0,0.0,0.0,0.0,0.0,0.0,0.0,0.0,0.0,0.0,0.0,0.0,0.0,0.0,0.0,0.0,0.0,0.0,0.0,0.0,0.0,0.0,0.0,0.0,0.0,0.0,-6.6453,-6.8005,-6.9018,-6.9324,0.0,0.0,-6.8482,-6.8458,-6.7881,0.0,0.0,0.0,0.0,0.0,0.0,0.0,0.0,0.0,0.0,0.0,0.0,0.0,0.0,0.0,0.0,0.0,0.0,0.0,0.0,0.0,0.0,0.0,0.0,0.0,0.0,0.0,0.0,0.0,0.0,0.0,0.0,0.0,0.0,0.0,0.0,0.0,0.0,0.0,0.0,0.0,0.0,0.0,0.0,0.0,0.0,0.0,0.0,0.0,0.0,0.0,0.0,0.0,0.0,0.0,-5.2273,-5.4792,-5.5718,-5.6594,-5.7467,-5.7508,-5.7559,-5.7644,-5.6393,-5.5355,0.0,0.0,0.0,0.0,0.0,0.0,0.0,0.0,0.0,0.0,0.0,0.0,0.0,0.0,0.0,0.0,0.0,0.0,0.0,0.0,0.0,0.0,0.0,0.0,0.0,0.0,0.0,0.0,0.0,0.0,0.0,0.0,0.0,0.0,0.0,0.0,0.0,0.0,0.0,0.0,0.0,0.0,-6.8827,-6.992,0.0,0.0,0.0,-6.9945,-6.9893,0.0,0.0,0.0,0.0,0.0,0.0,0.0,0.0,0.0,0.0,0.0,0.0,0.0,0.0,0.0,0.0,0.0,0.0,0.0,0.0,0.0,0.0,0.0,0.0,0.0,0.0,0.0,0.0,0.0,0.0,0.0,0.0,0.0,0.0,0.0,0.0,0.0,0.0,0.0,0.0,0.0,0.0,0.0,0.0,0.0,0.0,0.0,0.0,0.0,0.0,0.0,0.0,0.0,0.0,0.0,0.0,0.0,-5.5738,-5.6845,-5.7723,-5.8403,-5.8423,-5.8481,-5.8534,-5.7184,0.0,0.0,0.0,0.0,0.0,0.0,0.0,0.0,0.0,0.0,0.0,0.0,0.0,0.0,0.0,0.0,0.0,0.0,0.0,0.0,0.0,0.0,0.0,0.0,0.0,0.0,0.0,-4.6739,0.0,0.0,0.0,0.0,0.0,0.0,0.0,0.0,0.0,0.0,0.0,0.0,0.0,0.0,-6.6655,-6.9174,-7.0338,-7.0925,0.0,0.0,-7.0952,-7.0879,-7.0073,-6.9014,0.0,0.0,0.0,0.0,0.0,0.0,0.0,0.0,0.0,0.0,0.0,0.0,0.0,0.0,0.0,0.0,0.0,0.0,0.0,0.0,0.0,0.0,0.0,0.0,0.0,0.0,0.0,0.0,0.0,0.0,0.0,0.0,0.0,0.0,0.0,0.0,0.0,0.0,0.0,0.0,0.0,0.0,0.0,0.0,0.0,0.0,0.0,0.0,0.0,0.0,0.0,0.0,0.0,0.0,-5.3752,-5.5508,-5.7065,-5.7989,-5.8223,-5.8215,-5.8321,-5.8491,-5.7612,-5.6794,0.0,0.0,0.0,0.0,0.0,0.0,0.0,0.0,0.0,0.0,0.0,0.0,0.0,0.0,0.0,0.0,0.0,0.0,0.0,0.0,0.0,0.0,0.0,0.0,0.0,0.0,0.0,0.0,0.0,0.0,0.0,0.0,0.0,0.0,0.0,0.0,0.0,0.0,0.0,0.0,0.0,-6.6442,-6.897,-7.0177,-7.082,0.0,-7.0857,-7.0912,-7.0898,-6.9533,-6.8482,-6.843,0.0,0.0,0.0,0.0,0.0,0.0,0.0,0.0,0.0,0.0,0.0,0.0,0.0,0.0,0.0,0.0,0.0,0.0,0.0,0.0,0.0,0.0,0.0,0.0,0.0,0.0,0.0,0.0,0.0,0.0,0.0,0.0,0.0,0.0,0.0,0.0,0.0,0.0,0.0,0.0,0.0,0.0,0.0,0.0,0.0,0.0,0.0,0.0,0.0,0.0,0.0,0.0,0.0,-5.4606,-5.6763,-5.7922,-5.883,-5.9466,-5.9575,-5.9674,-5.9865,-5.9051,-5.8026,0.0,0.0,0.0,0.0,0.0,0.0,0.0,0.0,0.0,0.0,0.0,0.0,0.0,0.0,0.0,0.0,0.0,0.0,0.0,0.0,0.0,0.0,0.0,0.0,0.0,0.0,0.0,0.0,-5.1097,-5.1499,-5.1704,0.0,0.0,0.0,0.0,0.0,0.0,0.0,0.0,0.0,0.0,-6.5841,-6.789,-6.9537,0.0,0.0,-7.0714,-7.0791,-7.0777,-6.9779,-6.8866,-6.8435,-6.6352,0.0,0.0,0.0,0.0,0.0,0.0,0.0,0.0,0.0,0.0,0.0,0.0,0.0,0.0,0.0,0.0,0.0,0.0,0.0,0.0,0.0,0.0,0.0,0.0,0.0,0.0,0.0,0.0,0.0,0.0,0.0,0.0,0.0,0.0,0.0,0.0,0.0,0.0,0.0,0.0,0.0,0.0,0.0,0.0,0.0,0.0,0.0,0.0,0.0,0.0,0.0,0.0,-5.5156,-5.74,-5.8498,-5.941,-6.0127,-6.0275,-6.0406,-6.0533,-5.981,-5.8731,0.0,0.0,0.0,0.0,0.0,0.0,0.0,0.0,0.0,0.0,0.0,0.0,0.0,0.0,0.0,0.0,0.0,0.0,0.0,0.0,0.0,0.0,0.0,0.0,0.0,0.0,0.0,0.0,-5.1694,-5.192,-5.1567,0.0,0.0,0.0,0.0,0.0,0.0,0.0,0.0,0.0,0.0,-6.4969,-6.6689,-6.8628,-6.9916,-7.0018,-7.0359,-7.0551,-7.0283,-6.9521,-6.8689,-6.7975,0.0,0.0,0.0,0.0,0.0,0.0,0.0,0.0,0.0,0.0,0.0,0.0,0.0,0.0,0.0,0.0,0.0,0.0,0.0,0.0,0.0,0.0,0.0,0.0,0.0,0.0,0.0,-4.8104,0.0,0.0,-4.6955,0.0,0.0,0.0,0.0,0.0,0.0,0.0,0.0,0.0,0.0,0.0,0.0,0.0,0.0,0.0,0.0,0.0,0.0,0.0,0.0,0.0,0.0,-5.5273,-5.7088,-5.8553,-5.947,-5.9791,-5.9887,-5.9992,-6.0194,-5.9502,-5.8729,-5.7889,0.0,0.0,0.0,0.0,0.0,0.0,0.0,0.0,0.0,0.0,0.0,0.0,0.0,0.0,0.0,0.0,0.0,0.0,0.0,0.0,0.0,0.0,0.0,0.0,0.0,0.0,-5.24,-5.2628,-5.2311,0.0,0.0,0.0,0.0,0.0,0.0,0.0,0.0,0.0,-5.987,-6.1995,-6.3841,-6.5442,-6.7411,-6.8765,-6.8908,-6.9747,-7.0113,-6.9349,-6.8489,-6.768,0.0,0.0,0.0,0.0,0.0,0.0,0.0,0.0,0.0,0.0,0.0,0.0,0.0,0.0,0.0,0.0,0.0,0.0,0.0,0.0,0.0,0.0,0.0,0.0,0.0,0.0,0.0,-5.0705,-5.0303,0.0,0.0,0.0,0.0,0.0,0.0,0.0,0.0,0.0,0.0,0.0,-5.4651,-5.4093,0.0,0.0,0.0,0.0,0.0,0.0,0.0,0.0,0.0,0.0,0.0,0.0,-5.549,-5.6538,-5.8125,-5.9083,-5.9326,-5.9452,-5.9643,-5.9918,-5.9703,-5.8976,-5.7731,0.0,0.0,0.0,0.0,0.0,0.0,0.0,0.0,0.0,0.0,0.0,0.0,0.0,0.0,0.0,0.0,0.0,0.0,0.0,0.0,0.0,0.0,0.0,0.0,0.0,-5.0463,0.0,0.0,0.0,0.0,0.0,0.0,0.0,0.0,0.0,0.0,-5.478,-5.704,-5.9576,-6.1871,-6.3792,-6.5045,-6.6349,-6.7329,0.0,0.0,0.0,0.0,0.0,0.0,0.0,0.0,0.0,0.0,0.0,0.0,0.0,0.0,-5.8424,-5.7049,-5.6802,-5.6754,-5.6618,0.0,0.0,0.0,0.0,0.0,0.0,0.0,0.0,0.0,0.0,0.0,0.0,0.0,0.0,-5.2921,-5.2456,-5.1621,0.0,0.0,0.0,0.0,0.0,0.0,0.0,0.0,-5.4662,-5.5214,-5.5733,-5.5159,-5.4941,-5.4988,-5.4472,-5.3226,0.0,0.0,0.0,0.0,0.0,0.0,0.0,0.0,-5.5559,-5.6514,-5.7872,-5.8665,-5.8868,-5.9005,-5.9197,-5.9451,-5.9185,-5.8661,-5.7753,-5.6125,-5.4662,0.0,0.0,0.0,0.0,0.0,0.0,0.0,0.0,0.0,0.0,0.0,0.0,0.0,0.0,0.0,0.0,0.0,0.0,0.0,0.0,0.0,0.0,0.0,-5.0751,0.0,0.0,0.0,0.0,0.0,0.0,0.0,0.0,0.0,-5.3386,-5.5115,-5.7167,-5.9693,-6.1458,-6.2937,-6.4192,0.0,0.0,0.0,0.0,0.0,0.0,0.0,-6.5823,-6.5612,-6.5103,-6.446,-6.3643,-6.2305,-6.1252,-6.095,0.0,0.0,-5.8776,-5.864,-5.8686,-5.8835,-5.8547,-5.8253,-5.8198,-5.7809,-5.7529,0.0,0.0,0.0,0.0,-5.4056,0.0,0.0,0.0,-5.5634,-5.5401,0.0,-5.3624,0.0,0.0,0.0,0.0,-5.2486,-5.2726,0.0,0.0,-5.5161,-5.5143,-5.5179,-5.5179,-5.5161,-5.5161,-5.5143,-5.5125,-5.5007,-5.338,-5.2585,0.0,0.0,0.0,0.0,0.0,-5.5528,-5.7042,-5.7822,-5.8308,-5.8489,-5.8614,-5.8721,-5.8769,-5.8141,-5.7847,-5.7921,-5.6421,-5.5286,-5.4645,-5.3,0.0,0.0,0.0,0.0,0.0,0.0,0.0,0.0,0.0,0.0,0.0,0.0,0.0,0.0,0.0,0.0,0.0,0.0,0.0,0.0,-5.0641,0.0,0.0,0.0,0.0,0.0,0.0,0.0,0.0,0.0,-5.2215,-5.459,-5.5643,-5.722,-6.0172,0.0,0.0,0.0,0.0,-6.4752,-6.4977,-6.5817,-6.613,-6.5428,-6.5336,-6.5076,-6.4385,0.0,0.0,-6.3181,-6.2315,-6.143,-6.0623,-5.9816,-5.959,-6.0526,-6.0544,-6.0772,-6.1337,-6.0695,-6.0279,-6.0086,-5.9221,-5.8767,-5.921,0.0,0.0,0.0,0.0,-5.5315,-5.53,-5.5167,-5.5226,-5.5076,-5.4747,-5.4384,0.0,0.0,0.0,0.0,0.0,0.0,-5.4712,-5.5263,-5.5923,-5.6245,-5.6245,-5.6245,-5.6245,-5.6245,-5.6245,-5.6194,-5.6063,-5.5013,-5.4444,-5.4364,0.0,0.0,0.0,0.0,-5.6415,-5.6893,-5.7661,-5.8133,-5.829,-5.8331,-5.8422,-5.8577,-5.8477,-5.817,-5.7595,-5.7111,-5.6536,-5.5846,-5.4258,0.0,0.0,0.0,0.0,0.0,0.0,0.0,0.0,0.0,0.0,0.0,0.0,0.0,0.0,0.0,0.0,0.0,0.0,0.0,-5.1287,-5.1306,-5.1269,0.0,0.0,0.0,0.0,0.0,0.0,0.0,0.0,0.0,-5.4326,-5.5874,-5.7468,0.0,0.0,-6.0709,-6.1263,-6.1615,-6.1856,-6.2034,-6.2354,0.0,-6.2318,-6.2327,-6.2297,-6.2076,-6.2058,-6.1964,-6.1722,-6.0992,-6.0375,-6.0095,-5.9404,-5.9125,-5.9812,-5.9733,-5.9588,-5.9676,-5.9345,-5.9035,-5.8974,-5.872,-5.8545,-6.0119,-5.8604,-5.8477,-5.7757,-5.6726,-5.6322,-5.6077,-5.5849,-5.5679,-5.5555,-5.5418,-5.4996,-5.4577,-5.4225,-5.3653,0.0,0.0,0.0,-5.48,-5.515,-5.5723,-5.5981,-5.5981,-5.5981,-5.5981,-5.5981,-5.5981,-5.5953,-5.5841,-5.538,-5.515,-5.5137,0.0,-5.5176,-5.5653,-5.6249,-5.6744,-5.712,-5.7601,-5.7881,-5.7973,-5.802,-5.8133,-5.8294,-5.8359,-5.8203,-5.7746,-5.7728,-5.7381,-5.665,-5.5407,-5.3998,0.0,0.0,0.0,0.0,0.0,0.0,0.0,0.0,0.0,0.0,0.0,-4.5971,-4.7567,0.0,0.0,0.0,-5.0248,-5.0935,-5.2071,-5.1206,0.0,0.0,0.0,0.0,0.0,0.0,0.0,-5.0395,-5.0742,-5.1676,-5.3734,-5.5089,-5.6606,-5.8474,-5.9428,-6.0076,-6.0483,0.0,-6.0567,-6.0706,-6.0775,-6.0866,-6.0911,-6.0937,-6.0963,-6.0981,-6.0981,-6.0981,-6.0944,-6.0314,-5.9795,-5.9684,-5.9128,-5.8696,-5.9094,-5.889,-5.8939,-5.9513,-5.9255,-5.8924,-5.8862,-5.8574,-5.8308,-6.0357,-5.8932,-5.8561,-5.8285,-5.8089,-5.7376,-5.6879,-5.6617,-5.6554,-5.6412,-5.613,-5.5408,-5.474,-5.4133,-5.3159,0.0,-5.3558,-5.3745,-5.4218,-5.4844,-5.4844,-5.4861,-5.4861,-5.4874,-5.4861,-5.4892,-5.4844,-5.4809,-5.4757,-5.4757,-5.4831,-5.4942,-5.4411,-5.4773,-5.5966,-5.6169,-5.6679,-5.7534,-5.7553,-5.7553,-5.7553,-5.7697,-5.7815,-5.7932,-5.7973,-5.802,-5.8133,-5.8078,-5.7737,-5.7073,-5.6245,-5.5069,-5.3525,0.0,0.0,0.0,0.0,0.0,0.0,0.0,0.0,0.0,0.0,0.0,0.0,0.0,0.0,-5.099,-5.0928,0.0,-5.1809,-5.0532,0.0,0.0,0.0,-4.855,-4.855,-4.855,-4.8827,-4.958,0.0,0.0,-5.2892,-5.3664,-5.4979,-5.7363,-5.8354,-5.9142,-5.9858,-5.9876,-6.0039,-5.9955,-6.0107,-6.0167,-5.9964,-6.0042,-6.0006,-6.0024,-6.036,-6.0157,-6.0121,-5.9641,-5.9253,-5.9128,-5.8648,-5.815,-5.8168,-5.801,-5.8496,-5.9885,-5.9774,-5.9341,-5.9048,-5.8492,-5.7994,-5.8579,-5.7662,-5.698,-5.673,-5.6725,-5.6209,-5.5887,-5.5705,-5.5437,-5.5308,-5.5219,-5.4912,-5.457,-5.4181,-5.3822,-5.3761,-5.3901,-5.4026,-5.4207,-5.4362,-5.454,-5.462,-5.4572,-5.462,-5.4589,-5.4572,-5.4603,-5.4247,-5.3552,-5.3518,-5.3318,-5.2931,-5.2933,-5.4024,-5.6152,-5.6515,-5.6804,-5.7138,-5.7138,-5.7138,-5.7138,-5.7381,-5.751,-5.7553,-5.7649,-5.7721,-5.7726,-5.7141,-5.6786,-5.6699,-5.5361,-5.394,-5.2447,-5.1196,0.0,0.0,0.0,0.0,0.0,0.0,0.0,0.0,0.0,-4.739,-4.8365,0.0,-4.9669,0.0,-5.024,-5.0616,-5.0738,-4.99,0.0,0.0,-4.8606,-4.8132,-4.8151,-4.8132,-4.8462,-4.9245,-4.948,-5.0211,-5.1779,-5.2652,-5.3521,-5.4638,-5.5582,-5.6236,-5.6418,-5.6437,-5.6437,-5.6556,-5.6611,-5.6506,-5.6639,-5.653,-5.6621,-5.653,-5.6548,-5.6553,-5.6703,-5.6538,-5.6455,-5.6526,-5.6415,-5.6268,-5.6327,-5.6228,-5.6375,-5.682,-5.7629,-5.818,-5.7565,-5.7271,-5.6959,-5.6764,-5.6001,-5.5126,-5.4831,-5.4893,-5.5126,-5.5134,-5.4987,-5.4803,-5.4662,-5.4582,-5.4365,-5.4141,-5.3979,-5.3816,-5.3784,-5.3767,-5.3849,-5.3882,-5.3915,-5.3997,-5.3874,-5.3532,-5.3532,-5.3361,-5.3053,-5.3036,-5.275,-5.2277,-5.2228,-5.2167,-5.1987,-5.217,-5.3077,-5.4645,-5.5087,-5.5375,-5.5568,-5.5829,-5.6214,-5.6661,-5.6837,-5.7018,-5.7195,-5.6944,-5.6836,-5.6867,-5.6146,-5.5775,-5.5856,-5.4688,-5.3511,-5.2416,-5.1167,-4.9572,0.0,0.0,0.0,0.0,0.0,0.0,0.0,0.0,0.0,0.0,0.0,-4.9362,-4.9685,-4.9731,-4.9743,-4.9725,-4.9013,-4.8559,-4.8541,-4.8141,-4.7868,-4.7868,-4.7868,-4.8031,-4.8486,-4.8831,-4.9395,-5.0286,-5.1064,-5.161,-5.1932,-5.2366,-5.3269,-5.4753,-5.5067,-5.5067,-5.5067,-5.5049,-5.5049,-5.5049,-5.5067,-5.5067,-5.5073,-5.5078,-5.513,-5.5217,-5.5263,-5.535,-5.5395,-5.5418,-5.544,-5.5503,-5.5507,-5.5548,-5.5702,-5.629,-5.6675,-5.6363,-5.6253,-5.6106,-5.4913,-5.3989,-5.3275,-5.2906,-5.2923,-5.3877,-5.4287,-5.4399,-5.4385,-5.4271,-5.4091,-5.3799,-5.3684,-5.3651,-5.3568,-5.3518,-5.3518,-5.3518,-5.3518,-5.3501,-5.3399,-5.2976,-5.23,-5.2114,-5.1691,-5.1082,-5.098,-5.0864,-5.0779,-5.0762,-5.0903,-5.1114,-5.1298,-5.1649,-5.2085,-5.2467,-5.3021,-5.3682,-5.428,-5.5061,-5.594,-5.6014,-5.625,-5.6579,-5.5919,-5.5606,-5.5688,-5.5033,-5.4653,-5.4591,-5.3847,-5.3035,-5.2261,-5.0788,-4.9288,0.0,-4.699,0.0,0.0,0.0,0.0,0.0,0.0,0.0,0.0,-4.8649,-4.8938,-4.9629,-4.9065,-4.8667,-4.8667,-4.803,-4.7593,-4.7593,-4.7615,-4.7593,-4.7615,-4.7593,-4.7633,-4.7593,-4.8229,-4.8685,-4.8862,-4.9356,-4.9658,-4.9778,-4.9769,-5.0743,-5.3315,-5.3935,-5.3947,-5.4291,-5.4418,-5.4249,-5.4303,-5.4375,-5.4357,-5.4436,-5.4399,-5.4573,-5.4361,-5.4449,-5.4578,-5.4474,-5.4333,-5.4506,-5.4856,-5.4842,-5.4942,-5.5049,-5.5181,-5.5273,-5.5409,-5.5445,-5.5431,-5.309,-5.1834,-5.1649,-5.1581,-5.1566,-5.1749,-5.2611,-5.3832,-5.3734,-5.3651,-5.3618,-5.3551,-5.3517,-5.3534,-5.3501,-5.3518,-5.3518,-5.3518,-5.3518,-5.3484,-5.2824,-5.2469,-5.2232,-5.1065,-5.0439,-5.027,-4.9695,-4.912,-4.8514,-4.8514,-4.8374,-4.8058,-4.8099,-4.8358,-4.8778,0.0,0.0,0.0,-5.369,-5.4068,-5.4267,-5.453,-5.4701,-5.4797,-5.4429,0.0,-5.4197,-5.3621,-5.305,-5.2491,-5.1718,0.0,0.0,0.0,0.0,0.0,0.0,0.0,0.0,0.0,0.0,0.0,-4.6454,-4.6671,-4.729,-4.7371,-4.7424,-4.7568,-4.7442,-4.7371,-4.7371,-4.7245,-4.7133,-4.7116,-4.7116,-4.7133,-4.7133,-4.7133,-4.7133,-4.7133,-4.7299,-4.7621,-4.8212,-4.8458,-4.8692,-4.9091,-4.9172,-4.9305,-4.9866,-5.037,-5.0683,-5.1226,-5.1936,-5.2276,-5.2312,-5.2312,-5.2312,-5.2312,-5.2411,-5.23,-5.1874,-5.1852,-5.1701,-5.132,-5.1155,-5.153,-5.2152,-5.2273,-5.259,-5.32,-5.3346,-5.3573,-5.4411,-5.462,-5.4436,-5.1352,-5.0625,-5.027,-5.0338,0.0,-5.0659,-5.1334,-5.2482,-5.2383,-5.2367,-5.2367,-5.2384,-5.2384,-5.2401,-5.2756,-5.2909,-5.2909,-5.2909,-5.2926,-5.2858,-5.2114,-5.1369,-5.0642,-4.9915,-4.9171,-4.846,-4.8105,-4.7716,-4.7378,-4.7361,-4.7276,-4.7072,-4.7118,-4.729,-4.7599,-4.7533,-4.8821,-5.1495,-5.1789,-5.2344,-5.3128,-5.3328,-5.3294,-5.3052,-5.2504,0.0,0.0,0.0,0.0,0.0,0.0,0.0,0.0,-4.8004,-4.7577,-4.6761,-4.6637,-4.6613,-4.6613,-4.6495,-4.6357,-4.6308,-4.6112,-4.6186,-4.6566,-4.6613,-4.6613,-4.6613,-4.6613,-4.6613,-4.6596,-4.6631,-4.6613,-4.6613,-4.6613,-4.659,-4.6613,-4.6613,-4.6613,-4.6613,-4.6613,-4.6773,-4.7145,-4.7216,-4.7309,-4.7565,-4.758,-4.7498,-4.746,-4.831,-4.9171,-4.9508,-4.988,-5.0138,-5.0181,-5.0173,-5.0199,-5.0181,-5.0332,-5.0339,-5.0019,-5.0116,-5.0155,-4.9829,-4.9848,-5.0101,-5.048,-5.0695,-5.0911,-5.134,-5.153,-5.1704,-5.2349,-5.3075,-5.3619,-5.0016,-4.9847,-4.9272,-4.934,-4.9898,-4.9898,-5.0253,-5.0813,-5.1067,0.0,0.0,-5.1234,-5.1234,-5.1219,-5.1843,-5.2114,-5.2114,-5.2114,-5.2114,-5.2063,-5.1217,-5.0185,-4.9018,-4.8595,-4.7784,-4.6633,-4.6464,-4.6426,-4.6413,-4.6397,-4.6467,-4.6612,-4.6595,-4.6698,-4.6868,-4.6896,-4.7712,-4.9235,-4.955,-5.0331,-5.1687,-5.1721,-5.1511,-5.1157,-5.0446,-4.9831,-4.9336,-4.8767,-4.8434,-4.843,-4.8455,-4.8154,-4.7495,-4.735,-4.6995,-4.6354,-4.6204,-4.6112,-4.6087,-4.5988,-4.5912,-4.5862,-4.5632,-4.5658,-4.6062,-4.6062,-4.6062,-4.6062,-4.6062,-4.6045,-4.6062,-4.6062,-4.6062,-4.6045,-4.6062,-4.6062,-4.6062,-4.6062,-4.6062,-4.6062,-4.6062,-4.6045,-4.608,-4.6097,-4.602,-4.5912,-4.6027,-4.5811,-4.59,-4.7169,-4.8198,-4.8242,-4.8452,-4.8522,-4.8496,-4.8574,-4.8487,-4.8661,-4.8806,-4.8859,-4.8742,-4.8873,-4.8983,-4.8722,-4.8889,-4.9048,-4.9308,-4.95,-4.9686,-4.9906,-5.0071,-5.0177,-5.0312,-5.137,-5.236,-4.9729,-4.9137,-4.9052,-4.9069,-4.9171,-4.9154,-4.9221,-4.9424,-5.0659,-5.1217,-5.1234,-5.1234,-5.1234,-5.1234,-5.1319,-5.1352,-5.1369,-5.1369,-5.1354,-5.1285,-4.9949,-4.9204,-4.89,-4.7073,-4.6058,-4.5805,-4.5213,-4.4919,-4.4919,-4.4919,-4.4976,-4.5099,-4.5109,-4.5199,-4.5302,-4.533,-4.5768,-4.6651,-4.7773,-4.8481,-4.8716,-4.8733,-4.8694,-4.8616,-4.8192,-4.7885,-4.781,-4.7827,-4.759,-4.7099,-4.7073,-4.6795,-4.6131,-4.6071,-4.6001,-4.5914,-4.5871,-4.5821,-4.5684,-4.5658,-4.5555,-4.5336,-4.515,-4.5257,-4.5632,-4.558,-4.5503,-4.5503,-4.5546,-4.552,-4.552,-4.5529,-4.5546,-4.5503,-4.5503,-4.5503,-4.5546,-4.5529,-4.5529,-4.5529,-4.552,-4.5503,-4.5529,-4.5529,-4.5546,-4.5494,-4.5441,-4.53,-4.5367,-4.6228,-4.6906,-4.7009,-4.7432,-4.7805,-4.781,-4.7976,-4.7908,-4.8136,-4.8225,-4.8092,-4.7524,-4.7563,-4.7477,-4.6819,-4.7037,-4.7358,-4.7903,-4.8271,-4.862,-4.9156,-4.9322,-4.9433,-4.9541,-4.9979,-5.0335,-4.9306,-4.9018,-4.9018,-4.9018,-4.8968,-4.8595,-4.8173,-4.7868,-4.8528,-4.9289,-4.9999,-5.0016,-5.0016,-5.005,-5.0422,-5.0591,-5.0591,-5.0202,-5.0016,-4.9898,-4.8477,-4.7597,-4.7158,-4.616,-4.5483,-4.5077,-4.4784,-4.4598,-4.4598,-4.4598,-4.4626,-4.4665,-4.4682,-4.4737,-4.4776,-4.4776,-4.4946,-4.5286,-4.6425,-4.7215,-4.7641,-4.7658,-4.7454,-4.7027,-4.6828,-4.6552,-4.6158,-4.6213,-4.6124,-4.5851,-4.5817,-4.5688,-4.5371,-4.538,-4.538,-4.538,-4.5353,-4.5353,-4.5283,-4.5283,-4.523,-4.5113,-4.4951,-4.4951,-4.515,-4.5177,-4.5194,-4.5177,-4.5177,-4.5177,-4.5177,-4.5177,-4.5177,-4.5194,-4.5177,-4.5177,-4.5194,-4.5194,-4.5177,-4.5177,-4.5194,-4.5177,-4.5177,-4.5177,-4.5177,-4.5177,-4.5113,-4.5015,-4.4896,-4.535,-4.5743,-4.5743,-4.6018,-4.6199,-4.635,-4.6333,-4.636,-4.6414,-4.6548,-4.6516,-4.6169,-4.6274,-4.6245,-4.5992,-4.6087,-4.6383,-4.6812,-4.6976,-4.7291,-4.7475,-4.7742,-4.782,-4.7986,-4.8125,-4.8726,-4.9018,-4.9018,-4.9018,-4.8917,-4.8697,-4.797,-4.7327,-4.6819,-4.6802,-4.7445,-4.8426,-4.8663,-4.8765,-4.8815,-4.9373,-4.9593,-4.9509,-4.8832,-4.8511,-4.8376,-4.7141,-4.6227,-4.572,-4.5551,-4.5145,-4.4649,-4.4598,-4.4598,-4.4598,-4.4598,-4.4598,-4.4598,-4.4598,-4.4598,-4.4598,-4.4598,-4.4598,-4.4632,-4.5365,-4.6056,-4.6664,-4.6698,-4.6305,-4.5561,-4.5476,-4.5135,-4.4436,-4.4555,-4.4657,-4.4712,-4.4865,-4.4968,-4.5005,-4.5022,-4.5022,-4.5022,-4.5022,-4.4978,-4.4968,-4.4923,-4.4896,-4.4896,-4.4803,-4.4748,-4.4748,-4.4661,-4.4726,-4.4862,-4.4913,-4.4913,-4.4913,-4.4896,-4.4913,-4.4913,-4.4896,-4.4896,-4.4896,-4.4913,-4.4913,-4.4913,-4.4913,-4.4913,-4.4913,-4.4913,-4.4896,-4.4896,-4.4896,-4.4858,-4.4793,-4.4765,-4.482,-4.4858,-4.4913,-4.5009,-4.4923,-4.5002,-4.5063,-4.4995,-4.5165,-4.5297,-4.5272,-4.538,-4.5424,-4.5494,-4.5658,-4.5803,-4.5854,-4.5972,-4.6083,-4.6195,-4.6305,-4.6347,-4.6588,-4.6761,-4.7382,-4.9018,-4.9018,-4.8984,-4.8612,-4.7906,-4.7208,-4.6836,-4.6752,-4.6769,-4.6836,-4.7039,-4.7699,-4.7973,-4.799,-4.8105,-4.8156,-4.8075,-4.7344,-4.7022,-4.6955,-4.6177,-4.5771,-4.5618,-4.501,-4.4666,-4.4598,-4.4598,-4.4598,-4.4598,-4.457,-4.4598,-4.4598,-4.4598,-4.457,-4.457,-4.457,-4.457,-4.4598,-4.4694,-4.4761,-4.4829,-4.4829,-4.4473,-4.3684,-4.3667,-4.3295,-4.2722,-4.3176,-4.3647,-4.3868,-4.4446,-4.4869,-4.4978,-4.5005,-4.5005,-4.4995,-4.4995,-4.4968,-4.4831,-4.4726,-4.4654,-4.4626,-4.4626,-4.4626,-4.4575,-4.3955,-4.387,-4.4383,-4.4592,-4.4535,-4.4654,-4.4603,-4.4603,-4.4682,-4.4654,-4.4643,-4.4654,-4.4643,-4.4626,-4.4643,-4.4654,-4.4626,-4.4654,-4.4654,-4.4654,-4.4682,-4.4682,-4.4682,-4.4654,-4.4626,-4.4626,-4.4654,-4.4626,-4.4709,-4.4793,-4.4803,-4.4858,-4.4968,-4.5005,-4.5005,-4.5005,-4.5032,-4.5059,-4.515,-4.5203,-4.5336,-4.5336,-4.5389,-4.5494,-4.5529,-4.5632,-4.576,-4.5988,-4.6186,-4.6719,-4.9018,-4.8968,-4.8545,-4.7682,-4.6633,-4.6278,-4.5831,-4.5351,-4.5318,-4.5277,-4.5307,-4.598,-4.6641,-4.7259,-4.7259,-4.7259,-4.7208,-4.6481,-4.6143,-4.6075,-4.5382,-4.5043,-4.4993,-4.4767,-4.4598,-4.4598,-4.4598,-4.4598,-4.457,-4.4468,-4.4384,-4.4298,-4.4298,-4.4298,-4.4298,-4.4315,-4.4315,-4.4298,-4.4298,-4.4096,-4.3721,-4.381,-4.3741,-4.3392,-4.2997,-4.2625,-4.2371,-4.2608,-4.2787,-4.2908,-4.3596,-4.3986,-4.4041,-4.451,-4.4765,-4.4748,-4.4748,-4.4737,-4.4682,-4.4626,-4.4598,-4.4598,-4.4598,-4.4429,-4.3927,-4.3561,-4.3403,-4.3234,-4.3234,-4.3386,-4.3809,-4.3893,-4.4062,-4.4479,-4.4598,-4.4598,-4.4598,-4.4598,-4.4598,-4.4598,-4.4598,-4.4598,-4.4598,-4.4598,-4.4598,-4.4598,-4.4598,-4.4598,-4.4598,-4.4598,-4.4598,-4.4598,-4.4598,-4.4598,-4.4682,-4.4682,-4.4709,-4.4748,-4.4748,-4.4748,-4.4776,-4.4831,-4.4886,-4.4886,-4.4978,-4.5059,-4.5096,-4.5113,-4.5167,-4.5203,-4.5257,-4.5415,-4.5503,-4.5684,-4.5988,-4.9018,-4.8849,-4.8003,-4.6887,-4.5703,-4.5409,-4.4918,-4.4344,-4.4253,-4.4167,-4.4089,-4.4591,-4.5228,-4.5892,-4.6216,-4.6364,-4.6279,-4.5604,-4.5284,-4.5274,-4.475,-4.4514,-4.4514,-4.4514,-4.4514,-4.4474,-4.4457,-4.4457,-4.4457,-4.431,-4.4196,-4.4126,-4.4097,-4.4097,-4.4097,-4.4097,-4.4097,-4.4114,-4.4039,-4.3671,-4.3048,-4.2886,-4.2795,-4.2658,-4.2179,-4.1791,-4.1589,-4.1774,-4.1919,-4.1963,-4.2655,-4.3061,-4.3132,-4.3656,-4.4056,-4.4293,-4.4468,-4.4598,-4.4598,-4.4384,-4.4265,-4.4259,-4.4096,-4.3724,-4.3217,-4.2902,-4.2574,-4.2117,-4.1796,-4.2033,-4.2963,-4.3098,-4.3453,-4.413,-4.4265,-4.4316,-4.4564,-4.4598,-4.4598,-4.4598,-4.4598,-4.4598,-4.4598,-4.4598,-4.4598,-4.4598,-4.4598,-4.4598,-4.4598,-4.4598,-4.4598,-4.4598,-4.4598,-4.4598,-4.4598,-4.4598,-4.4598,-4.4598,-4.4626,-4.4626,-4.4598,-4.4709,-4.4737,-4.4765,-4.4848,-4.4886,-4.4858,-4.4886,-4.494,-4.4968,-4.5032,-4.5113,-4.5194,-4.5336,-4.5477,-4.9018,-4.8765,-4.7445,-4.6413,-4.5624,-4.4754,-4.436,-4.4253,-4.4138,-4.3993,-4.3802,-4.3885,-4.3843,-4.3979,-4.495,-4.5282,-4.5211,-4.4645,-4.4452,-4.4562,-4.4444,-4.4344,-4.431,-4.431,-4.427,-4.4239,-4.4143,-4.4126,-4.4114,-4.4097,-4.4097,-4.4068,-4.4039,-4.4068,-4.4039,-4.4039,-4.4068,-4.401,-4.381,-4.3431,-4.2715,-4.192,-4.1311,-4.0946,-4.0876,-4.0541,-4.0038,-4.0507,-4.0913,-4.1055,-4.1762,-4.2203,-4.2354,-4.2405,-4.2794,-4.3453,-4.4147,-4.4564,-4.4462,-4.391,-4.3477,-4.3375,-4.2929,-4.2422,-4.2337,-4.1847,-4.1457,-4.1255,-4.0713,-4.0925,-4.2016,-4.2286,-4.2642,-4.3325,-4.3504,-4.3842,-4.4496,-4.4547,-4.4598,-4.4598,-4.4598,-4.4598,-4.4598,-4.4598,-4.4598,-4.4598,-4.4598,-4.4598,-4.4598,-4.4598,-4.4598,-4.4598,-4.4598,-4.4598,-4.4598,-4.4598,-4.4598,-4.4598,-4.4598,-4.4598,-4.4598,-4.4598,-4.4598,-4.4598,-4.4654,-4.4682,-4.4626,-4.4654,-4.4709,-4.4765,-4.4803,-4.4886,-4.4968,-4.4978,-4.5123,-4.8443,-4.7547,-4.687,-4.5929,-4.4788,-4.4342,-4.4051,-4.3864,-4.3789,-4.3611,-4.3452,-4.3833,-4.4017,-4.4019,-4.4869,-4.5138,-4.4923,-4.5147,-4.5354,-4.5397,-4.552,-4.558,-4.5529,-4.511,-4.4784,-4.4582,-4.4152,-4.3818,-4.3658,-4.3658,-4.3582,-4.3476,-4.3476,-4.3446,-4.3446,-4.3446,-4.3446,-4.3396,-4.2973,-4.2334,-4.1568,-4.0742,-3.9975,-3.9319,-3.9609,-3.9648,-3.9382,-3.9761,-3.9974,-4.0027,-4.0809,-4.1302,-4.1495,-4.2006,-4.2625,-4.3335,-4.3646,-4.3826,-4.3792,-4.3544,-4.3172,-4.2743,-4.2472,-4.2033,-4.166,-4.1339,-4.1018,-4.0587,-4.0299,-4.0451,-4.0764,-4.1288,-4.1897,-4.2591,-4.3088,-4.347,-4.3842,-4.4248,-4.4598,-4.4598,-4.4598,-4.4598,-4.4598,-4.4598,-4.4598,-4.4598,-4.4598,-4.4598,-4.4598,-4.4598,-4.4598,-4.4598,-4.4598,-4.4598,-4.4598,-4.4598,-4.4598,-4.4598,-4.4598,-4.4598,-4.4598,-4.4598,-4.4598,-4.4598,-4.4598,-4.4598,-4.4598,-4.4598,-4.4654,-4.4654,-4.4665,-4.4709,-4.4737,-4.4831,-4.4913,-4.8108,-4.6781,-4.6544,-4.5627,-4.4308,-4.401,-4.3805,-4.3631,-4.368,-4.3535,-4.3449,-4.4006,-4.4252,-4.4318,-4.4968,-4.5163,-4.4947,-4.5527,-4.5783,-4.5877,-4.597,-4.6048,-4.5965,-4.5532,-4.5205,-4.4967,-4.4291,-4.3693,-4.3267,-4.3221,-4.3129,-4.2974,-4.2943,-4.2943,-4.2943,-4.2943,-4.2943,-4.2813,-4.2227,-4.1452,-4.0648,-3.9875,-3.9075,-3.842,-3.8595,-3.8871,-3.9007,-3.9202,-3.9282,-3.9402,-3.9967,-4.0404,-4.0639,-4.1394,-4.2098,-4.2578,-4.2885,-4.3064,-4.2987,-4.2817,-4.2472,-4.1982,-4.1694,-4.1339,-4.0882,-4.0832,-4.0561,-4.0231,-4.0113,-4.0113,-4.0197,-4.0561,-4.1153,-4.183,-4.2405,-4.2912,-4.3341,-4.3876,-4.4282,-4.4547,-4.4598,-4.4598,-4.4598,-4.4598,-4.4598,-4.4598,-4.4598,-4.4598,-4.4598,-4.4598,-4.4598,-4.4598,-4.4598,-4.4598,-4.4598,-4.4598,-4.4598,-4.4598,-4.4598,-4.4598,-4.4598,-4.4598,-4.4598,-4.4598,-4.4598,-4.4598,-4.4598,-4.4598,-4.4598,-4.4598,-4.4598,-4.4654,-4.4654,-4.4682,-4.4776,-4.8031,-4.6582,-4.6514,-4.5555,-4.414,-4.3747,-4.3598,-4.363,-4.3804,-4.3781,-4.3783,-4.4299,-4.4473,-4.4433,-4.5126,-4.533,-4.5357,-4.5456,-4.5586,-4.5665,-4.5696,-4.5696,-4.5712,-4.5597,-4.5304,-4.5046,-4.4457,-4.3707,-4.2885,-4.2852,-4.2774,-4.2617,-4.2601,-4.2601,-4.2585,-4.2585,-4.2585,-4.2423,-4.1733,-4.0963,-4.0259,-3.9413,-3.8603,-3.7969,-3.7947,-3.816,-3.8567,-3.8722,-3.886,-3.8996,-3.9208,-3.9448,-3.9819,-4.0529,-4.1038,-4.1283,-4.1852,-4.2252,-4.2245,-4.1728,-4.1424,-4.1136,-4.0561,-4.0316,-4.0282,-4.0231,-4.018,-4.013,-4.0113,-4.0113,-4.0113,-4.018,-4.0468,-4.1068,-4.1373,-4.1982,-4.2912,-4.3375,-4.3707,-4.4344,-4.4547,-4.4598,-4.4598,-4.4598,-4.4598,-4.4598,-4.4598,-4.4598,-4.4598,-4.4598,-4.4598,-4.4598,-4.4598,-4.4598,-4.4598,-4.4598,-4.4598,-4.4598,-4.4598,-4.4598,-4.4598,-4.4598,-4.4598,-4.4598,-4.4598,-4.4598,-4.4598,-4.4598,-4.4598,-4.4598,-4.4598,-4.4598,-4.4626,-4.4654,-4.4682,-4.8031,-4.6565,-4.6411,-4.5347,-4.383,-4.3552,-4.3514,-4.3679,-4.3749,-4.388,-4.4117,-4.4755,-4.5026,-4.5117,-4.5693,-4.5962,-4.5981,-4.5982,-4.616,-4.6399,-4.6583,-4.66,-4.6518,-4.6126,-4.5245,-4.4123,-4.367,-4.3122,-4.2494,-4.2349,-4.2302,-4.2254,-4.227,-4.227,-4.2254,-4.2254,-4.2254,-4.2125,-4.1019,-4.0236,-3.9858,-3.8745,-3.7953,-3.7689,-3.7716,-3.7847,-3.7976,-3.8319,-3.8516,-3.8616,-3.8821,-3.9094,-3.9428,-3.9764,-4.029,-4.0927,-4.1216,-4.1463,-4.1525,-4.1322,-4.0933,-4.0553,-4.0231,-4.013,-4.0113,-4.0113,-4.0113,-4.0113,-4.0113,-4.0113,-4.0113,-4.0113,-4.0248,-4.0451,-4.0882,-4.1322,-4.1982,-4.2801,-4.3426,-4.3775,-4.4248,-4.4564,-4.4598,-4.4598,-4.4598,-4.4598,-4.4598,-4.4598,-4.4598,-4.4598,-4.4598,-4.4598,-4.4598,-4.4598,-4.4598,-4.4598,-4.4598,-4.4598,-4.4598,-4.4598,-4.4598,-4.4598,-4.4598,-4.4598,-4.4598,-4.4598,-4.4598,-4.4598,-4.4598,-4.4598,-4.4598,-4.4598,-4.4598,-4.4626,-4.4654,-4.8107,-4.6814,-4.6316,-4.5272,-4.3955,-4.3631,-4.3581,-4.3735,-4.4056,-4.4306,-4.4599,-4.5199,-4.5483,-4.5578,-4.5925,-4.6084,-4.61,-4.6116,-4.6278,-4.658,-4.6789,-4.6858,-4.6825,-4.6421,-4.5511,-4.4261,-4.3759,-4.318,-4.2428,-4.2156,-4.1996,-4.1916,-4.1916,-4.1916,-4.1916,-4.1916,-4.1916,-4.1724,-4.0546,-3.9798,-3.9452,-3.8342,-3.7599,-3.7524,-3.7583,-3.7612,-3.7658,-3.7963,-3.818,-3.8266,-3.8488,-3.8766,-3.904,-3.9288,-3.9727,-4.022,-4.0495,-4.0626,-4.0721,-4.0738,-4.0612,-4.0197,-4.0113,-4.0113,-4.0113,-4.0113,-4.0113,-4.0113,-4.0113,-4.0113,-4.0113,-4.0113,-4.0113,-4.0113,-4.0476,-4.0899,-4.1271,-4.2252,-4.3081,-4.342,-4.3842,-4.4215,-4.4513,-4.4598,-4.4598,-4.4598,-4.4598,-4.4598,-4.4598,-4.4598,-4.4598,-4.4598,-4.4598,-4.4598,-4.4598,-4.4598,-4.4598,-4.4598,-4.4598,-4.4598,-4.4598,-4.4598,-4.4598,-4.4598,-4.4598,-4.4598,-4.4598,-4.4598,-4.4598,-4.4598,-4.4598,-4.4598,-4.4598,-4.4598,-4.4626,-4.8238,-4.7283,-4.6269,-4.5274,-4.435,-4.3877,-4.3719,-4.3848,-4.4571,-4.4954,-4.517,-4.5536,-4.578,-4.5776,-4.5828,-4.5844,-4.5807,-4.5844,-4.5952,-4.6132,-4.6243,-4.6333,-4.6317,-4.6253,-4.5738,-4.5032,-4.4359,-4.3637,-4.2789,-4.2152,-4.1784,-4.1654,-4.1654,-4.1621,-4.1654,-4.1637,-4.1621,-4.148,-4.0246,-3.955,-3.9424,-3.8206,-3.751,-3.751,-3.751,-3.751,-3.7539,-3.7658,-3.7788,-3.7918,-3.8221,-3.8432,-3.8639,-3.9029,-3.9251,-3.9541,-3.9785,-4.0092,-4.0086,-4.045,-4.0375,-4.0256,-4.0223,-4.0087,-4.0037,-4.0062,-4.0062,-4.0045,-4.0087,-4.0113,-4.0113,-4.0113,-4.0113,-4.0113,-4.0197,-4.0476,-4.1052,-4.1762,-4.2455,-4.3088,-4.3375,-4.3707,-4.4479,-4.4598,-4.4598,-4.4598,-4.4598,-4.4598,-4.4598,-4.4598,-4.4598,-4.4598,-4.4598,-4.4598,-4.4598,-4.4598,-4.4598,-4.4598,-4.4598,-4.4598,-4.4598,-4.4598,-4.4598,-4.4598,-4.4598,-4.4598,-4.4598,-4.4598,-4.4598,-4.4598,-4.4598,-4.4598,-4.4598,-4.4598,-4.4598,-4.8113,-4.6969,-4.6159,-4.5055,-4.3975,-4.3751,-4.3814,-4.3994,-4.4687,-4.5262,-4.5547,-4.5728,-4.5787,-4.5823,-4.5787,-4.5807,-4.5771,-4.5807,-4.5823,-4.588,-4.5916,-4.6024,-4.6096,-4.6008,-4.5572,-4.4874,-4.4275,-4.3461,-4.273,-4.2099,-4.1686,-4.1588,-4.1588,-4.1588,-4.1588,-4.1588,-4.1588,-4.1399,-4.0214,-3.9518,-3.9329,-3.8237,-3.7526,-3.751,-3.751,-3.751,-3.751,-3.7539,-3.7671,-3.7876,-3.7963,-3.8164,-3.8403,-3.8588,-3.9062,-3.9803,-4.0099,-4.0571,-4.1151,-4.1332,-4.1141,-4.0671,-4.0656,-4.0395,-3.984,-3.9884,-3.9935,-3.9961,-4.0037,-4.0113,-4.0113,-4.0113,-4.0113,-4.0113,-4.0113,-4.0197,-4.0502,-4.1035,-4.1779,-4.2455,-4.3064,-4.3741,-4.4316,-4.4598,-4.4598,-4.4598,-4.4598,-4.4598,-4.4598,-4.4598,-4.4598,-4.4598,-4.4598,-4.4598,-4.4598,-4.4598,-4.4598,-4.4598,-4.4598,-4.4598,-4.4598,-4.4598,-4.4598,-4.4598,-4.4598,-4.4598,-4.4598,-4.4598,-4.4598,-4.4598,-4.4598,-4.4598,-4.4598,-4.4598,-4.4598,-4.786,-4.6793,-4.5779,-4.4738,-4.3783,-4.3814,-4.3885,-4.419,-4.4941,-4.5432,-4.5651,-4.5662,-4.5625,-4.5552,-4.5552,-4.5552,-4.5552,-4.5625,-4.5662,-4.5698,-4.5771,-4.588,-4.5916,-4.5828,-4.557,-4.5159,-4.4464,-4.3785,-4.3121,-4.2394,-4.1936,-4.1636,-4.1588,-4.1588,-4.1588,-4.1588,-4.1588,-4.1399,-4.0514,-3.9961,-3.9866,-3.8618,-3.8017,-3.7844,-3.7686,-3.751,-3.751,-3.751,-3.7599,-3.77,-3.7788,-3.7905,-3.8078,-3.8307,-3.8885,-3.9844,-4.015,-4.0713,-4.1483,-4.1821,-4.172,-4.1352,-4.1268,-4.0883,-4.0373,-4.0251,-4.0244,-3.9934,-3.9994,-4.0037,-4.0087,-4.0113,-4.0113,-4.0113,-4.0113,-4.0113,-4.0113,-4.0781,-4.1491,-4.2219,-4.2963,-4.3724,-4.4479,-4.4581,-4.4598,-4.4598,-4.4598,-4.4598,-4.4598,-4.4598,-4.4598,-4.4598,-4.4598,-4.4598,-4.4598,-4.4598,-4.4598,-4.4598,-4.4598,-4.4598,-4.4598,-4.4598,-4.4598,-4.4598,-4.4598,-4.4598,-4.4598,-4.4598,-4.4598,-4.4598,-4.4598,-4.4598,-4.4598,-4.4598,-4.4598,-4.7538,-4.6681,-4.5342,-4.4318,-4.3703,-4.382,-4.3854,-4.4167,-4.5037,-4.5504,-4.5536,-4.5478,-4.5405,-4.522,-4.5294,-4.522,-4.522,-4.5405,-4.5478,-4.5515,-4.5589,-4.5714,-4.5698,-4.5787,-4.5776,-4.5586,-4.5049,-4.4401,-4.3722,-4.3058,-4.2347,-4.1889,-4.1699,-4.1588,-4.1588,-4.1588,-4.1588,-4.1478,-4.0877,-4.0482,-4.0277,-3.9281,-3.8649,-3.8523,-3.8002,-3.7652,-3.7557,-3.751,-3.7539,-3.751,-3.7628,-3.77,-3.7759,-3.8135,-3.8816,-3.9515,-4.016,-4.0727,-4.1529,-4.2031,-4.1988,-4.1861,-4.1838,-4.1577,-4.0965,-4.0765,-4.0672,-4.0282,-4.0127,-4.0332,-4.029,-4.0265,-4.0316,-4.0383,-4.035,-4.0367,-4.0434,-4.0849,-4.1508,-4.2303,-4.3047,-4.3707,-4.4282,-4.4598,-4.4598,-4.4598,-4.4598,-4.4598,-4.4598,-4.4598,-4.4598,-4.4598,-4.4598,-4.4598,-4.4598,-4.4598,-4.4598,-4.4598,-4.4598,-4.4598,-4.4598,-4.4598,-4.4598,-4.4598,-4.4598,-4.4598,-4.4598,-4.4598,-4.4598,-4.4598,-4.4598,-4.4598,-4.4598,-4.4598,-4.4598,-4.7276,-4.6042,-4.5145,-4.412,-4.3179,-4.3108,-4.3389,-4.3822,-4.4433,-4.5065,-4.5384,-4.5346,-4.5204,-4.5182,-4.5129,-4.522,-4.5129,-4.522,-4.5257,-4.5294,-4.5294,-4.5331,-4.5405,-4.5625,-4.5771,-4.5597,-4.5065,-4.4638,-4.4243,-4.3358,-4.2631,-4.241,-4.1825,-4.1588,-4.1588,-4.1588,-4.1588,-4.1478,-4.0956,-4.0656,-4.0498,-3.9803,-3.9235,-3.9187,-3.8587,-3.8033,-3.7605,-3.751,-3.751,-3.751,-3.7603,-3.7741,-3.7732,-3.7865,-3.8659,-3.9809,-4.0358,-4.1131,-4.237,-4.267,-4.2585,-4.2104,-4.2034,-4.1683,-4.1087,-4.1165,-4.1211,-4.1156,-4.1385,-4.1264,-4.1026,-4.0967,-4.0967,-4.1052,-4.1373,-4.1754,-4.1771,-4.1457,-4.1914,-4.2767,-4.3291,-4.3696,-4.4479,-4.4581,-4.4598,-4.4598,-4.4598,-4.4598,-4.4598,-4.4598,-4.4598,-4.4598,-4.4598,-4.4598,-4.4598,-4.4598,-4.4598,-4.4598,-4.4598,-4.4598,-4.4598,-4.4598,-4.4598,-4.4598,-4.4598,-4.4598,-4.4598,-4.4598,-4.4598,-4.4598,-4.4598,-4.4598,-4.4598,-4.4598,-4.4598,-4.6864,-4.5338,-4.48,-4.3745,-4.2615,-4.2689,-4.3092,-4.3602,-4.4153,-4.4643,-4.4983,-4.4927,-4.483,-4.4641,-4.4641,-4.4678,-4.483,-4.498,-4.5129,-4.5167,-4.522,-4.522,-4.522,-4.5405,-4.5552,-4.5599,-4.5408,-4.5061,-4.4512,-4.3737,-4.3011,-4.2631,-4.2001,-4.162,-4.1555,-4.1522,-4.1456,-4.1392,-4.1058,-4.0836,-4.0711,-4.013,-3.9581,-3.944,-3.9046,-3.8683,-3.8507,-3.8444,-3.8474,-3.8459,-3.8427,-3.8141,-3.7773,-3.7989,-3.8884,-3.9897,-4.0734,-4.1421,-4.2528,-4.2943,-4.2855,-4.2526,-4.2523,-4.21,-4.1704,-4.1605,-4.1535,-4.148,-4.1555,-4.167,-4.163,-4.1685,-4.1711,-4.1779,-4.2049,-4.2422,-4.2658,-4.2472,-4.2429,-4.3291,-4.3741,-4.4096,-4.4462,-4.4564,-4.4598,-4.4598,-4.4598,-4.4598,-4.4598,-4.4598,-4.4598,-4.4598,-4.4598,-4.4598,-4.4598,-4.4598,-4.4598,-4.4598,-4.4598,-4.4598,-4.4598,-4.4598,-4.4598,-4.4598,-4.4598,-4.4598,-4.4598,-4.4598,-4.4598,-4.4598,-4.4598,-4.4598,-4.4598,-4.4598,-4.4598,-4.6352,-4.4688,-4.4388,-4.3338,-4.2072,-4.2319,-4.2784,-4.327,-4.3941,-4.4211,-4.4447,-4.451,-4.4396,-4.4104,-4.4065,-4.4143,-4.432,-4.4549,-4.4776,-4.4867,-4.4942,-4.4942,-4.498,-4.5092,-4.5241,-4.5442,-4.5546,-4.534,-4.4855,-4.4161,-4.3564,-4.2868,-4.2157,-4.1745,-4.1586,-4.139,-4.129,-4.1256,-4.114,-4.1042,-4.101,-4.048,-4.0014,-3.9531,-3.9422,-3.9345,-3.9282,-3.9266,-3.9392,-3.9487,-3.9487,-3.8886,-3.8332,-3.8391,-3.9195,-3.9911,-4.0749,-4.1529,-4.2298,-4.2665,-4.2774,-4.2943,-4.2896,-4.2635,-4.2146,-4.2013,-4.1966,-4.1778,-4.1794,-4.1955,-4.2202,-4.2392,-4.2455,-4.2523,-4.254,-4.2946,-4.3403,-4.3606,-4.3606,-4.369,-4.4062,-4.4429,-4.453,-4.4598,-4.4598,-4.4598,-4.4598,-4.4598,-4.4598,-4.4598,-4.4598,-4.4598,-4.4598,-4.4598,-4.4598,-4.4598,-4.4598,-4.4598,-4.4598,-4.4598,-4.4598,-4.4598,-4.4598,-4.4598,-4.4598,-4.4598,-4.4598,-4.4598,-4.4598,-4.4598,-4.4598,-4.4598,-4.4598,-4.4598,-4.4598,-4.5965,-4.4388,-4.4136,-4.3121,-4.1781,-4.178,-4.212,-4.2576,-4.3142,-4.3495,-4.3809,-4.4174,-4.4205,-4.4026,-4.3988,-4.4026,-4.4065,-4.422,-4.4258,-4.4335,-4.4412,-4.4473,-4.4549,-4.4776,-4.4964,-4.5077,-4.5352,-4.5463,-4.5372,-4.4891,-4.4066,-4.35,-4.2755,-4.2153,-4.1549,-4.129,-4.1205,-4.1086,-4.1034,-4.1016,-4.0919,-4.0813,-4.0489,-3.9932,-3.9869,-3.9765,-3.9502,-3.9377,-3.9377,-3.9487,-3.9487,-3.9408,-3.9266,-3.9344,-3.9834,-4.0388,-4.0833,-4.1422,-4.2062,-4.2254,-4.2238,-4.227,-4.2317,-4.2285,-4.2172,-4.2281,-4.2351,-4.2419,-4.2409,-4.2605,-4.2992,-4.3141,-4.3206,-4.3352,-4.369,-4.4107,-4.4248,-4.4282,-4.4265,-4.4248,-4.4479,-4.4598,-4.4598,-4.4598,-4.4598,-4.4598,-4.4598,-4.4598,-4.4598,-4.4598,-4.4598,-4.4598,-4.4598,-4.4598,-4.4598,-4.4598,-4.4598,-4.4598,-4.4598,-4.4598,-4.4598,-4.4598,-4.4598,-4.4598,-4.4598,-4.4598,-4.4598,-4.4598,-4.4598,-4.4598,-4.4598,-4.4598,-4.4598,-4.4598,-4.4598,-4.588,-4.4319,-4.4068,-4.3071,-4.1731,-4.1474,-4.1765,-4.225,-4.2656,-4.2977,-4.3356,-4.3769,-4.3856,-4.3699,-4.3621,-4.3699,-4.3832,-4.3988,-4.4003,-4.4026,-4.4104,-4.4143,-4.4166,-4.4473,-4.4625,-4.4814,-4.5039,-4.5352,-4.5546,-4.5013,-4.4382,-4.3671,-4.2924,-4.2113,-4.1447,-4.1138,-4.0969,-4.0814,-4.0727,-4.0658,-4.0589,-4.0624,-4.048,-4.0377,-4.0339,-4.0333,-4.0294,-4.0218,-4.0266,-4.0349,-4.0399,-4.0416,-4.0417,-4.0513,-4.0578,-4.0737,-4.1007,-4.1388,-4.1868,-4.2012,-4.2045,-4.2109,-4.2077,-4.2077,-4.2142,-4.2333,-4.2555,-4.28,-4.31,-4.3286,-4.3618,-4.3755,-4.3883,-4.4035,-4.4367,-4.4519,-4.4598,-4.4598,-4.4598,-4.4598,-4.4598,-4.4598,-4.4598,-4.4598,-4.4598,-4.4598,-4.4598,-4.4598,-4.4598,-4.4598,-4.4598,-4.4598,-4.4598,-4.4598,-4.4598,-4.4598,-4.4598,-4.4598,-4.4598,-4.4598,-4.4598,-4.4598,-4.4598,-4.4598,-4.4598,-4.4598,-4.4598,-4.4598,-4.4598,-4.4598,-4.4598,-4.4598,-4.4598,-4.4598,-4.4598,-4.5778,-4.4203,-4.3999,-4.302,-4.1633,-4.1374,-4.1453,-4.1821,-4.214,-4.2438,-4.2781,-4.3225,-4.3446,-4.3339,-4.3344,-4.3423,-4.3636,-4.3793,-4.3832,-4.3832,-4.391,-4.3949,-4.3988,-4.4127,-4.432,-4.4473,-4.4761,-4.5024,-4.5311,-4.5049,-4.4445,-4.378,-4.2953,-4.2147,-4.1528,-4.101,-4.0724,-4.047,-4.0296,-4.0137,-4.0066,-4.0172,-4.0312,-4.042,-4.0627,-4.0734,-4.0863,-4.0847,-4.0896,-4.0979,-4.1111,-4.1194,-4.1292,-4.144,-4.1303,-4.1004,-4.1336,-4.164,-4.1768,-4.1817,-4.1882,-4.1916,-4.198,-4.198,-4.2045,-4.2206,-4.2492,-4.2959,-4.3339,-4.3575,-4.3818,-4.4105,-4.4276,-4.4401,-4.4446,-4.4542,-4.457,-4.4598,-4.4598,-4.4598,-4.4598,-4.4598,-4.4598,-4.4598,-4.4598,-4.4598,-4.4598,-4.4598,-4.4598,-4.4598,-4.4598,-4.4598,-4.4598,-4.4598,-4.4598,-4.4598,-4.4598,-4.4598,-4.4598,-4.4598,-4.4598,-4.4598,-4.4598,-4.4598,-4.4598,-4.4598,-4.4598,-4.4598,-4.4598,-4.4598,-4.4598,-4.4598,-4.4598,-4.4598,-4.4598,-4.5448,-4.4034,-4.3809,-4.2816,-4.1466,-4.129,-4.1052,-4.0824,-4.1397,-4.1687,-4.198,-4.256,-4.3046,-4.3225,-4.3305,-4.3344,-4.3384,-4.3423,-4.3463,-4.3503,-4.3621,-4.3714,-4.3769,-4.3949,-4.4026,-4.4181,-4.4458,-4.4852,-4.5061,-4.5064,-4.4731,-4.4028,-4.3321,-4.258,-4.1643,-4.0982,-4.047,-4.0312,-4.0137,-3.9996,-3.9996,-3.9996,-4.0137,-4.0226,-4.0366,-4.0505,-4.0746,-4.078,-4.0848,-4.1034,-4.1083,-4.1187,-4.129,-4.1323,-4.144,-4.1444,-4.1557,-4.1606,-4.1654,-4.167,-4.167,-4.172,-4.1687,-4.1671,-4.1818,-4.2013,-4.2333,-4.2634,-4.3099,-4.3479,-4.37,-4.3952,-4.4155,-4.4281,-4.4367,-4.444,-4.4542,-4.4598,-4.4598,-4.4598,-4.4598,-4.4598,-4.4598,-4.4598,-4.4598,-4.4598,-4.4598,-4.4598,-4.4598,-4.4598,-4.4598,-4.4598,-4.4598,-4.4598,-4.4598,-4.4598,-4.4598,-4.4598,-4.4598,-4.4598,-4.4598,-4.4598,-4.4598,-4.4598,-4.4598,-4.4598,-4.4598,-4.4598,-4.4598,-4.4598,-4.4598,-4.4598,-4.4598,-4.4598,-4.4598,-4.5324,-4.3965,-4.3655,-4.2664,-4.1353,-4.1104,-4.0833,-4.0678,-4.1031,-4.1398,-4.1746,-4.2279,-4.2809,-4.324,-4.3305,-4.3305,-4.3305,-4.3305,-4.3305,-4.3305,-4.3423,-4.3463,-4.3518,-4.3714,-4.3832,-4.391,-4.4104,-4.4281,-4.4603,-4.4918,-4.4808,-4.4112,-4.3568,-4.2741,-4.1791,-4.1066,-4.0507,-4.0082,-3.9783,-3.9676,-3.9676,-3.9783,-3.9874,-3.998,-4.0101,-4.0226,-4.0347,-4.0347,-4.0436,-4.0624,-4.0727,-4.0898,-4.112,-4.1272,-4.139,-4.1555,-4.1588,-4.1588,-4.1588,-4.1588,-4.1588,-4.1588,-4.1588,-4.1654,-4.1768,-4.1948,-4.2238,-4.2571,-4.2914,-4.3221,-4.3492,-4.3717,-4.3952,-4.4109,-4.4224,-4.4338,-4.444,-4.4542,-4.4598,-4.4598,-4.4598,-4.4598,-4.4598,-4.4598,-4.4598,-4.4598,-4.4598,-4.4598,-4.4598,-4.4598,-4.4598,-4.4598,-4.4598,-4.4598,-4.4598,-4.4598,-4.4598,-4.4598,-4.4598,-4.4598,-4.4598,-4.4598,-4.4598,-4.4598,-4.4598,-4.4598,-4.4598,-4.4598,-4.4598,-4.4598,-4.4598,-4.4598,-4.4598,-4.4598,-4.4598,-4.5059,-4.3828,-4.3535,-4.256,-4.1221,-4.0867,-4.0608,-4.0427,-4.0553,-4.0921,-4.1475,-4.2098,-4.277,-4.3185,-4.3305,-4.3305,-4.3305,-4.3305,-4.3305,-4.3305,-4.3305,-4.3305,-4.3384,-4.3518,-4.3596,-4.3611,-4.3832,-4.3949,-4.4143,-4.4442,-4.4514,-4.4062,-4.355,-4.2901,-4.2025,-4.1182,-4.0474,-3.9706,-3.9517,-3.9445,-3.946,-3.9553,-3.9661,-3.9732,-3.9839,-3.9925,-4.0011,-4.0011,-4.0117,-4.0312,-4.0436,-4.0643,-4.095,-4.1153,-4.1305,-4.1456,-4.1555,-4.1588,-4.1588,-4.1588,-4.1588,-4.1588,-4.1588,-4.1654,-4.1768,-4.1996,-4.2174,-4.2445,-4.2775,-4.3084,-4.3328,-4.3479,-4.3687,-4.3923,-4.4126,-4.4196,-4.431,-4.4468,-4.4598,-4.4598,-4.4598,-4.4598,-4.4598,-4.4598,-4.4598,-4.4598,-4.4598,-4.4598,-4.4598,-4.4598,-4.4598,-4.4598,-4.4598,-4.4598,-4.4598,-4.4598,-4.4598,-4.4598,-4.4598,-4.4598,-4.4598,-4.4598,-4.4598,-4.4598,-4.4598,-4.4598,-4.4598,-4.4598,-4.4598,-4.4598,-4.4598,-4.4598,-4.4598,-4.4598,-4.4598,-4.4424,-4.3431,-4.338,-4.2492,-4.1068,-4.0677,-4.0331,-4.0031,-3.9899,-4.0166,-4.086,-4.1841,-4.2806,-4.3155,-4.3305,-4.3305,-4.3305,-4.3305,-4.3305,-4.3305,-4.3305,-4.3305,-4.3344,-4.3344,-4.3369,-4.3423,-4.3596,-4.3714,-4.3754,-4.3949,-4.4058,-4.3928,-4.3495,-4.3122,-4.2363,-4.1336,-4.0444,-3.9706,-3.9469,-3.9388,-3.9388,-3.946,-3.9517,-3.9661,-3.9732,-3.9818,-3.9975,-3.994,-4.0046,-4.0242,-4.0312,-4.0505,-4.0814,-4.1034,-4.1221,-4.1357,-4.1522,-4.1588,-4.1588,-4.1588,-4.1588,-4.1588,-4.1588,-4.1637,-4.167,-4.1964,-4.2109,-4.2206,-4.2571,-4.2868,-4.3054,-4.3221,-4.3462,-4.3717,-4.3952,-4.4155,-4.4298,-4.4468,-4.457,-4.4598,-4.4598,-4.4598,-4.4598,-4.4598,-4.4598,-4.4598,-4.4598,-4.4598,-4.4598,-4.4598,-4.4598,-4.4598,-4.4598,-4.4598,-4.4598,-4.4598,-4.4598,-4.4598,-4.4598,-4.4598,-4.4598,-4.4598,-4.4598,-4.4598,-4.4598,-4.4598,-4.4598,-4.4598,-4.4598,-4.4598,-4.4598,-4.4598,-4.4598,-4.4598,-4.4598,-4.4271,-4.3364,-4.2836,-4.1875,-4.0712,-4.0486,-4.0156,-3.9854,-3.9732,-4.022,-4.1085,-4.2327,-4.309,-4.3245,-4.3305,-4.3305,-4.3305,-4.3305,-4.3305,-4.3305,-4.3305,-4.3305,-4.3305,-4.3305,-4.3305,-4.3344,-4.3423,-4.3463,-4.3463,-4.3581,-4.3581,-4.35,-4.3421,-4.3143,-4.2485,-4.1483,-4.0522,-4.0029,-3.9634,-3.9403,-3.9388,-3.9388,-3.946,-3.9481,-3.9517,-3.9517,-3.9604,-3.964,-3.9818,-4.0031,-4.0101,-4.0401,-4.0765,-4.1,-4.1169,-4.129,-4.1489,-4.1588,-4.1588,-4.1588,-4.1588,-4.1588,-4.1588,-4.1588,-4.1588,-4.1834,-4.1996,-4.2174,-4.2397,-4.2681,-4.293,-4.3099,-4.3312,-4.3539,-4.3776,-4.4068,-4.4241,-4.4457,-4.457,-4.4598,-4.4598,-4.4598,-4.4598,-4.4598,-4.4598,-4.4598,-4.4598,-4.4598,-4.4598,-4.4598,-4.4598,-4.4598,-4.4598,-4.4598,-4.4598,-4.4598,-4.4598,-4.4598,-4.4598,-4.4598,-4.4598,-4.4598,-4.4598,-4.4598,-4.4598,-4.4598,-4.4598,-4.4598,-4.4598,-4.4598,-4.4598,-4.4598,-4.4598,-4.4598,-4.4598,-4.3866,-4.2965,-4.2138,-4.1283,-4.052,-4.0296,-4.0031,-3.9762,-3.9851,-4.0589,-4.1767,-4.2671,-4.3125,-4.323,-4.3305,-4.3305,-4.3305,-4.3305,-4.3305,-4.3305,-4.3305,-4.3305,-4.3305,-4.3305,-4.3305,-4.3305,-4.3305,-4.3344,-4.3344,-4.3305,-4.3344,-4.3423,-4.3433,-4.3211,-4.2775,-4.1715,-4.0816,-4.0337,-4.0023,-3.9559,-3.9463,-3.9388,-3.9388,-3.9424,-3.9424,-3.9424,-3.946,-3.9496,-3.9676,-3.9905,-4.0081,-4.0296,-4.0677,-4.0984,-4.1153,-4.1305,-4.144,-4.1588,-4.1588,-4.1588,-4.1588,-4.1588,-4.1588,-4.1588,-4.1637,-4.1784,-4.1947,-4.2029,-4.2254,-4.2508,-4.2759,-4.2976,-4.3143,-4.3355,-4.3835,-4.4126,-4.4212,-4.44,-4.4514,-4.4598,-4.4598,-4.4598,-4.4598,-4.4598,-4.4598,-4.4598,-4.4598,-4.4598,-4.4598,-4.4598,-4.4598,-4.4598,-4.4598,-4.4598,-4.4598,-4.4598,-4.4598,-4.4598,-4.4598,-4.4598,-4.4598,-4.4598,-4.4598,-4.4598,-4.4598,-4.4598,-4.4598,-4.4598,-4.4598,-4.4598,-4.4598,-4.4598,-4.4598,-4.4598,-4.4598,-4.312,-4.2088,-4.1445,-4.0895,-4.0516,-4.0137,-3.9889,-3.9751,-4.0222,-4.1108,-4.2216,-4.2545,-4.2851,-4.32,-4.3305,-4.3305,-4.3305,-4.3305,-4.3305,-4.3305,-4.3305,-4.3305,-4.3305,-4.3305,-4.3305,-4.3305,-4.3305,-4.3305,-4.3305,-4.3305,-4.3305,-4.3305,-4.3329,-4.3339,-4.3185,-4.2626,-4.1692,-4.0621,-4.0472,-3.9978,-3.9664,-3.9463,-3.9388,-3.9388,-3.9388,-3.9388,-3.9388,-3.9388,-3.9604,-3.994,-4.0011,-4.0277,-4.073,-4.0984,-4.1153,-4.129,-4.1474,-4.1588,-4.1588,-4.1588,-4.1588,-4.1588,-4.1588,-4.1588,-4.1637,-4.1752,-4.1898,-4.1947,-4.2158,-4.2349,-4.2602,-4.2836,-4.3021,-4.3325,-4.3818,-4.4155,-4.4241,-4.44,-4.4542,-4.4598,-4.4598,-4.4598,-4.4598,-4.4598,-4.4598,-4.4598,-4.4598,-4.4598,-4.4598,-4.4598,-4.4598,-4.4598,-4.4598,-4.4598,-4.4598,-4.4598,-4.4598,-4.4598,-4.4598,-4.4598,-4.4598,-4.4598,-4.4598,-4.4598,-4.4598,-4.4598,-4.4598,-4.4598,-4.4598,-4.4598,-4.4598,-4.4598,-4.4598,-4.4598,-4.4598,-4.2576,-4.2037,-4.1093,-4.0731,-4.072,-4.0249,-3.9818,-3.9712,-4.0598,-4.1549,-4.2366,-4.2776,-4.309,-4.326,-4.3305,-4.3305,-4.3305,-4.3305,-4.3305,-4.3305,-4.3305,-4.3305,-4.3305,-4.3305,-4.3305,-4.3305,-4.3305,-4.3305,-4.3305,-4.3305,-4.3305,-4.3305,-4.3305,-4.3305,-4.3125,-4.2731,-4.2066,-4.1632,-4.098,-4.0277,-4.0038,-3.9642,-3.9418,-3.9403,-3.9388,-3.9388,-3.9388,-3.9424,-3.9604,-3.994,-4.0011,-4.0296,-4.073,-4.0984,-4.1153,-4.1323,-4.1489,-4.1588,-4.1588,-4.1588,-4.1588,-4.1588,-4.1588,-4.1588,-4.1621,-4.167,-4.1752,-4.1898,-4.2093,-4.2254,-4.2445,-4.2836,-4.3113,-4.3372,-4.3776,-4.4097,-4.427,-4.444,-4.4598,-4.4598,-4.4598,-4.4598,-4.4598,-4.4598,-4.4598,-4.4598,-4.4598,-4.4598,-4.4598,-4.4598,-4.4598,-4.4598,-4.4598,-4.4598,-4.4598,-4.4598,-4.4598,-4.4598,-4.4598,-4.4598,-4.4598,-4.4598,-4.4598,-4.4598,-4.4598,-4.4598,-4.4598,-4.4598,-4.4598,-4.4598,-4.4598,-4.4598,-4.4598,-4.4598,-4.4598,-4.2163,-4.1691,-4.111,-4.0893,-4.0891,-4.0455,-4.0269,-4.0554,-4.1407,-4.2126,-4.2701,-4.3125,-4.329,-4.329,-4.3305,-4.3305,-4.3305,-4.3305,-4.3305,-4.3305,-4.3305,-4.3305,-4.3305,-4.3305,-4.3305,-4.3305,-4.3305,-4.3305,-4.3305,-4.3305,-4.3305,-4.3305,-4.3305,-4.3305,-4.317,-4.2925,-4.262,-4.2216,-4.1542,-4.0905,-4.0457,-4.0008,-3.9679,-3.9478,-3.9388,-3.9388,-3.9424,-3.9481,-3.9625,-3.9925,-4.0172,-4.0401,-4.078,-4.1052,-4.1254,-4.1406,-4.1489,-4.1588,-4.1588,-4.1588,-4.1588,-4.1588,-4.1588,-4.1588,-4.1588,-4.1621,-4.167,-4.1801,-4.198,-4.2142,-4.2381,-4.2789,-4.3174,-4.3432,-4.3776,-4.4097,-4.4327,-4.4497,-4.4598,-4.4598,-4.4598,-4.4598,-4.4598,-4.4598,-4.4598,-4.4598,-4.4598,-4.4598,-4.4598,-4.4598,-4.4598,-4.4598,-4.4598,-4.4598,-4.4598,-4.4598,-4.4598,-4.4598,-4.4598,-4.4598,-4.4598,-4.4598,-4.4598,-4.4598,-4.4598,-4.4598,-4.4598,-4.4598,-4.4598,-4.4598,-4.4598,-4.4598,-4.4598,-4.4598,-4.4598,-4.1847,-4.119,-4.1368,-4.127,-4.1028,-4.0945,-4.1423,-4.2306,-4.2351,-4.2671,-4.3275,-4.326,-4.3305,-4.3305,-4.3305,-4.3305,-4.3305,-4.3305,-4.3305,-4.3305,-4.3305,-4.3305,-4.3305,-4.3305,-4.3305,-4.3305,-4.3305,-4.3305,-4.3305,-4.3305,-4.3305,-4.3305,-4.3305,-4.3305,-4.326,-4.3155,-4.294,-4.2566,-4.2216,-4.1587,-4.098,-4.0427,-4.0038,-3.9753,-3.9514,-3.9403,-3.9445,-3.9538,-3.9768,-4.0016,-4.0312,-4.0693,-4.0984,-4.1205,-4.139,-4.1522,-4.1588,-4.1588,-4.1588,-4.1588,-4.1588,-4.1588,-4.1588,-4.1588,-4.1588,-4.1588,-4.167,-4.1753,-4.1948,-4.2045,-4.2238,-4.2726,-4.3204,-4.3522,-4.3864,-4.4126,-4.4327,-4.4468,-4.457,-4.4598,-4.4598,-4.4598,-4.4598,-4.4598,-4.4598,-4.4598,-4.4598,-4.4598,-4.4598,-4.4598,-4.4598,-4.4598,-4.4598,-4.4598,-4.4598,-4.4598,-4.4598,-4.4598,-4.4598,-4.4598,-4.4598,-4.4598,-4.4598,-4.4598,-4.4598,-4.4598,-4.4598,-4.4598,-4.4598,-4.4598,-4.4598,-4.4598,-4.4598,-4.4598,-4.4598,-4.1323,-4.1127,-4.1152,-4.1349,-4.1698,-4.2303,-4.2515,-4.241,-4.2396,-4.2746,-4.3305,-4.3305,-4.3305,-4.3305,-4.3305,-4.3305,-4.3305,-4.3305,-4.3305,-4.3305,-4.3305,-4.3305,-4.3305,-4.3305,-4.3305,-4.3305,-4.3305,-4.3305,-4.3305,-4.3305,-4.3305,-4.3305,-4.3305,-4.3305,-4.3305,-4.3305,-4.314,-4.297,-4.2641,-4.2186,-4.1534,-4.095,-4.0516,-4.0142,-3.9679,-3.9538,-3.9535,-3.964,-3.9818,-4.0031,-4.0331,-4.0677,-4.1083,-4.1254,-4.139,-4.1555,-4.1588,-4.1588,-4.1588,-4.1588,-4.1588,-4.1588,-4.1588,-4.1588,-4.1588,-4.1588,-4.167,-4.1801,-4.1948,-4.2109,-4.2365,-4.2805,-4.3265,-4.3625,-4.3935,-4.4155,-4.4355,-4.4497,-4.4598,-4.4598,-4.4598,-4.4598,-4.4598,-4.4598,-4.4598,-4.4598,-4.4598,-4.4598,-4.4598,-4.4598,-4.4598,-4.4598,-4.4598,-4.4598,-4.4598,-4.4598,-4.4598,-4.4598,-4.4598,-4.4598,-4.4598,-4.4598,-4.4598,-4.4598,-4.4598,-4.4598,-4.4598,-4.4598,-4.4598,-4.4598,-4.4598,-4.4598,-4.4598,-4.4598,-4.4598,-4.1273,-4.1467,-4.1362,-4.1782,-4.2484,-4.3064,-4.309,-4.2791,-4.2746,-4.3,-4.3275,-4.3305,-4.3305,-4.3305,-4.3305,-4.3305,-4.3305,-4.3305,-4.3305,-4.3305,-4.3305,-4.3305,-4.3305,-4.3305,-4.3305,-4.3305,-4.3305,-4.3305,-4.3305,-4.3305,-4.3305,-4.3305,-4.3305,-4.3305,-4.3305,-4.3305,-4.3305,-4.3155,-4.297,-4.268,-4.2156,-4.1579,-4.1205,-4.0681,-4.0142,-3.9873,-3.976,-3.9887,-3.9905,-4.0101,-4.0401,-4.083,-4.1151,-4.1288,-4.1456,-4.1588,-4.1588,-4.1588,-4.1588,-4.1588,-4.1588,-4.1588,-4.1588,-4.1588,-4.1588,-4.1588,-4.1719,-4.1866,-4.2029,-4.2206,-4.2555,-4.2898,-4.3309,-4.3726,-4.3977,-4.4212,-4.4384,-4.4542,-4.4598,-4.4598,-4.4598,-4.4598,-4.4598,-4.4598,-4.4598,-4.4598,-4.4598,-4.4598,-4.4598,-4.4598,-4.4598,-4.4598,-4.4598,-4.4598,-4.4598,-4.4598,-4.4598,-4.4598,-4.4598,-4.4598,-4.4598,-4.4598,-4.4598,-4.4598,-4.4598,-4.4598,-4.4598,-4.4598,-4.4598,-4.4598,-4.4598,-4.4598,-4.4598,-4.4598,-4.4598,-4.1457,-4.2027,-4.2004,-4.2447,-4.324,-4.329,-4.329,-4.3305,-4.3245,-4.329,-4.3305,-4.3305,-4.3305,-4.3305,-4.3305,-4.3305,-4.3305,-4.3305,-4.3305,-4.3305,-4.3305,-4.3305,-4.3305,-4.3305,-4.3305,-4.3305,-4.3305,-4.3305,-4.3305,-4.3305,-4.3305,-4.3305,-4.3305,-4.3305,-4.3305,-4.3305,-4.3305,-4.326,-4.317,-4.3,-4.265,-4.2351,-4.2111,-4.1497,-4.0891,-4.0427,-4.0342,-4.023,-4.0056,-4.0272,-4.0605,-4.1049,-4.1254,-4.1406,-4.1555,-4.1588,-4.1588,-4.1588,-4.1588,-4.1588,-4.1588,-4.1588,-4.1588,-4.1588,-4.1588,-4.1588,-4.1719,-4.1915,-4.2077,-4.2365,-4.2711,-4.2959,-4.3309,-4.3713,-4.4023,-4.4286,-4.4485,-4.4598,-4.4598,-4.4598,-4.4598,-4.4598,-4.4598,-4.4598,-4.4598,-4.4598,-4.4598,-4.4598,-4.4598,-4.4598,-4.4598,-4.4598,-4.4598,-4.4598,-4.4598,-4.4598,-4.4598,-4.4598,-4.4598,-4.4598,-4.4598,-4.4598,-4.4598,-4.4598,-4.4598,-4.4598,-4.4598,-4.4598,-4.4598,-4.4598,-4.4598,-4.4598,-4.4598,-4.4598,-4.4598,-4.1389,-4.1914,-4.2286,-4.2775,-4.3245,-4.3305,-4.3305,-4.3305,-4.3305,-4.3305,-4.3305,-4.3305,-4.3305,-4.3305,-4.3305,-4.3305,-4.3305,-4.3305,-4.3305,-4.3305,-4.3305,-4.3305,-4.3305,-4.3305,-4.3305,-4.3305,-4.3305,-4.3305,-4.3305,-4.3305,-4.3305,-4.3305,-4.3305,-4.3305,-4.3305,-4.3305,-4.3305,-4.3305,-4.3275,-4.323,-4.3045,-4.262,-4.2231,-4.1961,-4.1587,-4.1048,-4.091,-4.0777,-4.0507,-4.0449,-4.0842,-4.1169,-4.1472,-4.1587,-4.1604,-4.1604,-4.1667,-4.1667,-4.1588,-4.1588,-4.1588,-4.1588,-4.1588,-4.1588,-4.1588,-4.1588,-4.1687,-4.1916,-4.2174,-4.2492,-4.2805,-4.3052,-4.3295,-4.37,-4.4068,-4.4315,-4.4559,-4.457,-4.457,-4.4598,-4.4598,-4.4598,-4.4598,-4.4598,-4.4598,-4.4598,-4.4598,-4.4598,-4.4598,-4.4598,-4.4598,-4.4598,-4.4598,-4.4598,-4.4598,-4.4598,-4.4598,-4.4598,-4.4598,-4.4598,-4.4598,-4.4598,-4.4598,-4.4598,-4.4598,-4.4598,-4.4598,-4.4598,-4.4598,-4.4598,-4.4598,-4.4598,-4.4598,-4.4598,-4.4598,-4.1336,-4.1749,-4.2372,-4.2887,-4.3269,-4.3305,-4.3305,-4.3305,-4.3305,-4.3305,-4.3305,-4.3305,-4.3305,-4.3305,-4.3305,-4.3305,-4.3305,-4.3305,-4.3305,-4.3305,-4.3305,-4.3305,-4.3305,-4.3305,-4.3305,-4.3305,-4.3305,-4.3305,-4.3305,-4.3305,-4.3305,-4.3305,-4.3305,-4.3305,-4.3305,-4.3305,-4.3305,-4.3305,-4.3305,-4.3305,-4.3305,-4.2985,-4.2776,-4.2611,-4.2201,-4.1761,-4.1656,-4.1555,-4.1365,-4.1377,-4.1821,-4.2238,-4.2527,-4.2629,-4.241,-4.2205,-4.2078,-4.192,-4.1715,-4.1588,-4.1588,-4.1588,-4.1588,-4.1588,-4.1588,-4.1621,-4.1753,-4.1948,-4.2045,-4.2333,-4.282,-4.3127,-4.3402,-4.3776,-4.3969,-4.4143,-4.4327,-4.4423,-4.4497,-4.4598,-4.4598,-4.4598,-4.4598,-4.4598,-4.4598,-4.4598,-4.4598,-4.4598,-4.4598,-4.4598,-4.4598,-4.4598,-4.4598,-4.4598,-4.4598,-4.4598,-4.4598,-4.4598,-4.4598,-4.4598,-4.4598,-4.4598,-4.4598,-4.4598,-4.4598,-4.4598,-4.4598,-4.4598,-4.4598,-4.4598,-4.4598,-4.4598,-4.4598,-4.4598,-4.4598,-4.1279,-4.1674,-4.2357,-4.2902,-4.3284,-4.3305,-4.3305,-4.3305,-4.3305,-4.3305,-4.3305,-4.3305,-4.3305,-4.3305,-4.3305,-4.3305,-4.3305,-4.3305,-4.3305,-4.3305,-4.3305,-4.3305,-4.3305,-4.3305,-4.3305,-4.3305,-4.3305,-4.3305,-4.3305,-4.3305,-4.3305,-4.3305,-4.3305,-4.3305,-4.3305,-4.3305,-4.3305,-4.3305,-4.3305,-4.3305,-4.3305,-4.3305,-4.323,-4.3075,-4.2836,-4.2608,-4.2515,-4.2417,-4.2262,-4.2333,-4.2576,-4.297,-4.3249,-4.3324,-4.3011,-4.2726,-4.2505,-4.2173,-4.1778,-4.1588,-4.1588,-4.1588,-4.1588,-4.1588,-4.1588,-4.1654,-4.1785,-4.1948,-4.2045,-4.2317,-4.282,-4.3157,-4.3462,-4.3763,-4.3881,-4.3998,-4.4155,-4.4293,-4.4423,-4.4542,-4.457,-4.457,-4.4598,-4.4598,-4.4598,-4.4598,-4.4598,-4.4598,-4.4598,-4.4598,-4.4598,-4.4598,-4.4598,-4.4598,-4.4598,-4.4598,-4.4598,-4.4598,-4.4598,-4.4598,-4.4598,-4.4598,-4.4598,-4.4598,-4.4598,-4.4598,-4.4598,-4.4598,-4.4598,-4.4598,-4.4598,-4.4598,-4.4598,-4.4598,-4.4598,-4.1403,-4.1869,-4.2311,-4.2755,-4.323,-4.329,-4.3305,-4.3305,-4.3305,-4.3305,-4.3305,-4.3305,-4.3305,-4.3305,-4.3305,-4.3305,-4.3305,-4.3305,-4.3305,-4.3305,-4.3305,-4.3305,-4.3305,-4.3305,-4.3305,-4.3305,-4.3305,-4.3305,-4.3305,-4.3305,-4.3305,-4.3305,-4.3305,-4.3305,-4.3305,-4.3305,-4.3305,-4.3305,-4.3305,-4.3305,-4.3305,-4.3305,-4.3305,-4.3215,-4.3185,-4.2923,-4.2747,-4.2766,-4.2582,-4.2573,-4.2917,-4.3356,-4.3666,-4.3873,-4.3561,-4.3169,-4.2947,-4.241,-4.2031,-4.1683,-4.162,-4.1588,-4.1588,-4.1588,-4.1588,-4.1588,-4.1785,-4.2013,-4.2174,-4.2429,-4.2836,-4.3021,-4.3281,-4.3658,-4.391,-4.3998,-4.4126,-4.4224,-4.4338,-4.444,-4.4525,-4.4553,-4.4598,-4.4598,-4.4598,-4.4598,-4.4598,-4.4598,-4.4598,-4.4598,-4.4598,-4.4598,-4.4598,-4.4598,-4.4598,-4.4598,-4.4598,-4.4598,-4.4598,-4.4598,-4.4598,-4.4598,-4.4598,-4.4598,-4.4598,-4.4598,-4.4598,-4.4598,-4.4598,-4.4598,-4.4598,-4.4598,-4.4598,-4.4598,-4.4598]},{"header":{"parameterUnit":"m.s-1","parameterCategory":1,"la1":31.0,"la2":29.5877,"lo1":-88.7671,"lo2":-86.6584,"dy":0.0162,"dx":0.0185,"nx":115,"ny":88,"refTime":"2024-04-27T18:00:00:Z","depth":0,"parameterNumber":3,"parameterNumberName":"V-component_of_WINDS"},"data":[0.0,0.0,0.0,0.0,0.0,0.0,0.0,0.0,0.0,0.0,0.0,0.0,0.0,0.0,0.0,0.0,0.0,0.0,0.0,0.0,0.0,0.0,0.0,0.0,0.0,0.0,0.0,0.0,0.0,0.0,0.0,0.0,0.0,0.0,0.0,0.0,0.0,0.0,0.0,0.0,0.0,0.0,0.0,0.0,0.0,0.0,0.0,0.0,0.0,0.0,0.0,0.0,0.0,0.0,0.0,0.0,0.0,0.0,0.0,0.0,0.0,0.0,0.0,0.0,0.0,0.0,0.0,0.0,0.0,0.0,0.0,0.0,0.0,0.0,0.0,0.0,0.0,0.0,0.0,0.0,0.0,0.0,0.0,0.0,0.0,0.0,0.0,0.0,0.0,0.0,0.0,0.0,0.0,0.0,0.0,0.0,0.0,0.0,0.0,0.0,0.0,0.0,0.0,0.0,0.0,0.0,0.0,0.0,0.0,0.0,0.0,0.0,0.0,0.0,0.0,0.0,0.0,0.0,0.0,0.0,0.0,0.0,0.0,0.0,0.0,0.0,0.0,0.0,0.0,0.0,0.0,0.0,0.0,0.0,0.0,0.0,0.0,0.0,0.0,0.0,0.0,0.0,0.0,0.0,0.0,0.0,0.0,0.0,0.0,0.0,0.0,0.0,0.0,0.0,0.0,0.0,0.0,0.0,0.0,0.0,0.0,0.0,0.0,0.0,0.0,0.0,0.0,0.0,0.0,0.0,0.0,0.0,0.0,0.0,0.0,0.0,0.0,0.0,0.0,0.0,0.0,0.0,0.0,0.0,0.0,0.0,0.0,0.0,0.0,0.0,0.0,0.0,0.0,0.0,0.0,0.0,0.0,0.0,0.0,0.0,0.0,0.0,0.0,0.0,0.0,0.0,0.0,0.0,0.0,0.0,0.0,0.0,0.0,0.0,0.0,0.0,0.0,0.0,0.0,0.0,0.0,0.0,0.0,0.0,0.0,0.0,0.0,0.0,0.0,0.0,0.0,0.0,0.0,0.0,0.0,0.0,0.0,0.0,0.0,0.0,0.0,0.0,0.0,0.0,0.0,0.0,0.0,0.0,0.0,0.0,0.0,0.0,0.0,0.0,0.0,0.0,0.0,0.0,0.0,0.0,0.0,0.0,0.0,0.0,0.0,0.0,0.0,0.0,0.0,0.0,0.0,0.0,0.0,0.0,0.0,0.0,0.0,0.0,0.0,0.0,0.0,0.0,0.0,0.0,0.0,0.0,0.0,0.0,0.0,0.0,0.0,0.0,0.0,0.0,0.0,0.0,0.0,0.0,0.0,0.0,0.0,0.0,0.0,0.0,0.0,0.0,0.0,0.0,0.0,0.0,0.0,0.0,0.0,0.0,0.0,0.0,0.0,0.0,0.0,0.0,0.0,0.0,0.0,0.0,0.0,0.0,0.0,0.0,0.0,0.0,0.0,0.0,0.0,0.0,0.0,0.0,0.0,0.0,0.0,0.0,0.0,0.0,0.0,0.0,0.0,0.0,0.0,0.0,0.0,0.0,0.0,0.0,0.0,0.0,0.0,0.0,0.0,0.0,0.0,0.0,0.0,0.0,0.0,0.0,0.0,0.0,0.0,0.0,0.0,0.0,0.0,0.0,0.0,0.0,0.0,0.0,0.0,0.0,0.0,0.0,0.0,0.0,0.0,0.0,0.0,0.0,0.0,0.0,0.0,0.0,0.0,0.0,0.0,0.0,0.0,0.0,0.0,0.0,0.0,0.0,0.0,0.0,0.0,0.0,0.0,0.0,0.0,0.0,0.0,0.0,0.0,0.0,0.0,0.0,0.0,0.0,0.0,0.0,0.0,0.0,0.0,0.0,0.0,0.0,0.0,0.0,0.0,0.0,0.0,0.0,0.0,0.0,0.0,0.0,0.0,0.0,0.0,0.0,0.0,0.0,0.0,0.0,0.0,0.0,0.0,0.0,0.0,0.0,0.0,0.0,0.0,0.0,0.0,0.0,0.0,0.0,0.0,0.0,0.0,0.0,0.0,0.0,0.0,0.0,0.0,0.0,0.0,0.0,0.0,0.0,0.0,0.0,0.0,0.0,0.0,0.0,0.0,0.0,0.0,0.0,0.0,0.0,0.0,0.0,0.0,0.0,0.0,0.0,0.0,0.0,0.0,0.0,0.0,0.0,0.0,0.0,0.0,0.0,0.0,0.0,0.0,0.0,0.0,0.0,0.0,0.0,0.0,0.0,0.0,0.0,0.0,0.0,0.0,0.0,0.0,0.0,0.0,0.0,0.0,0.0,0.0,0.0,0.0,0.0,0.0,0.0,0.0,0.0,0.0,0.0,0.0,0.0,0.0,0.0,0.0,0.0,0.0,0.0,0.0,0.0,0.0,0.0,0.0,0.0,0.0,0.0,0.0,0.0,0.0,0.0,0.0,0.0,0.0,0.0,0.0,0.0,0.0,0.0,0.0,0.0,0.0,0.0,0.0,0.0,0.0,0.0,0.0,0.0,0.0,0.0,0.0,0.0,0.0,0.0,0.0,0.0,0.0,0.0,0.0,0.0,0.0,0.0,0.0,0.0,0.0,0.0,0.0,0.0,0.0,0.0,0.0,0.0,0.0,0.0,0.0,0.0,0.0,0.0,0.0,0.0,0.0,0.0,0.0,0.0,0.0,0.0,0.0,0.0,0.0,0.0,0.0,0.0,0.0,0.0,0.0,0.0,0.0,0.0,0.0,0.0,0.0,0.0,0.0,0.0,0.0,0.0,0.0,0.0,0.0,0.0,0.0,0.0,0.0,0.0,0.0,0.0,0.0,0.0,0.0,0.0,0.0,0.0,0.0,0.0,0.0,0.0,0.0,0.0,0.0,0.0,0.0,0.0,0.0,0.0,0.0,0.0,0.0,0.0,0.0,0.0,0.0,0.0,0.0,0.0,0.0,0.0,0.0,0.0,0.0,0.0,0.0,0.0,0.0,0.0,0.0,0.0,0.0,0.0,0.0,0.0,0.0,0.0,0.0,0.0,0.0,0.0,0.0,0.0,0.0,0.0,0.0,0.0,0.0,0.0,0.0,0.0,0.0,0.0,0.0,0.0,0.0,0.0,0.0,0.0,0.0,0.0,0.0,0.0,0.0,0.0,0.0,0.0,0.0,0.0,0.0,0.0,0.0,0.0,0.0,0.0,0.0,0.0,0.0,0.0,0.0,0.0,0.0,0.0,0.0,0.0,0.0,0.0,0.0,0.0,0.0,0.0,0.0,0.0,0.0,0.0,0.0,0.0,0.0,0.0,0.0,0.0,0.0,0.0,0.0,0.0,0.0,0.0,0.0,0.0,0.0,0.0,0.0,0.0,0.0,0.0,0.0,0.0,0.0,0.0,0.0,0.0,0.0,0.0,0.0,0.0,0.0,0.0,0.0,0.0,0.0,0.0,0.0,0.0,0.0,0.0,0.0,0.0,0.0,0.0,0.0,0.0,0.0,0.0,0.0,0.0,0.0,0.0,0.0,0.0,0.0,0.0,0.0,0.0,0.0,0.0,0.0,0.0,0.0,0.0,0.0,0.0,0.0,0.0,0.0,0.0,0.0,0.0,0.0,0.0,0.0,0.0,0.0,0.0,0.0,0.0,0.0,0.0,0.0,0.0,0.0,0.0,0.0,0.0,0.0,0.0,0.0,0.0,0.0,0.0,0.0,0.0,0.0,0.0,0.0,0.0,0.0,0.0,0.0,0.0,0.0,0.0,0.0,0.0,0.0,0.0,0.0,0.0,0.0,0.0,0.0,0.0,0.0,0.0,0.0,0.0,0.0,0.0,0.0,0.0,0.0,0.0,0.0,0.0,0.0,0.0,0.0,0.0,0.0,0.0,0.0,0.0,0.0,0.0,0.0,0.0,0.0,0.0,0.0,0.0,0.0,0.0,0.0,0.0,0.0,0.0,0.0,0.0,0.0,0.0,0.0,0.0,0.0,0.0,0.0,0.0,0.0,0.0,0.0,0.0,0.0,0.0,0.0,0.0,0.0,0.0,0.0,0.0,0.0,0.0,0.0,0.0,0.0,0.0,0.0,0.0,0.0,0.0,0.0,0.0,0.0,0.0,0.0,0.0,0.0,0.0,0.0,0.0,0.0,0.0,0.0,0.0,0.0,0.0,0.0,0.0,0.0,0.0,0.0,0.0,0.0,0.0,0.0,0.0,0.0,0.0,0.0,0.0,0.0,0.0,0.0,0.0,0.0,0.0,0.0,0.0,0.0,0.0,0.0,0.0,0.0,0.0,-0.5416,0.0,0.0,0.0,0.0,0.0,0.0,0.0,0.0,0.0,0.0,0.0,0.0,0.0,0.0,0.0,0.0,0.0,0.0,0.0,0.0,0.0,0.0,0.0,0.0,0.0,0.0,0.0,0.0,0.0,0.0,0.0,0.0,0.0,0.0,0.0,0.0,0.0,0.0,0.0,0.0,0.0,0.0,0.0,0.0,0.0,0.0,0.0,0.0,0.0,0.0,0.0,0.0,0.0,0.0,0.0,0.0,0.0,0.0,0.0,0.0,0.0,0.0,0.0,0.0,0.0,0.0,0.0,0.0,0.0,0.0,0.0,0.0,0.0,0.0,0.0,0.0,0.0,0.0,0.0,0.0,0.0,0.0,0.0,0.0,0.0,0.0,0.0,0.0,0.0,0.0,0.0,0.0,0.0,0.0,0.0,0.0,0.0,0.0,0.0,0.0,0.0,0.0,0.0,0.0,0.0,0.0,0.0,0.0,0.0,0.0,-0.3828,-0.4144,-0.4683,-0.5099,-0.5371,0.0,0.0,0.0,0.0,0.0,0.0,0.0,0.0,0.0,0.0,0.0,0.0,0.0,0.0,0.0,0.0,0.0,0.0,0.0,0.0,0.0,0.0,0.0,0.0,0.0,0.0,0.0,0.0,0.0,0.0,0.0,0.0,0.0,0.0,0.0,0.0,0.0,0.0,0.0,0.0,0.0,0.0,0.0,0.0,0.0,0.0,0.0,0.0,0.0,0.0,0.0,0.0,0.0,0.0,0.0,0.0,0.0,0.0,0.0,0.0,0.0,0.0,0.0,0.0,0.0,0.0,0.0,0.0,0.0,0.0,0.0,0.0,0.0,0.0,0.0,0.0,0.0,0.0,0.0,0.0,0.0,0.0,0.0,0.0,0.0,0.0,0.0,0.0,0.0,0.0,0.0,0.0,0.0,0.0,0.0,0.0,0.0,0.0,0.0,0.0,0.0,0.0,0.0,0.0,0.0,0.0,0.0,0.0,0.0,0.0,0.0,0.0,-0.4621,-0.5162,-0.5589,0.0,0.0,0.0,0.0,0.0,0.0,0.0,0.0,0.0,0.0,0.0,0.0,0.0,0.0,0.0,0.0,0.0,0.0,0.0,0.0,0.0,0.0,0.0,0.0,0.0,0.0,0.0,0.0,0.0,0.0,0.0,0.0,0.0,0.0,0.0,0.0,0.0,0.0,0.0,0.0,0.0,0.0,0.0,0.0,0.0,0.0,0.0,0.0,0.0,0.0,0.0,0.0,0.0,0.0,0.0,0.0,0.0,0.0,0.0,0.0,0.0,0.0,0.0,0.0,0.0,0.0,0.0,0.0,0.0,0.0,0.0,0.0,0.0,0.0,0.0,0.0,0.0,0.0,0.0,0.0,0.0,0.0,0.0,0.0,0.0,0.0,0.0,0.0,0.0,0.0,0.0,0.0,0.0,0.0,0.0,0.0,0.0,0.0,0.0,0.0,0.0,0.0,0.0,0.0,0.0,0.0,0.0,0.0,0.0,0.0,-0.3278,-0.3805,-0.4547,0.0,-0.6125,0.0,0.0,0.0,0.0,0.0,0.0,0.0,0.0,0.0,0.0,0.0,0.0,0.0,0.0,0.0,0.0,0.0,0.0,0.0,0.0,0.0,0.0,0.0,0.0,0.0,0.0,0.0,0.0,0.0,0.0,0.0,0.0,0.0,0.0,0.0,0.0,0.0,0.0,0.0,0.0,0.0,0.0,0.0,0.0,0.0,0.0,0.0,0.0,0.0,0.0,0.0,0.0,0.0,0.0,0.0,0.0,0.0,0.0,0.0,0.0,0.0,0.0,0.0,0.0,0.0,0.0,0.0,0.0,0.0,0.0,0.0,0.0,0.0,0.0,0.0,0.0,0.0,0.0,0.0,0.0,0.0,0.0,0.0,0.0,0.0,0.0,0.0,0.0,0.0,0.0,0.0,0.0,0.0,0.0,0.0,0.0,0.0,0.0,0.0,0.0,0.0,0.0,0.0,0.0,0.0,0.0,0.0,0.0,0.0,0.0,-0.3344,-0.3828,-0.4693,-0.5447,0.0,0.0,0.0,0.0,0.0,0.0,0.0,0.0,0.0,0.0,0.0,0.0,0.0,0.0,0.0,0.0,0.0,0.0,0.0,0.0,0.0,0.0,0.0,0.0,0.0,0.0,0.0,0.0,0.0,0.0,0.0,0.0,0.0,0.0,0.0,0.0,0.0,0.0,0.0,0.0,0.0,0.0,0.0,0.0,0.0,0.0,0.0,0.0,0.0,0.0,0.0,0.0,0.0,0.0,0.0,0.0,0.0,0.0,0.0,0.0,0.0,0.0,0.0,0.0,0.0,0.0,0.0,0.0,0.0,0.0,0.0,0.0,0.0,0.0,0.0,0.0,0.0,0.0,0.0,0.0,0.0,0.0,0.0,0.0,0.0,0.0,0.0,0.0,0.0,0.0,0.0,0.0,0.0,0.0,0.0,0.0,0.0,0.0,0.0,0.0,0.0,0.0,0.0,0.0,0.0,0.0,0.0,0.0,0.0,0.0,-0.2688,-0.3262,-0.4048,-0.4896,-0.5563,-0.5942,0.0,0.0,0.0,0.0,0.0,0.0,0.0,0.0,0.0,0.0,0.0,0.0,0.0,0.0,0.0,0.0,0.0,0.0,0.0,0.0,0.0,0.0,0.0,0.0,0.0,0.0,0.0,0.0,0.0,0.0,0.0,0.0,0.0,0.0,0.0,0.0,0.0,0.0,0.0,0.0,0.0,0.0,0.0,0.0,0.0,0.0,0.0,0.0,0.0,0.0,0.0,0.0,0.0,0.0,0.0,0.0,0.0,0.0,0.0,0.0,0.0,0.0,0.0,0.0,0.0,0.0,0.0,0.0,0.0,0.0,0.0,0.0,0.0,0.0,0.0,0.0,0.0,0.0,0.0,0.0,0.0,0.0,0.0,0.0,0.0,0.0,0.0,0.0,0.0,0.0,0.0,0.0,0.0,0.0,0.0,0.0,0.0,0.0,0.0,0.0,0.0,0.0,0.0,0.0,0.0,0.0,0.0,0.0,-0.2022,-0.232,-0.3073,-0.4329,-0.5091,-0.5628,0.0,0.0,0.0,0.0,0.0,0.0,0.0,0.0,0.0,0.0,0.0,0.0,0.0,0.0,0.0,0.0,0.0,0.0,0.0,0.0,0.0,0.0,0.0,0.0,0.0,0.0,0.0,0.0,0.0,0.0,0.0,0.0,0.0,0.0,0.0,0.0,0.0,0.0,0.0,0.0,0.0,0.0,0.0,0.0,0.0,0.0,0.0,0.0,0.0,0.0,0.0,0.0,0.0,0.0,0.0,0.0,0.0,0.0,0.0,0.0,0.0,0.0,0.0,0.0,0.0,0.0,0.0,0.0,0.0,0.0,0.0,0.0,0.0,0.0,0.0,0.0,0.0,0.0,0.0,0.0,0.0,0.0,0.0,0.0,0.0,0.0,0.0,0.0,0.0,0.0,0.0,0.0,0.0,0.0,0.0,0.0,0.0,0.0,0.0,0.0,0.0,0.0,0.0,0.0,0.0,0.0,0.0,0.0,0.0,-0.1718,-0.2474,-0.3279,-0.4133,-0.4706,-0.5284,0.0,0.0,0.0,0.0,0.0,0.0,0.0,0.0,0.0,0.0,0.0,0.0,0.0,0.0,0.0,0.0,0.0,0.0,0.0,0.0,0.0,0.0,0.0,0.0,0.0,0.0,0.0,0.0,0.0,0.0,0.0,0.0,0.0,0.0,0.0,0.0,0.0,0.0,0.0,0.0,0.0,0.0,0.0,0.0,0.0,0.0,0.0,0.0,0.0,0.0,0.0,0.0,0.0,0.0,0.0,0.0,0.0,0.0,0.0,0.0,0.0,0.0,0.0,0.0,0.0,0.0,0.0,0.0,0.0,0.0,0.0,0.0,0.0,0.0,0.0,0.0,0.0,0.0,0.0,0.0,0.0,0.0,0.0,0.0,0.0,0.0,0.0,0.0,0.0,0.0,0.0,0.0,0.0,0.0,0.0,0.0,0.0,0.0,0.0,0.0,0.0,0.0,0.0,0.0,0.0,0.0,0.0,0.0,0.0,-0.1783,0.0,-0.3339,-0.3797,-0.4487,-0.5031,0.0,0.0,0.0,0.0,0.0,0.0,0.0,0.0,0.0,0.0,0.0,0.0,0.0,0.0,0.0,0.0,0.0,0.0,0.0,0.0,0.0,0.0,0.0,0.0,0.0,0.0,0.0,0.0,0.0,0.0,0.0,0.0,0.0,0.0,0.0,0.0,0.0,0.0,0.0,0.0,0.0,0.0,0.0,0.0,0.0,0.0,0.0,0.0,0.0,0.0,0.0,0.0,0.0,0.0,0.0,0.0,0.0,0.0,0.0,0.0,0.0,0.0,0.0,0.0,0.0,0.0,0.0,0.0,0.0,0.0,0.0,0.0,0.0,0.0,0.0,0.0,0.0,0.0,0.0,0.0,0.0,0.0,0.0,0.0,0.0,0.0,0.0,0.0,0.0,0.0,0.0,0.0,0.0,0.0,0.0,0.0,0.0,0.0,0.0,0.0,0.0,0.0,0.0,0.0,0.0,0.0,0.0,0.0,-0.1225,-0.2075,-0.2692,-0.3087,-0.3405,-0.4342,-0.4973,0.0,0.0,0.0,0.0,0.0,0.0,0.0,0.0,0.0,0.0,0.0,0.0,0.0,0.0,0.0,0.0,0.0,0.0,0.0,0.0,0.0,0.0,0.0,0.0,0.0,0.0,0.0,0.0,0.0,0.0,0.0,0.0,0.0,0.0,0.0,0.0,0.0,0.0,0.0,0.0,0.0,0.0,0.0,0.0,0.0,0.0,0.0,0.0,0.0,0.0,0.0,0.0,0.0,0.0,0.0,0.0,0.0,0.0,0.0,0.0,0.0,0.0,0.0,0.0,0.0,0.0,0.0,0.0,0.0,0.0,0.0,0.0,0.0,0.0,0.0,0.0,0.0,0.0,0.0,0.0,0.0,0.0,0.0,0.0,0.0,0.0,0.0,0.0,0.0,0.0,0.0,0.0,0.0,0.0,0.0,0.0,0.0,0.0,0.0,0.0,0.0,0.0,0.0,0.0,0.0,0.0,0.0,0.0,0.0,-0.1776,-0.2001,-0.2548,-0.3359,-0.3719,-0.4251,0.0,0.0,0.0,0.0,0.0,0.0,0.0,0.0,0.0,0.0,0.0,0.0,0.0,0.0,0.0,0.0,0.0,0.0,0.0,0.0,0.0,0.0,0.0,0.0,0.0,0.0,0.0,0.0,0.0,0.0,0.0,0.0,0.0,0.0,0.0,0.0,0.0,0.0,0.0,0.0,0.0,0.0,0.0,0.0,0.0,0.0,0.0,0.0,0.0,0.0,0.0,0.0,0.0,0.0,0.0,0.0,0.0,0.0,0.0,0.0,0.0,0.0,0.0,0.0,0.0,0.0,0.0,0.0,0.0,0.0,0.0,0.0,0.0,0.0,0.0,0.0,0.0,0.0,0.0,0.0,0.0,0.0,0.0,0.0,0.0,0.0,0.0,0.0,0.0,0.0,0.0,0.0,0.0,0.0,0.0,0.0,0.0,0.0,0.0,0.0,0.0,0.0,0.0,0.0,0.0,0.0,0.0,0.0,0.0,-0.1249,-0.159,-0.2101,-0.2782,-0.3195,-0.3792,-0.4647,0.0,0.0,0.0,0.0,0.0,0.0,0.0,0.0,0.0,0.0,0.0,0.0,0.0,0.0,0.0,0.0,0.0,0.0,0.0,0.0,0.0,0.0,0.0,0.0,0.0,0.0,0.0,0.0,0.0,0.0,0.0,0.0,0.0,0.0,0.0,0.0,0.0,0.0,0.0,0.0,0.0,0.0,0.0,0.0,0.0,0.0,0.0,0.0,0.0,0.0,0.0,0.0,0.0,0.0,0.0,0.0,0.0,0.0,0.0,0.0,0.0,0.0,0.0,0.0,0.0,0.0,0.0,0.0,0.0,0.0,0.0,0.0,0.0,0.0,0.0,0.0,0.0,0.0,0.0,0.0,0.0,0.0,0.0,0.0,0.0,0.0,0.0,0.0,0.0,0.0,0.0,0.0,0.0,0.0,0.0,0.0,0.0,0.0,0.0,0.0,0.0,0.0,0.0,0.0,0.0,0.0,0.0,0.0,-0.0484,-0.1332,-0.1816,-0.1873,-0.2875,-0.3659,0.0,0.0,0.0,0.0,0.0,0.0,0.0,0.0,0.0,0.0,0.0,0.0,0.0,0.0,0.0,0.0,0.0,0.0,0.0,0.0,0.0,0.0,0.0,0.0,0.0,0.0,0.0,0.0,0.0,0.0,0.0,0.0,0.0,0.0,0.0,0.0,0.0,0.0,0.0,0.0,0.0,0.0,0.0,0.0,0.0,0.0,0.0,0.0,0.0,0.0,0.0,0.0,0.0,0.0,0.0,0.0,0.0,0.0,0.0,0.0,0.0,0.0,0.0,0.0,0.0,0.0,0.0,0.0,0.0,0.0,0.0,0.0,0.0,0.0,0.0,0.0,0.0,0.0,0.0,0.0,0.0,0.0,0.0,0.0,0.0,0.0,0.0,0.0,0.0,0.0,0.0,0.0,0.0,0.0,0.0,0.0,0.0,0.0,0.0,0.0,0.0,0.0,0.0,0.0,0.0,0.0,0.0,0.0,0.0,-0.0125,-0.0631,-0.1199,-0.1871,-0.2142,-0.2735,0.0,0.0,0.0,0.0,0.0,0.0,0.0,0.0,0.0,0.0,0.0,0.0,0.0,0.0,0.0,0.0,0.0,0.0,0.0,0.0,0.0,0.0,0.0,0.0,0.0,0.0,0.0,0.0,0.0,0.0,0.0,0.0,0.0,0.0,0.0,0.0,0.0,0.0,0.0,0.0,0.0,0.0,0.0,0.0,0.0,0.0,0.0,0.0,0.0,0.0,0.0,0.0,0.0,0.0,0.0,0.0,0.0,0.0,0.0,0.0,0.0,0.0,0.0,0.0,0.0,0.0,0.0,0.0,0.0,0.0,0.0,0.0,0.0,0.0,0.0,0.0,0.0,0.0,0.0,0.0,0.0,0.0,0.0,0.0,0.0,0.0,0.0,0.0,0.0,0.0,0.0,0.0,0.0,0.0,0.0,0.0,0.0,0.0,0.0,0.0,0.0,0.0,0.0,0.0,0.0,0.0,0.0,0.0,0.0,0.0,-0.0192,-0.0643,-0.1274,-0.1694,-0.2322,0.0,0.0,0.0,0.0,0.0,0.0,0.0,0.0,0.0,0.0,0.0,0.0,0.0,0.0,0.0,0.0,0.0,0.0,0.0,0.0,0.0,0.0,0.0,0.0,0.0,0.0,0.0,0.0,0.0,0.0,0.0,0.0,0.0,0.0,0.0,0.0,0.0,0.0,0.0,0.0,0.0,0.0,0.0,0.0,0.0,0.0,0.0,0.0,0.0,0.0,0.0,0.0,0.0,0.0,0.0,0.0,0.0,0.0,0.0,0.0,0.0,0.0,0.0,0.0,0.0,0.0,0.0,0.0,0.0,0.0,0.0,0.0,0.0,0.0,0.0,0.0,0.0,0.0,0.0,0.0,0.0,0.0,0.0,0.0,0.0,0.0,0.0,0.0,0.0,0.0,0.0,0.0,0.0,0.0,0.0,0.0,0.0,0.0,0.0,0.0,0.0,0.0,0.0,0.0,0.0,0.0,0.0,0.0,0.0,0.0,0.0,-0.0129,-0.0452,-0.1338,-0.2056,0.0,0.0,0.0,0.0,0.0,0.0,0.0,0.0,0.0,0.0,0.0,0.0,0.0,0.0,0.0,0.0,0.0,0.0,0.0,0.0,0.0,0.0,0.0,0.0,0.0,0.0,0.0,0.0,0.0,0.0,0.0,0.0,0.0,0.0,0.0,0.0,0.0,0.0,0.0,0.0,0.0,0.0,0.0,0.0,0.0,0.0,0.0,0.0,0.0,0.0,0.0,0.0,0.0,0.0,0.0,0.0,0.0,0.0,0.0,0.0,0.0,0.0,0.0,0.0,0.0,0.0,0.0,0.0,0.0,0.0,0.0,0.0,0.0,0.0,0.0,0.0,0.0,0.0,0.0,0.0,0.0,0.0,0.0,0.0,0.0,0.0,0.0,0.0,0.0,0.0,0.0,0.0,0.0,0.0,0.0,0.0,0.0,0.0,0.0,0.0,0.0,0.0,0.0,0.0,0.0,0.0,0.0,0.0,0.0241,0.0,0.0,-0.0064,-0.0129,-0.0836,-0.1448,0.0,0.0,0.0,0.0,0.0,0.0,0.0,0.0,0.0,0.0,0.0,0.0,0.0,0.0,0.0,0.0,0.0,0.0,0.0,0.0,0.0,0.0,0.0,0.0,0.0,0.0,0.0,0.0,0.0,0.0,0.0,0.0,0.0,0.0,0.0,0.0,0.0,0.0,0.0,0.0,0.0,0.0,0.0,0.0,0.0,0.0,0.0,0.0,0.1402,0.0,0.0,0.0,0.0,0.0,0.0,0.0,0.0,0.0,0.0,0.0,0.0,0.0,0.0,0.0,0.0,0.0,0.0,0.0,0.0,0.0,0.0,0.0,0.0,0.0,0.0,0.0,0.0,0.0,0.0,0.0,0.0,0.0,0.0,0.0,0.0,0.0,0.0,0.0,0.0,0.0,0.0,0.0,0.0,0.0,0.0,0.0,0.0,0.0,0.0,0.0,0.0,0.0,0.0,0.0,0.0,0.0,0.0,0.0,0.0661,0.025,0.0252,0.0126,0.0,-0.0509,-0.1067,0.0,0.0,0.0,0.0,0.0,0.0,0.0,0.0,0.0,0.0,0.0,0.0,0.0,0.0,0.0,0.0,0.0,0.0,0.0,0.0,0.0,0.0,0.0,0.0,0.0,0.0,0.0,0.0,0.0,0.0,0.0,0.0,0.0,0.0,0.0,0.0,0.0,0.0,0.0,0.0,0.0,0.0,0.0,0.0,0.0,0.0,0.0,0.0,0.0,0.0,0.0,0.0,0.0,0.0,0.0,0.0,0.0,0.0,0.0,0.0,0.0,0.0,0.0,0.0,0.0,0.0,0.0,0.0,0.0,0.0,0.0,0.0,0.0,0.0,0.0,0.0,0.0,0.0,0.0,0.0,0.0,0.0,0.0,0.0,0.0,0.0,0.0,0.0,0.0,0.0,0.0,0.0,0.0,0.0,0.0,0.0,0.0,0.0,0.0,0.0,0.0,0.0,0.0,0.0,0.0,0.0,0.0,0.1755,0.1316,0.074,0.0688,0.05,0.0124,-0.0187,-0.0619,-0.1143,0.0,0.0,0.0,0.0,0.0,0.0,0.0,0.0,0.0,0.0,0.0,0.0,0.0,0.0,0.0,0.0,0.0,0.0,0.0,0.0,0.0,0.0,0.0,0.0,0.0,0.0,0.0,0.0,0.0,0.0,0.0,0.0,0.0,0.0,0.0,0.0,0.0,0.0,0.545,0.6157,0.0,0.0,0.0,0.0,0.0,0.0,0.0,0.0,0.3357,0.0,0.0,0.0,0.0,0.0,0.0,0.0,0.0,0.0,0.0,0.0,0.0,0.0,0.0,0.0,0.0,0.0,0.0,0.0,0.0,0.0,0.0,0.0,0.0,0.0,0.0,0.0,0.0,0.0,0.0,0.0,0.0,0.0,0.0,0.0,0.0,0.0,0.0,0.0,0.0,0.0,0.0,0.0,0.0,0.0,0.0,0.0,0.0,0.0,0.0,0.0,0.0,0.0,0.0,0.0,0.0,0.3046,0.2763,0.2271,0.1787,0.1484,0.1051,0.0432,0.0367,0.006,-0.0532,0.0,0.0,0.0,0.0,0.0,0.0,0.0,0.0,0.0,0.0,0.0,0.0,0.0,0.0,0.0,0.0,0.0,0.0,0.0,0.0,0.0,0.0,0.0,0.0,0.0,0.0,0.0,0.0,0.0,0.0,0.0,0.0,0.0,0.0,0.0,0.0,0.0,0.0,0.0,0.7387,0.7425,0.0,0.0,0.0,0.0,0.0,0.0,0.0,0.0,0.4605,0.0,0.0,0.0,0.0,0.0,0.0,0.0,0.0,0.0,0.0,0.0,0.0,0.0,0.0,0.0,0.0,0.0,0.0,0.0,0.0,0.0,0.0,0.0,0.0,0.0,0.0,0.0,0.0,0.0,0.0,0.0,0.0,0.0,0.0,0.0,0.0,0.0,0.0,0.0,0.0,0.0,0.0,0.0,0.0,0.0,0.0,0.0,0.0,0.0,0.0,0.0,0.0,0.0,0.0,0.0,0.4222,0.4149,0.3733,0.3017,0.265,0.2219,0.1542,0.1156,0.0838,0.0,0.0,0.0,0.0,0.0,0.0,0.0,0.0,0.0,0.0,0.0,0.0,0.0,0.0,0.0,0.0,0.0,0.0,0.0,0.0,0.0,0.0,0.0,0.0,0.0,0.0,0.0,0.0,0.0,0.0,0.0,0.0,0.0,0.0,0.0,0.0,0.0,0.0,0.0,0.0,0.8822,0.9023,0.8887,0.0,0.0,0.0,0.0,0.0,0.0,0.6923,0.6417,0.0,0.0,0.0,0.0,0.0,0.0,0.0,0.0,0.0,0.0,0.0,0.0,0.0,0.0,0.0,0.0,0.0,0.0,0.0,0.0,0.0,0.0,0.0,0.0,0.0,0.0,0.0,0.0,0.0,0.0,0.0,0.0,0.0,0.0,0.0,0.0,0.0,0.0,0.0,0.0,0.0,0.0,0.0,0.0,0.0,0.0,0.0,0.0,0.0,0.0,0.0,0.0,0.0,0.0,0.0,0.5572,0.5669,0.5275,0.4432,0.4064,0.3511,0.2774,0.2248,0.1796,0.0,0.0,0.0,0.0,0.0,0.0,0.0,0.0,0.0,0.0,0.0,0.0,0.0,0.0,0.0,0.0,0.0,0.0,0.0,0.0,0.0,0.0,0.0,0.0,0.0,0.0,0.0,0.0,0.0,0.0,0.0,0.0,0.0,0.0,0.0,0.0,0.0,0.0,0.0,0.0,0.0,1.0361,1.0299,1.0069,0.0,0.0,0.0,0.0,0.9218,0.8678,0.0,0.0,0.0,0.0,0.0,0.0,0.0,0.0,0.0,0.0,0.0,0.0,0.0,0.0,0.0,0.0,0.0,0.0,0.0,0.0,0.0,0.0,0.0,0.0,0.0,0.0,0.0,0.0,0.0,0.0,0.0,0.0,0.0,0.0,0.0,0.0,0.0,0.0,0.0,0.0,0.0,0.0,0.0,0.0,0.0,0.0,0.0,0.0,0.0,0.0,0.0,0.0,0.0,0.0,0.0,0.0,0.7214,0.7099,0.6726,0.6151,0.5784,0.4986,0.382,0.3642,0.3229,0.0,0.0,0.0,0.0,0.0,0.0,0.0,0.0,0.0,0.0,0.0,0.0,0.0,0.0,0.0,0.0,0.0,0.0,0.0,0.0,0.0,0.0,0.0,0.0,0.0,0.0,0.0,0.0,0.0,0.0,0.0,0.0,0.0,0.0,0.0,0.0,0.0,0.0,0.0,0.0,0.0,1.0674,1.1228,1.1086,1.0902,0.0,0.0,1.0464,1.0231,0.9994,0.0,0.0,0.0,0.0,0.0,0.0,0.0,0.0,0.0,0.0,0.0,0.0,0.0,0.0,0.0,0.0,0.0,0.0,0.0,0.0,0.0,0.0,0.0,0.0,0.0,0.0,0.0,0.0,0.0,0.0,0.0,0.0,0.0,0.0,0.0,0.0,0.0,0.0,0.0,0.0,0.0,0.0,0.0,0.0,0.0,0.0,0.0,0.0,0.0,0.0,0.0,0.0,0.0,0.0,0.0,0.7929,0.825,0.8265,0.808,0.7757,0.7444,0.6876,0.6122,0.5492,0.4843,0.0,0.0,0.0,0.0,0.0,0.0,0.0,0.0,0.0,0.0,0.0,0.0,0.0,0.0,0.0,0.0,0.0,0.0,0.0,0.0,0.0,0.0,0.0,0.0,0.0,0.0,0.0,0.0,0.0,0.0,0.0,0.0,0.0,0.0,0.0,0.0,0.0,0.0,0.0,0.0,0.0,0.0,1.2213,1.1857,0.0,0.0,0.0,1.147,1.1539,0.0,0.0,0.0,0.0,0.0,0.0,0.0,0.0,0.0,0.0,0.0,0.0,0.0,0.0,0.0,0.0,0.0,0.0,0.0,0.0,0.0,0.0,0.0,0.0,0.0,0.0,0.0,0.0,0.0,0.0,0.0,0.0,0.0,0.0,0.0,0.0,0.0,0.0,0.0,0.0,0.0,0.0,0.0,0.0,0.0,0.0,0.0,0.0,0.0,0.0,0.0,0.0,0.0,0.0,0.0,0.0,0.0,0.939,0.964,0.9595,0.9185,0.8927,0.8544,0.8031,0.7211,0.0,0.0,0.0,0.0,0.0,0.0,0.0,0.0,0.0,0.0,0.0,0.0,0.0,0.0,0.0,0.0,0.0,0.0,0.0,0.0,0.0,0.0,0.0,0.0,0.0,0.0,0.0,0.5894,0.0,0.0,0.0,0.0,0.0,0.0,0.0,0.0,0.0,0.0,0.0,0.0,0.0,0.0,1.258,1.3133,1.264,1.2347,0.0,0.0,1.2192,1.2498,1.2119,1.1704,0.0,0.0,0.0,0.0,0.0,0.0,0.0,0.0,0.0,0.0,0.0,0.0,0.0,0.0,0.0,0.0,0.0,0.0,0.0,0.0,0.0,0.0,0.0,0.0,0.0,0.0,0.0,0.0,0.0,0.0,0.0,0.0,0.0,0.0,0.0,0.0,0.0,0.0,0.0,0.0,0.0,0.0,0.0,0.0,0.0,0.0,0.0,0.0,0.0,0.0,0.0,0.0,0.0,0.0,1.0692,1.0664,1.1351,1.1206,1.0266,1.0199,0.9694,0.8742,0.8546,0.7919,0.0,0.0,0.0,0.0,0.0,0.0,0.0,0.0,0.0,0.0,0.0,0.0,0.0,0.0,0.0,0.0,0.0,0.0,0.0,0.0,0.0,0.0,0.0,0.0,0.0,0.0,0.0,0.0,0.0,0.0,0.0,0.0,0.0,0.0,0.0,0.0,0.0,0.0,0.0,0.0,0.0,1.3367,1.3875,1.3403,1.3046,0.0,1.2733,1.2424,1.2501,1.226,1.1921,1.1528,0.0,0.0,0.0,0.0,0.0,0.0,0.0,0.0,0.0,0.0,0.0,0.0,0.0,0.0,0.0,0.0,0.0,0.0,0.0,0.0,0.0,0.0,0.0,0.0,0.0,0.0,0.0,0.0,0.0,0.0,0.0,0.0,0.0,0.0,0.0,0.0,0.0,0.0,0.0,0.0,0.0,0.0,0.0,0.0,0.0,0.0,0.0,0.0,0.0,0.0,0.0,0.0,0.0,1.1856,1.2325,1.251,1.2371,1.1896,1.1648,1.1127,1.0287,0.9948,0.932,0.0,0.0,0.0,0.0,0.0,0.0,0.0,0.0,0.0,0.0,0.0,0.0,0.0,0.0,0.0,0.0,0.0,0.0,0.0,0.0,0.0,0.0,0.0,0.0,0.0,0.0,0.0,0.0,0.8952,0.9255,0.9758,0.0,0.0,0.0,0.0,0.0,0.0,0.0,0.0,0.0,0.0,1.5049,1.5284,1.4701,0.0,0.0,1.3505,1.32,1.3278,1.309,1.2764,1.2298,1.2073,0.0,0.0,0.0,0.0,0.0,0.0,0.0,0.0,0.0,0.0,0.0,0.0,0.0,0.0,0.0,0.0,0.0,0.0,0.0,0.0,0.0,0.0,0.0,0.0,0.0,0.0,0.0,0.0,0.0,0.0,0.0,0.0,0.0,0.0,0.0,0.0,0.0,0.0,0.0,0.0,0.0,0.0,0.0,0.0,0.0,0.0,0.0,0.0,0.0,0.0,0.0,0.0,1.3305,1.3913,1.4112,1.3989,1.3399,1.3087,1.2565,1.1835,1.1355,1.0753,0.0,0.0,0.0,0.0,0.0,0.0,0.0,0.0,0.0,0.0,0.0,0.0,0.0,0.0,0.0,0.0,0.0,0.0,0.0,0.0,0.0,0.0,0.0,0.0,0.0,0.0,0.0,0.0,1.0224,1.0386,1.0843,0.0,0.0,0.0,0.0,0.0,0.0,0.0,0.0,0.0,0.0,1.65,1.6705,1.6002,1.526,1.4883,1.4395,1.4034,1.398,1.3907,1.3585,1.3059,0.0,0.0,0.0,0.0,0.0,0.0,0.0,0.0,0.0,0.0,0.0,0.0,0.0,0.0,0.0,0.0,0.0,0.0,0.0,0.0,0.0,0.0,0.0,0.0,0.0,0.0,0.0,1.385,0.0,0.0,1.3464,0.0,0.0,0.0,0.0,0.0,0.0,0.0,0.0,0.0,0.0,0.0,0.0,0.0,0.0,0.0,0.0,0.0,0.0,0.0,0.0,0.0,0.0,1.5199,1.5297,1.6307,1.6213,1.4907,1.4516,1.3988,1.3276,1.2783,1.2283,1.1712,0.0,0.0,0.0,0.0,0.0,0.0,0.0,0.0,0.0,0.0,0.0,0.0,0.0,0.0,0.0,0.0,0.0,0.0,0.0,0.0,0.0,0.0,0.0,0.0,0.0,0.0,1.1617,1.1667,1.1657,0.0,0.0,0.0,0.0,0.0,0.0,0.0,0.0,0.0,1.7734,1.763,1.7555,1.7995,1.712,1.6271,1.583,1.5303,1.4903,1.4741,1.4558,1.4232,0.0,0.0,0.0,0.0,0.0,0.0,0.0,0.0,0.0,0.0,0.0,0.0,0.0,0.0,0.0,0.0,0.0,0.0,0.0,0.0,0.0,0.0,0.0,0.0,0.0,0.0,0.0,1.5321,1.5499,0.0,0.0,0.0,0.0,0.0,0.0,0.0,0.0,0.0,0.0,0.0,1.7494,1.738,0.0,0.0,0.0,0.0,0.0,0.0,0.0,0.0,0.0,0.0,0.0,0.0,1.6701,1.7285,1.7771,1.7571,1.6662,1.6278,1.5564,1.4385,1.4196,1.3616,1.2469,0.0,0.0,0.0,0.0,0.0,0.0,0.0,0.0,0.0,0.0,0.0,0.0,0.0,0.0,0.0,0.0,0.0,0.0,0.0,0.0,0.0,0.0,0.0,0.0,0.0,1.2757,0.0,0.0,0.0,0.0,0.0,0.0,0.0,0.0,0.0,0.0,1.6552,1.7711,1.9214,1.9731,1.9808,1.9654,1.9025,1.8277,0.0,0.0,0.0,0.0,0.0,0.0,0.0,0.0,0.0,0.0,0.0,0.0,0.0,0.0,1.3488,1.3105,1.3048,1.3168,1.3658,0.0,0.0,0.0,0.0,0.0,0.0,0.0,0.0,0.0,0.0,0.0,0.0,0.0,0.0,1.7068,1.7361,1.7272,0.0,0.0,0.0,0.0,0.0,0.0,0.0,0.0,1.9357,1.9552,1.9668,1.9533,1.9388,1.9135,1.8956,1.8133,0.0,0.0,0.0,0.0,0.0,0.0,0.0,0.0,1.8052,1.8772,1.9083,1.892,1.8279,1.7899,1.7254,1.6208,1.5997,1.5307,1.4199,1.3864,1.3186,0.0,0.0,0.0,0.0,0.0,0.0,0.0,0.0,0.0,0.0,0.0,0.0,0.0,0.0,0.0,0.0,0.0,0.0,0.0,0.0,0.0,0.0,0.0,1.4254,0.0,0.0,0.0,0.0,0.0,0.0,0.0,0.0,0.0,1.6832,1.7709,1.8851,2.0409,2.0862,2.1059,2.0935,0.0,0.0,0.0,0.0,0.0,0.0,0.0,1.71,1.6663,1.6685,1.6596,1.6163,1.6113,1.6126,1.6047,0.0,0.0,1.4859,1.4757,1.4973,1.549,1.5962,1.6292,1.6414,1.685,1.7178,0.0,0.0,0.0,0.0,1.7238,0.0,0.0,0.0,1.8818,1.9076,0.0,1.9187,0.0,0.0,0.0,0.0,2.0873,2.0637,0.0,0.0,2.1382,2.1375,2.1389,2.1389,2.1382,2.1382,2.1375,2.1368,2.1184,1.8706,1.7404,0.0,0.0,0.0,0.0,0.0,1.9188,1.9711,2.0263,2.0291,1.9641,1.9328,1.8938,1.853,1.7984,1.741,1.6745,1.6378,1.5658,1.4451,1.4325,0.0,0.0,0.0,0.0,0.0,0.0,0.0,0.0,0.0,0.0,0.0,0.0,0.0,0.0,0.0,0.0,0.0,0.0,0.0,0.0,1.5664,0.0,0.0,0.0,0.0,0.0,0.0,0.0,0.0,0.0,1.7092,1.7935,1.8483,1.9493,2.1234,0.0,0.0,0.0,0.0,2.0727,1.9943,1.973,1.9432,1.8838,1.8735,1.8507,1.8007,0.0,0.0,1.7596,1.7648,1.7687,1.7526,1.7223,1.6947,1.6572,1.6506,1.6711,1.7588,1.7835,1.807,1.837,1.8459,1.86,2.177,0.0,0.0,0.0,0.0,1.9385,1.9719,2.0147,2.0717,2.1004,2.1153,2.1491,0.0,0.0,0.0,0.0,0.0,0.0,2.3365,2.3316,2.3307,2.3297,2.3297,2.3297,2.3297,2.3297,2.3297,2.342,2.3581,2.2647,2.1446,2.0123,0.0,0.0,0.0,0.0,2.0255,2.0427,2.0773,2.0729,2.0284,2.0227,1.9903,1.9316,1.893,1.8481,1.816,1.8007,1.7622,1.6874,1.6459,0.0,0.0,0.0,0.0,0.0,0.0,0.0,0.0,0.0,0.0,0.0,0.0,0.0,0.0,0.0,0.0,0.0,0.0,0.0,1.7098,1.7104,1.703,0.0,0.0,0.0,0.0,0.0,0.0,0.0,0.0,0.0,1.8839,1.9444,2.0209,0.0,0.0,2.1647,2.1544,2.1366,2.1148,2.0681,2.0335,0.0,1.9873,1.9652,1.9418,1.9275,1.9269,1.924,1.9165,1.9012,1.8891,1.8804,1.8659,1.8571,1.8859,1.8191,1.7792,1.8245,1.8782,1.911,1.9233,1.9505,1.966,2.3985,2.2057,2.1501,2.1308,2.1279,2.1409,2.1666,2.2141,2.2566,2.287,2.3097,2.3345,2.3873,2.4569,2.5019,0.0,0.0,0.0,2.57,2.5644,2.5615,2.566,2.566,2.566,2.566,2.566,2.566,2.5721,2.5965,2.5751,2.4988,2.376,0.0,2.1665,2.1572,2.1381,2.1286,2.1285,2.1393,2.1425,2.1172,2.1046,2.0729,2.0214,2.0024,1.9757,1.9462,1.9455,1.9199,1.8612,1.8203,1.7545,0.0,0.0,0.0,0.0,0.0,0.0,0.0,0.0,0.0,0.0,0.0,1.3836,1.4429,0.0,0.0,0.0,1.6509,1.7228,1.8248,1.7882,0.0,0.0,0.0,0.0,0.0,0.0,0.0,1.7537,1.7906,1.8426,1.9226,1.9847,2.0533,2.1283,2.163,2.1792,2.1641,0.0,2.1522,2.1125,2.0927,2.0661,2.0528,2.0389,2.025,2.0256,2.0256,2.0256,2.0244,2.0035,1.9862,1.9825,1.9641,1.9639,1.9988,1.949,1.9151,1.9409,1.9754,2.0002,2.0124,2.024,2.0291,2.6009,2.5319,2.4033,2.3623,2.3691,2.3473,2.3705,2.4324,2.4371,2.4748,2.5285,2.5032,2.5598,2.6769,2.7013,0.0,2.8029,2.7755,2.7774,2.8095,2.8095,2.8104,2.8104,2.8035,2.8104,2.8044,2.8095,2.8077,2.8051,2.8051,2.7862,2.7468,2.4868,2.332,2.2896,2.2551,2.2326,2.223,2.2237,2.2237,2.2237,2.1859,2.1544,2.1229,2.1172,2.1046,2.0729,2.0709,2.0446,1.9861,1.9504,1.8962,1.8104,0.0,0.0,0.0,0.0,0.0,0.0,0.0,0.0,0.0,0.0,0.0,0.0,0.0,0.0,1.7247,1.7847,0.0,1.8921,1.8205,0.0,0.0,0.0,1.6836,1.6836,1.6836,1.7051,1.7618,0.0,0.0,1.9316,1.9931,2.0487,2.102,2.1383,2.1672,2.1934,2.1941,2.1778,2.1378,2.1359,2.1306,2.094,2.0894,2.0881,2.0888,2.0931,2.0861,2.0848,2.0682,2.0547,2.0432,2.0266,2.0093,2.01,2.0258,2.0643,2.0693,2.0655,2.065,2.0838,2.0713,2.0537,2.8571,2.8046,2.7484,2.6228,2.4812,2.5394,2.5912,2.6346,2.6814,2.7125,2.7306,2.7528,2.803,2.8733,2.9071,2.9266,2.9418,2.9105,2.8974,2.9057,2.8847,2.8737,2.8788,2.8737,2.8797,2.8788,2.8728,2.8692,2.8624,2.8606,2.8275,2.7627,2.6681,2.5696,2.4561,2.3916,2.3529,2.323,2.323,2.323,2.323,2.2675,2.2292,2.2237,2.1985,2.1796,2.1727,2.1506,2.1231,2.0847,2.0355,1.9633,1.8766,1.8318,0.0,0.0,0.0,0.0,0.0,0.0,0.0,0.0,0.0,1.684,1.7186,0.0,1.7833,0.0,1.8659,1.905,1.9223,1.8843,0.0,0.0,1.8234,1.7996,1.8003,1.7996,1.8119,1.8534,1.8685,1.8961,1.9617,2.0014,2.0478,2.111,2.1266,2.1306,2.1375,2.1382,2.1382,2.1286,2.1307,2.1197,2.1177,2.1136,2.117,2.1136,2.1142,2.1074,2.0779,2.0718,2.0548,2.0295,2.0255,2.0202,2.0154,2.0257,2.031,2.04,2.0691,2.0889,2.081,2.0704,2.0591,2.9314,2.892,2.8697,2.7862,2.6773,2.7185,2.7564,2.7942,2.8301,2.8531,2.8641,2.9135,2.9549,2.9844,3.0216,3.0352,3.0343,3.0157,3.0098,3.0039,2.9931,2.971,2.9521,2.9521,2.9427,2.9257,2.9247,2.924,2.9127,2.9174,2.8842,2.8153,2.7813,2.7044,2.5845,2.5032,2.4438,2.3946,2.4275,2.437,2.427,2.3907,2.3472,2.3036,2.2718,2.246,2.2329,2.1975,2.169,2.1371,2.0924,2.034,1.9533,1.9194,1.8719,0.0,0.0,0.0,0.0,0.0,0.0,0.0,0.0,0.0,0.0,0.0,1.8886,1.9134,1.9339,1.9469,1.9462,1.9245,1.9067,1.9059,1.8902,1.8795,1.8795,1.8795,1.886,1.9038,1.9174,1.9395,1.9745,2.0115,2.059,2.1048,2.1224,2.1387,2.1568,2.1622,2.1622,2.1622,2.1615,2.1615,2.1615,2.1622,2.1622,2.1555,2.1488,2.13,2.1127,2.1006,2.0832,2.0711,2.0651,2.0591,2.0476,2.0409,2.0355,2.0274,2.0488,2.0628,2.0514,2.0474,2.0421,2.9352,2.9009,2.8851,2.8875,2.8885,2.8722,2.8865,2.9153,2.9222,2.939,2.9599,3.0206,3.045,3.0509,3.0772,3.0898,3.0898,3.0898,3.0898,3.0889,3.083,3.0586,3.0195,3.0088,2.9844,2.9492,2.9434,2.944,2.9391,2.9381,2.902,2.8406,2.8071,2.7462,2.6539,2.5732,2.5077,2.4677,2.5383,2.5602,2.542,2.5306,2.4824,2.4016,2.352,2.3104,2.2854,2.2444,2.2081,2.1711,2.1415,2.1025,2.0323,2.007,1.9664,0.0,1.9045,0.0,0.0,0.0,0.0,0.0,0.0,0.0,0.0,1.9841,1.9959,2.0178,2.001,1.9848,1.9848,1.965,1.9532,1.9532,1.948,1.9532,1.948,1.9532,1.9487,1.9532,1.9731,1.9855,1.999,2.0381,2.0823,2.1193,2.1511,2.1866,2.2152,2.2134,2.2002,2.2142,2.2194,2.2194,2.2216,2.2246,2.2238,2.2201,2.1979,2.1703,2.155,2.1379,2.1156,2.1047,2.0924,2.0855,2.0646,2.0573,2.0474,2.024,2.0221,2.0254,2.0167,2.018,2.0107,3.019,2.9476,2.9445,2.9407,2.9472,2.9427,2.969,3.0147,3.0401,3.0587,3.0645,3.0762,3.082,3.083,3.0889,3.0898,3.0898,3.0898,3.0898,3.0879,3.0498,3.0293,3.0156,2.9482,2.9121,2.9023,2.8691,2.8359,2.808,2.808,2.7578,2.6707,2.6593,2.612,2.5325,0.0,0.0,0.0,2.6696,2.7031,2.6983,2.6449,2.6091,2.5844,2.4733,0.0,2.4059,2.3524,2.2929,2.2349,2.202,0.0,0.0,0.0,0.0,0.0,0.0,0.0,0.0,0.0,0.0,0.0,2.1415,2.1269,2.0746,2.0659,2.0682,2.0745,2.069,2.0659,2.0659,2.0604,2.0617,2.0609,2.0609,2.0617,2.0617,2.0617,2.0617,2.0617,2.0628,2.0768,2.1026,2.1196,2.1488,2.1985,2.228,2.26,2.2923,2.2426,2.2103,2.2274,2.265,2.2798,2.2814,2.2814,2.2814,2.2814,2.2585,2.22,2.1752,2.1346,2.0889,2.0475,2.015,2.0104,2.0281,2.0131,2.0122,2.0222,2.0278,2.023,1.9939,1.988,1.9813,2.9648,2.9228,2.9023,2.9062,0.0,2.9248,2.9563,2.9996,3.0167,3.0234,3.0234,3.0244,3.0244,3.0254,3.0459,3.0547,3.0547,3.0547,3.0557,3.0518,3.0088,2.9658,2.9238,2.8818,2.8389,2.7978,2.7773,2.7549,2.7353,2.7344,2.702,2.6429,2.6387,2.6078,2.5509,2.5674,2.5958,2.645,2.6816,2.7104,2.7289,2.7026,2.6571,2.6091,2.5254,0.0,0.0,0.0,0.0,0.0,0.0,0.0,0.0,2.1687,2.1682,2.1495,2.1623,2.1674,2.1674,2.1928,2.2173,2.2274,2.2677,2.2526,2.1776,2.1674,2.1674,2.1674,2.1674,2.1674,2.1666,2.1683,2.1674,2.1674,2.1674,2.1725,2.1674,2.1674,2.1674,2.1674,2.1674,2.1748,2.1921,2.1954,2.2123,2.2497,2.2694,2.291,2.3212,2.2978,2.2798,2.2954,2.3127,2.3313,2.3267,2.333,2.3275,2.3267,2.2938,2.2544,2.2205,2.1791,2.1354,2.1023,2.0775,2.0624,2.0523,2.0354,2.0183,2.0159,2.0104,1.9977,1.9768,1.9778,1.9715,2.8877,2.8779,2.8447,2.8486,2.8809,2.8809,2.9014,2.9411,2.9558,0.0,0.0,2.958,2.958,2.9646,2.9932,3.0088,3.0088,3.0088,3.0088,3.0059,2.957,2.8975,2.8301,2.8057,2.7588,2.6924,2.6826,2.6736,2.6797,2.6787,2.6625,2.6372,2.6362,2.6219,2.5913,2.5862,2.604,2.6386,2.6624,2.6903,2.7266,2.7284,2.6886,2.5995,2.5496,2.4981,2.4397,2.4049,2.3754,2.336,2.3307,2.3033,2.2463,2.2585,2.2604,2.2359,2.2535,2.2677,2.2728,2.2929,2.3079,2.3179,2.3628,2.3578,2.2778,2.2778,2.2778,2.2778,2.2778,2.2769,2.2778,2.2778,2.2778,2.2769,2.2778,2.2778,2.2778,2.2778,2.2778,2.2778,2.2778,2.2769,2.2787,2.2795,2.282,2.3079,2.3199,2.3279,2.3577,2.3711,2.3703,2.379,2.3894,2.3928,2.385,2.3823,2.378,2.3734,2.3345,2.2913,2.2794,2.2466,2.213,2.1948,2.1767,2.1454,2.1248,2.0948,2.0708,2.0481,2.023,2.0019,1.9945,1.9977,1.9903,2.8711,2.8369,2.832,2.833,2.8389,2.8379,2.8418,2.8535,2.9248,2.957,2.958,2.958,2.958,2.958,2.9629,2.9648,2.9658,2.9658,2.9724,2.9609,2.8838,2.8408,2.8232,2.7178,2.6592,2.6445,2.6103,2.5869,2.5869,2.5869,2.5771,2.5516,2.5457,2.5377,2.5112,2.5062,2.5239,2.566,2.6617,2.7151,2.7212,2.7222,2.7131,2.6949,2.6098,2.5595,2.5488,2.5163,2.4774,2.4193,2.4115,2.3843,2.3252,2.3285,2.325,2.3206,2.3247,2.3347,2.3529,2.3578,2.3777,2.4233,2.4578,2.4381,2.3628,2.3728,2.3877,2.3877,2.3836,2.3886,2.3886,2.3827,2.3836,2.3877,2.3877,2.3877,2.3836,2.3827,2.3827,2.3827,2.3886,2.3877,2.3827,2.3827,2.3836,2.3935,2.4035,2.4341,2.4505,2.4386,2.4353,2.4537,2.4823,2.4952,2.469,2.4709,2.4542,2.4395,2.4044,2.3651,2.3436,2.3134,2.2773,2.252,2.2059,2.1832,2.1957,2.1618,2.1457,2.1501,2.151,2.1302,2.0901,2.0766,2.0464,2.8467,2.8301,2.8301,2.8301,2.8271,2.8057,2.7812,2.7637,2.8018,2.8457,2.8867,2.8877,2.8877,2.8896,2.9111,2.9209,2.9209,2.8984,2.8877,2.8809,2.7988,2.748,2.7226,2.665,2.626,2.6025,2.5791,2.5684,2.5684,2.5684,2.5635,2.5528,2.5538,2.544,2.5333,2.5333,2.5429,2.5621,2.6066,2.6374,2.6612,2.6622,2.6507,2.6269,2.5824,2.5474,2.5258,2.5157,2.4913,2.4637,2.4618,2.4485,2.4251,2.4192,2.4192,2.4192,2.4242,2.4242,2.4332,2.4332,2.443,2.4686,2.4981,2.4981,2.4578,2.4529,2.4538,2.4529,2.4529,2.4529,2.4529,2.4529,2.4529,2.4538,2.4529,2.4529,2.4538,2.4538,2.4529,2.4529,2.4538,2.4529,2.4529,2.4529,2.4529,2.4529,2.4686,2.4824,2.5079,2.4944,2.4836,2.4836,2.4986,2.5019,2.4905,2.4895,2.4845,2.4744,2.449,2.4215,2.4034,2.3705,2.3373,2.3182,2.2728,2.2435,2.2579,2.2281,2.2115,2.2138,2.2073,2.1856,2.149,2.1176,2.062,2.8301,2.8301,2.8301,2.8242,2.8115,2.7695,2.7324,2.7031,2.7021,2.7393,2.7959,2.8096,2.8154,2.8184,2.8506,2.8633,2.8584,2.8193,2.8008,2.793,2.7217,2.6689,2.6396,2.6299,2.6064,2.5713,2.5684,2.5684,2.5684,2.5684,2.5684,2.5684,2.5684,2.5684,2.5684,2.5684,2.5684,2.5703,2.5601,2.5726,2.5999,2.6018,2.58,2.545,2.5403,2.5212,2.4822,2.4888,2.4945,2.4848,2.4933,2.499,2.4883,2.4892,2.4892,2.4892,2.4892,2.4932,2.499,2.503,2.5079,2.5079,2.5284,2.5382,2.5382,2.5139,2.4983,2.506,2.5088,2.5088,2.5088,2.5079,2.5088,2.5088,2.5079,2.5079,2.5079,2.5088,2.5088,2.5088,2.5088,2.5088,2.5088,2.5088,2.5079,2.5079,2.5079,2.5186,2.5342,2.5391,2.5294,2.5186,2.5088,2.5077,2.503,2.5009,2.4979,2.4941,2.4714,2.4594,2.4517,2.4192,2.4026,2.3935,2.3578,2.3338,2.3238,2.3046,2.2913,2.2906,2.2772,2.2418,2.2097,2.1681,2.0972,2.8301,2.8301,2.8281,2.8066,2.7728,2.7256,2.7041,2.6992,2.7002,2.7041,2.7158,2.7539,2.7767,2.7777,2.7773,2.7803,2.7826,2.7334,2.7148,2.7109,2.666,2.6426,2.6338,2.5986,2.5723,2.5684,2.5684,2.5684,2.5684,2.5732,2.5684,2.5684,2.5684,2.5732,2.5732,2.5732,2.5732,2.5684,2.5674,2.5713,2.5752,2.5752,2.5548,2.5157,2.5148,2.4933,2.4479,2.4865,2.4946,2.4756,2.5082,2.5128,2.4932,2.4883,2.4883,2.4941,2.4941,2.499,2.5235,2.5499,2.5586,2.5635,2.5635,2.5635,2.5606,2.5313,2.5265,2.5431,2.5616,2.5518,2.5586,2.5557,2.5557,2.5538,2.5586,2.5645,2.5586,2.5645,2.5635,2.5645,2.5586,2.5635,2.5586,2.5586,2.5586,2.5538,2.5538,2.5538,2.5586,2.5635,2.5635,2.5586,2.5635,2.5489,2.5342,2.5284,2.5186,2.499,2.4883,2.4883,2.4883,2.4833,2.4784,2.4578,2.448,2.4233,2.4233,2.4134,2.3935,2.3827,2.3628,2.3379,2.2929,2.2526,2.191,2.8301,2.8271,2.8027,2.7529,2.6924,2.6719,2.6594,2.6448,2.6428,2.6537,2.6755,2.7152,2.7337,2.7285,2.7285,2.7285,2.7256,2.6836,2.6641,2.6602,2.6201,2.6006,2.5977,2.5781,2.5684,2.5684,2.5684,2.5684,2.5732,2.5868,2.6014,2.6159,2.6159,2.6159,2.6159,2.6169,2.6169,2.6159,2.6159,2.604,2.5754,2.5485,2.5254,2.5116,2.4824,2.4609,2.4463,2.46,2.4641,2.4586,2.4917,2.514,2.5044,2.5247,2.5391,2.5382,2.5382,2.544,2.5538,2.5635,2.5684,2.5684,2.5684,2.5586,2.5361,2.5213,2.5059,2.4961,2.4961,2.5049,2.5293,2.5342,2.5439,2.5615,2.5684,2.5684,2.5684,2.5684,2.5684,2.5684,2.5684,2.5684,2.5684,2.5684,2.5684,2.5684,2.5684,2.5684,2.5684,2.5684,2.5684,2.5684,2.5684,2.5684,2.5538,2.5538,2.5489,2.5382,2.5382,2.5382,2.5333,2.5235,2.5137,2.5137,2.4932,2.4784,2.4677,2.4686,2.4587,2.448,2.4381,2.4084,2.3877,2.3529,2.2929,2.8301,2.8203,2.7715,2.707,2.6387,2.6349,2.6261,2.612,2.6197,2.6342,2.6623,2.6926,2.7041,2.7032,2.702,2.7038,2.6989,2.6596,2.6409,2.6271,2.5967,2.583,2.583,2.583,2.583,2.5936,2.5927,2.5927,2.5927,2.61,2.6294,2.6448,2.6496,2.6496,2.6496,2.6496,2.6496,2.6506,2.6592,2.637,2.593,2.5515,2.5208,2.494,2.4598,2.4372,2.4254,2.4362,2.4385,2.4349,2.4751,2.4987,2.4902,2.5205,2.5372,2.5508,2.5674,2.5684,2.5684,2.5625,2.5557,2.5489,2.5459,2.5244,2.4951,2.4832,2.458,2.4316,2.4131,2.4268,2.4805,2.4883,2.5088,2.5478,2.5557,2.5586,2.5664,2.5684,2.5684,2.5684,2.5684,2.5684,2.5684,2.5684,2.5684,2.5684,2.5684,2.5684,2.5684,2.5684,2.5684,2.5684,2.5684,2.5684,2.5684,2.5684,2.5684,2.5684,2.5635,2.5635,2.5684,2.5489,2.544,2.5391,2.5245,2.5137,2.5186,2.5137,2.5039,2.499,2.4833,2.4686,2.4538,2.4233,2.3926,2.8301,2.8154,2.7393,2.6797,2.6407,2.6231,2.613,2.6197,2.639,2.663,2.6907,2.6959,2.7064,2.7215,2.7276,2.7141,2.7031,2.6759,2.6512,2.6249,2.618,2.612,2.61,2.61,2.6207,2.645,2.6458,2.6448,2.6506,2.6496,2.6496,2.6544,2.6592,2.6544,2.6592,2.6592,2.6544,2.664,2.6781,2.6615,2.6176,2.5941,2.5439,2.4725,2.45,2.4299,2.3998,2.4279,2.4401,2.4123,2.4538,2.4674,2.4453,2.4482,2.4707,2.5088,2.5488,2.5664,2.5606,2.5352,2.5165,2.5106,2.4785,2.4492,2.4443,2.416,2.3935,2.3818,2.3506,2.3569,2.4258,2.4414,2.4619,2.5077,2.5117,2.5312,2.5625,2.5654,2.5684,2.5684,2.5684,2.5684,2.5684,2.5684,2.5684,2.5684,2.5684,2.5684,2.5684,2.5684,2.5684,2.5684,2.5684,2.5684,2.5684,2.5684,2.5684,2.5684,2.5684,2.5684,2.5684,2.5684,2.5684,2.5684,2.5586,2.5538,2.5635,2.5586,2.5489,2.5391,2.5284,2.5137,2.499,2.4932,2.4627,2.7969,2.7451,2.7334,2.6852,2.6251,2.6315,2.6534,2.688,2.6965,2.7251,2.7615,2.7925,2.8109,2.8178,2.8516,2.8274,2.7731,2.7666,2.7589,2.748,2.7351,2.7252,2.7222,2.6971,2.6909,2.7053,2.6858,2.6918,2.7214,2.7214,2.7299,2.7431,2.7431,2.7478,2.7478,2.7478,2.7478,2.7447,2.7311,2.697,2.6609,2.6269,2.5836,2.5412,2.4811,2.4415,2.4251,2.4306,2.4257,2.4169,2.446,2.4511,2.426,2.4313,2.4609,2.5019,2.5262,2.5303,2.5283,2.5204,2.4988,2.4678,2.4521,2.4268,2.4053,2.3867,2.3682,2.3374,2.3208,2.3296,2.3535,2.3838,2.4189,2.459,2.494,2.5098,2.5312,2.5547,2.5684,2.5684,2.5684,2.5684,2.5684,2.5684,2.5684,2.5684,2.5684,2.5684,2.5684,2.5684,2.5684,2.5684,2.5684,2.5684,2.5684,2.5684,2.5684,2.5684,2.5684,2.5684,2.5684,2.5684,2.5684,2.5684,2.5684,2.5684,2.5684,2.5684,2.5586,2.5586,2.5528,2.5489,2.544,2.5235,2.5088,2.7845,2.7214,2.7348,2.6943,2.6295,2.664,2.6976,2.733,2.7693,2.8137,2.8554,2.9058,2.9359,2.9542,2.9976,2.9893,2.9189,2.8864,2.8678,2.8528,2.8378,2.8288,2.8236,2.7971,2.7906,2.803,2.7676,2.7635,2.7831,2.7867,2.8008,2.8175,2.8222,2.8222,2.8222,2.8222,2.8222,2.8136,2.7817,2.7502,2.716,2.677,2.6419,2.6098,2.5485,2.5062,2.485,2.4615,2.4487,2.4442,2.4492,2.4337,2.4058,2.4201,2.4428,2.4768,2.4822,2.4863,2.4881,2.4783,2.4521,2.4238,2.4072,2.3867,2.3603,2.3574,2.3418,2.3169,2.3101,2.3101,2.3149,2.3418,2.376,2.415,2.4482,2.4775,2.5086,2.5332,2.5566,2.5654,2.5684,2.5684,2.5684,2.5684,2.5684,2.5684,2.5684,2.5684,2.5684,2.5684,2.5684,2.5684,2.5684,2.5684,2.5684,2.5684,2.5684,2.5684,2.5684,2.5684,2.5684,2.5684,2.5684,2.5684,2.5684,2.5684,2.5684,2.5684,2.5684,2.5684,2.5684,2.5586,2.5586,2.5538,2.5333,2.794,2.7439,2.7399,2.7102,2.6653,2.7071,2.7309,2.7662,2.8583,2.9185,2.9532,3.0233,3.0637,3.0968,3.1305,3.1593,3.1246,3.0229,2.9533,2.9302,2.9182,2.9182,2.9192,2.9118,2.9141,2.9323,2.894,2.8588,2.8452,2.843,2.8513,2.8678,2.8735,2.8735,2.8724,2.8724,2.8724,2.8615,2.8415,2.8088,2.7734,2.7342,2.6967,2.6648,2.6509,2.6166,2.5527,2.5327,2.5115,2.4903,2.4679,2.4292,2.3985,2.4052,2.4113,2.4196,2.4346,2.4394,2.4329,2.4092,2.3916,2.375,2.3418,2.3218,2.3198,2.3169,2.314,2.311,2.3101,2.3101,2.3101,2.314,2.3305,2.3711,2.3887,2.4238,2.4775,2.5106,2.5234,2.5538,2.5654,2.5684,2.5684,2.5684,2.5684,2.5684,2.5684,2.5684,2.5684,2.5684,2.5684,2.5684,2.5684,2.5684,2.5684,2.5684,2.5684,2.5684,2.5684,2.5684,2.5684,2.5684,2.5684,2.5684,2.5684,2.5684,2.5684,2.5684,2.5684,2.5684,2.5684,2.5684,2.5635,2.5586,2.5538,2.794,2.7429,2.7612,2.745,2.7123,2.7347,2.7989,2.8774,2.9232,2.9807,3.0533,3.112,3.1381,3.1591,3.1995,3.2258,3.2196,3.175,3.1282,3.0857,3.0614,3.0552,3.0499,3.0242,2.9947,2.9832,2.9804,2.9568,2.9205,2.9174,2.9209,2.9244,2.9255,2.9255,2.9244,2.9244,2.9244,2.9155,2.8522,2.8108,2.8104,2.7445,2.7009,2.7008,2.6903,2.6685,2.6467,2.5968,2.5675,2.5559,2.5211,2.4786,2.4399,2.4189,2.4149,2.4108,2.4157,2.412,2.3975,2.3857,2.3633,2.3354,2.3169,2.311,2.3101,2.3101,2.3101,2.3101,2.3101,2.3101,2.3101,2.3101,2.3179,2.3296,2.3603,2.3857,2.4238,2.4773,2.5135,2.5273,2.5547,2.5664,2.5684,2.5684,2.5684,2.5684,2.5684,2.5684,2.5684,2.5684,2.5684,2.5684,2.5684,2.5684,2.5684,2.5684,2.5684,2.5684,2.5684,2.5684,2.5684,2.5684,2.5684,2.5684,2.5684,2.5684,2.5684,2.5684,2.5684,2.5684,2.5684,2.5684,2.5684,2.5635,2.5586,2.8196,2.7851,2.8036,2.7947,2.7733,2.8132,2.8709,2.9569,3.0208,3.0808,3.1446,3.2018,3.2293,3.2361,3.2682,3.2796,3.2807,3.2818,3.2555,3.2088,3.1783,3.168,3.1659,3.1385,3.0987,3.0634,3.0569,3.0305,2.9916,2.9724,2.968,2.976,2.976,2.976,2.976,2.976,2.976,2.9625,2.8788,2.8323,2.8271,2.7539,2.7067,2.7138,2.7056,2.7015,2.6985,2.652,2.624,2.6115,2.5717,2.5295,2.4871,2.455,2.4285,2.4226,2.4032,2.3811,2.3688,2.358,2.3447,2.3149,2.3101,2.3101,2.3101,2.3101,2.3101,2.3101,2.3101,2.3101,2.3101,2.3101,2.3101,2.3101,2.3369,2.3613,2.3828,2.4394,2.4873,2.5068,2.5312,2.5527,2.5635,2.5684,2.5684,2.5684,2.5684,2.5684,2.5684,2.5684,2.5684,2.5684,2.5684,2.5684,2.5684,2.5684,2.5684,2.5684,2.5684,2.5684,2.5684,2.5684,2.5684,2.5684,2.5684,2.5684,2.5684,2.5684,2.5684,2.5684,2.5684,2.5684,2.5684,2.5684,2.5635,2.8628,2.8551,2.8562,2.8497,2.8458,2.9111,2.9489,2.9925,3.1282,3.1992,3.2294,3.2857,3.3185,3.3258,3.322,3.3231,3.3281,3.3231,3.3081,3.283,3.2606,3.2443,3.2432,3.2387,3.2101,3.1679,3.1277,3.0911,3.0521,3.0136,3.0011,3.0125,3.0125,3.017,3.0125,3.0182,3.017,2.9999,2.9173,2.8669,2.8643,2.7694,2.719,2.719,2.719,2.719,2.7149,2.6985,2.6768,2.655,2.6146,2.5801,2.5454,2.4924,2.4646,2.4588,2.3964,2.3793,2.3612,2.3649,2.3428,2.3359,2.334,2.3144,2.3232,2.3188,2.3188,2.3178,2.3144,2.3101,2.3101,2.3101,2.3101,2.3101,2.3149,2.3369,2.3701,2.4111,2.4512,2.494,2.5106,2.5234,2.5615,2.5684,2.5684,2.5684,2.5684,2.5684,2.5684,2.5684,2.5684,2.5684,2.5684,2.5684,2.5684,2.5684,2.5684,2.5684,2.5684,2.5684,2.5684,2.5684,2.5684,2.5684,2.5684,2.5684,2.5684,2.5684,2.5684,2.5684,2.5684,2.5684,2.5684,2.5684,2.5684,2.8838,2.9065,2.8703,2.8842,2.9176,2.9441,3.0042,3.0948,3.1728,3.2434,3.2941,3.3224,3.3342,3.3292,3.3342,3.3281,3.3331,3.3281,3.3292,3.3181,3.3131,3.298,3.288,3.2969,3.2807,3.2305,3.18,3.1359,3.0903,3.0377,3.0148,3.0216,3.0216,3.0216,3.0216,3.0216,3.0216,3.0078,2.9217,2.8712,2.8574,2.7717,2.7201,2.719,2.719,2.719,2.719,2.7149,2.6933,2.6644,2.652,2.6229,2.5843,2.5601,2.5306,2.5053,2.4874,2.474,2.4726,2.4651,2.4476,2.4196,2.4068,2.3973,2.3644,2.3493,2.3406,2.3363,2.3232,2.3101,2.3101,2.3101,2.3101,2.3101,2.3101,2.3149,2.3325,2.3691,2.4121,2.4512,2.4863,2.5254,2.5586,2.5684,2.5684,2.5684,2.5684,2.5684,2.5684,2.5684,2.5684,2.5684,2.5684,2.5684,2.5684,2.5684,2.5684,2.5684,2.5684,2.5684,2.5684,2.5684,2.5684,2.5684,2.5684,2.5684,2.5684,2.5684,2.5684,2.5684,2.5684,2.5684,2.5684,2.5684,2.5684,2.9257,2.931,2.9305,2.9331,2.9532,3.0042,3.0729,3.1448,3.2279,3.2933,3.3396,3.3481,3.353,3.363,3.363,3.363,3.363,3.353,3.3481,3.3431,3.3331,3.3181,3.3131,3.322,3.3109,3.281,3.2305,3.1812,3.1329,3.0801,3.0468,3.025,3.0216,3.0216,3.0216,3.0216,3.0216,3.0078,2.9435,2.9033,2.8964,2.8057,2.7621,2.7495,2.738,2.719,2.719,2.719,2.7067,2.6891,2.6768,2.6603,2.6354,2.6021,2.586,2.5752,2.5455,2.5255,2.5421,2.5315,2.5068,2.4847,2.4796,2.4565,2.4199,2.3947,2.3883,2.3523,2.3382,2.3232,2.3144,2.3101,2.3101,2.3101,2.3101,2.3101,2.3101,2.3545,2.3955,2.4375,2.4805,2.5244,2.5615,2.5674,2.5684,2.5684,2.5684,2.5684,2.5684,2.5684,2.5684,2.5684,2.5684,2.5684,2.5684,2.5684,2.5684,2.5684,2.5684,2.5684,2.5684,2.5684,2.5684,2.5684,2.5684,2.5684,2.5684,2.5684,2.5684,2.5684,2.5684,2.5684,2.5684,2.5684,2.5684,2.9777,2.9525,3.0012,2.9963,2.9756,3.0754,3.1281,3.1649,3.2646,3.3365,3.3618,3.3729,3.3828,3.4075,3.3977,3.4075,3.4075,3.3828,3.3729,3.3679,3.358,3.3442,3.3431,3.3342,3.3258,3.312,3.273,3.2259,3.1766,3.1283,3.0767,3.0434,3.0296,3.0216,3.0216,3.0216,3.0216,3.0135,2.9699,2.9412,2.9263,2.854,2.808,2.7989,2.761,2.7293,2.7224,2.719,2.7149,2.719,2.7026,2.6891,2.6809,2.6271,2.6244,2.6465,2.6018,2.5821,2.6013,2.5946,2.5605,2.5589,2.5513,2.5229,2.4919,2.4798,2.4499,2.4085,2.3696,2.358,2.3262,2.3188,2.3218,2.3257,2.3237,2.3247,2.3286,2.3584,2.3965,2.4424,2.4853,2.5234,2.5566,2.5684,2.5684,2.5684,2.5684,2.5684,2.5684,2.5684,2.5684,2.5684,2.5684,2.5684,2.5684,2.5684,2.5684,2.5684,2.5684,2.5684,2.5684,2.5684,2.5684,2.5684,2.5684,2.5684,2.5684,2.5684,2.5684,2.5684,2.5684,2.5684,2.5684,2.5684,2.5684,3.0191,3.0547,3.0308,3.0252,3.0375,3.0678,3.1092,3.1693,3.258,3.327,3.3659,3.3939,3.4064,3.4125,3.4162,3.4075,3.4162,3.4075,3.4026,3.3977,3.3977,3.3927,3.3828,3.353,3.3331,3.3204,3.2741,3.2431,3.2144,3.1502,3.0973,3.0813,3.0388,3.0216,3.0216,3.0216,3.0216,3.0135,2.9757,2.9606,2.9491,2.8985,2.8571,2.8471,2.81,2.7633,2.7259,2.719,2.719,2.719,2.7195,2.717,2.6914,2.6761,2.6819,2.7042,2.703,2.7031,2.7384,2.7315,2.7195,2.6823,2.6714,2.6683,2.6238,2.5785,2.5564,2.5282,2.4867,2.4306,2.3746,2.3652,2.3652,2.3701,2.3887,2.4046,2.4056,2.3935,2.4199,2.4754,2.5057,2.5292,2.5615,2.5674,2.5684,2.5684,2.5684,2.5684,2.5684,2.5684,2.5684,2.5684,2.5684,2.5684,2.5684,2.5684,2.5684,2.5684,2.5684,2.5684,2.5684,2.5684,2.5684,2.5684,2.5684,2.5684,2.5684,2.5684,2.5684,2.5684,2.5684,2.5684,2.5684,2.5684,2.5684,3.0434,3.0581,3.0504,3.0418,3.0327,3.0661,3.1236,3.1897,3.2597,3.3412,3.4129,3.4396,3.4555,3.4799,3.4799,3.475,3.4555,3.4359,3.4162,3.4113,3.4075,3.4075,3.4075,3.3828,3.363,3.3434,3.3066,3.2814,3.234,3.1777,3.1249,3.0973,3.0445,3.0239,3.0261,3.0306,3.0397,3.0419,3.0312,3.0217,3.0124,2.9695,2.9155,2.8919,2.863,2.8299,2.7977,2.7931,2.7889,2.7878,2.7855,2.7584,2.7193,2.716,2.7417,2.7742,2.78,2.8005,2.8283,2.8222,2.7964,2.7683,2.7615,2.7405,2.7083,2.6697,2.6334,2.5982,2.5527,2.5038,2.4339,2.4127,2.4082,2.4121,2.4277,2.4492,2.4629,2.4521,2.4558,2.5057,2.5254,2.5459,2.5606,2.5664,2.5684,2.5684,2.5684,2.5684,2.5684,2.5684,2.5684,2.5684,2.5684,2.5684,2.5684,2.5684,2.5684,2.5684,2.5684,2.5684,2.5684,2.5684,2.5684,2.5684,2.5684,2.5684,2.5684,2.5684,2.5684,2.5684,2.5684,2.5684,2.5684,2.5684,2.5684,3.068,3.0356,3.0793,3.0557,3.0079,3.0606,3.1228,3.2018,3.2589,3.3467,3.457,3.4775,3.5078,3.5476,3.5524,3.5428,3.5175,3.4884,3.4592,3.4506,3.4408,3.4408,3.4359,3.4211,3.4014,3.3779,3.3472,3.3093,3.2664,3.2158,3.1651,3.1146,3.0629,3.0399,3.0352,3.0487,3.0623,3.0668,3.0791,3.0857,3.0833,3.0434,2.9948,2.9452,2.9304,2.9048,2.8737,2.866,2.8686,2.8689,2.8689,2.8253,2.7786,2.7638,2.7958,2.8468,2.8466,2.8609,2.88,2.871,2.8513,2.8222,2.8258,2.8086,2.7764,2.761,2.7253,2.668,2.6179,2.5584,2.4983,2.466,2.4512,2.4551,2.456,2.4795,2.5059,2.5176,2.5176,2.5225,2.5439,2.5586,2.5645,2.5684,2.5684,2.5684,2.5684,2.5684,2.5684,2.5684,2.5684,2.5684,2.5684,2.5684,2.5684,2.5684,2.5684,2.5684,2.5684,2.5684,2.5684,2.5684,2.5684,2.5684,2.5684,2.5684,2.5684,2.5684,2.5684,2.5684,2.5684,2.5684,2.5684,2.5684,2.5684,3.1223,3.0793,3.112,3.0829,3.0217,3.0285,3.0813,3.1577,3.2289,3.3149,3.415,3.4824,3.532,3.5572,3.562,3.5572,3.5524,3.5332,3.5284,3.5187,3.509,3.4981,3.4884,3.4592,3.4347,3.42,3.3866,3.3487,3.3116,3.2615,3.2089,3.1605,3.1135,3.0767,3.0535,3.0623,3.0769,3.096,3.1062,3.1118,3.1116,3.0965,3.0649,3.0091,3.0044,2.9694,2.923,2.9071,2.8939,2.8755,2.8689,2.8632,2.8528,2.852,2.8676,2.8875,2.8991,2.9139,2.9315,2.9312,2.9301,2.9255,2.9152,2.9198,2.8984,2.8721,2.8231,2.7811,2.6888,2.5981,2.5451,2.5159,2.5008,2.5029,2.5225,2.5401,2.5547,2.5566,2.5557,2.5547,2.5615,2.5684,2.5684,2.5684,2.5684,2.5684,2.5684,2.5684,2.5684,2.5684,2.5684,2.5684,2.5684,2.5684,2.5684,2.5684,2.5684,2.5684,2.5684,2.5684,2.5684,2.5684,2.5684,2.5684,2.5684,2.5684,2.5684,2.5684,2.5684,2.5684,2.5684,2.5684,2.5684,2.5684,2.5684,3.1312,3.0961,3.1216,3.0864,3.0319,3.034,3.0834,3.1622,3.251,3.3502,3.441,3.5207,3.5752,3.5943,3.6038,3.5943,3.5812,3.562,3.5633,3.5572,3.5476,3.5428,3.5368,3.4981,3.4787,3.4543,3.4249,3.3866,3.3472,3.2779,3.2319,3.1802,3.1401,3.102,3.0739,3.0859,3.1083,3.1318,3.1463,3.1552,3.1641,3.1596,3.1272,3.1053,3.0814,3.0531,3.0226,3.01,3.0068,2.9925,2.9758,2.9702,2.9635,2.9502,2.9414,2.9394,2.9521,2.9659,2.9726,2.9691,2.9646,2.9485,2.9531,2.9531,2.9439,2.9095,2.8839,2.8262,2.7657,2.6591,2.6079,2.5773,2.5592,2.5487,2.5615,2.5703,2.5684,2.5684,2.5684,2.5684,2.5684,2.5684,2.5684,2.5684,2.5684,2.5684,2.5684,2.5684,2.5684,2.5684,2.5684,2.5684,2.5684,2.5684,2.5684,2.5684,2.5684,2.5684,2.5684,2.5684,2.5684,2.5684,2.5684,2.5684,2.5684,2.5684,2.5684,2.5684,2.5684,2.5684,2.5684,2.5684,2.5684,2.5684,2.5684,3.1462,3.1024,3.1312,3.097,3.0387,3.0476,3.1025,3.1802,3.2701,3.3681,3.4721,3.5474,3.5974,3.6285,3.637,3.6275,3.6051,3.586,3.5812,3.5812,3.5716,3.5668,3.562,3.5416,3.5175,3.4981,3.458,3.4237,3.3758,3.3259,3.2663,3.2248,3.1856,3.1401,3.1152,3.1255,3.1532,3.1761,3.1981,3.2213,3.23,3.2169,3.1994,3.1793,3.1528,3.1327,3.0932,3.092,3.0888,3.081,3.0699,3.0621,3.0554,3.0385,3.0077,2.9791,3.0032,3.0045,3.0,2.9966,2.9874,2.976,2.9669,2.9669,2.9577,2.9347,2.8932,2.8233,2.761,2.7163,2.6655,2.637,2.6081,2.5829,2.579,2.5781,2.5732,2.5684,2.5684,2.5684,2.5684,2.5684,2.5684,2.5684,2.5684,2.5684,2.5684,2.5684,2.5684,2.5684,2.5684,2.5684,2.5684,2.5684,2.5684,2.5684,2.5684,2.5684,2.5684,2.5684,2.5684,2.5684,2.5684,2.5684,2.5684,2.5684,2.5684,2.5684,2.5684,2.5684,2.5684,2.5684,2.5684,2.5684,2.5684,3.1971,3.1264,3.1611,3.1251,3.0614,3.0623,3.1005,3.1752,3.2415,3.3308,3.4528,3.5084,3.5722,3.627,3.6417,3.637,3.6323,3.6275,3.6228,3.6181,3.6038,3.5955,3.592,3.5668,3.5572,3.538,3.4969,3.4494,3.4188,3.3958,3.3555,3.3027,3.2571,3.2159,3.181,3.1803,3.1761,3.1994,3.2213,3.2388,3.2388,3.2388,3.2213,3.2069,3.1893,3.1717,3.1407,3.1362,3.1273,3.1062,3.1029,3.0826,3.0623,3.0578,3.0385,3.0249,3.0193,3.0159,3.0125,3.0136,3.0136,3.0034,3.008,3.0068,2.9897,2.9623,2.9163,2.8757,2.8055,2.7499,2.7109,2.6736,2.64,2.6149,2.6004,2.5917,2.5781,2.5684,2.5684,2.5684,2.5684,2.5684,2.5684,2.5684,2.5684,2.5684,2.5684,2.5684,2.5684,2.5684,2.5684,2.5684,2.5684,2.5684,2.5684,2.5684,2.5684,2.5684,2.5684,2.5684,2.5684,2.5684,2.5684,2.5684,2.5684,2.5684,2.5684,2.5684,2.5684,2.5684,2.5684,2.5684,2.5684,2.5684,2.5684,3.218,3.136,3.179,3.1426,3.0669,3.0904,3.1261,3.1781,3.2564,3.3449,3.4413,3.5085,3.5762,3.6282,3.6417,3.6417,3.6417,3.6417,3.6417,3.6417,3.6275,3.6228,3.6193,3.5955,3.5812,3.5716,3.5476,3.5223,3.4847,3.4311,3.3842,3.3468,3.328,3.2945,3.2577,3.2519,3.2438,3.253,3.2649,3.2779,3.2779,3.2649,3.2506,3.2376,3.2257,3.2069,3.195,3.195,3.1805,3.1596,3.1463,3.1241,3.0916,3.0679,3.0487,3.0261,3.0216,3.0216,3.0216,3.0216,3.0216,3.0216,3.0216,3.0125,3.0,2.9715,2.9301,2.885,2.8337,2.7867,2.7441,2.7119,2.6736,2.6438,2.6245,2.6052,2.5917,2.5781,2.5684,2.5684,2.5684,2.5684,2.5684,2.5684,2.5684,2.5684,2.5684,2.5684,2.5684,2.5684,2.5684,2.5684,2.5684,2.5684,2.5684,2.5684,2.5684,2.5684,2.5684,2.5684,2.5684,2.5684,2.5684,2.5684,2.5684,2.5684,2.5684,2.5684,2.5684,2.5684,2.5684,2.5684,2.5684,2.5684,2.5684,3.2215,3.1552,3.1921,3.1565,3.0781,3.1217,3.1584,3.1942,3.2693,3.3509,3.4342,3.509,3.5809,3.6317,3.6417,3.6417,3.6417,3.6417,3.6417,3.6417,3.6417,3.6417,3.6323,3.6193,3.6098,3.6111,3.5812,3.5668,3.5428,3.4957,3.4389,3.3887,3.4101,3.382,3.3353,3.3126,3.3069,3.2804,3.2939,3.3025,3.3038,3.2896,3.2766,3.268,3.255,3.2475,3.24,3.24,3.2269,3.1994,3.1805,3.154,3.1139,3.0871,3.0634,3.0397,3.0261,3.0216,3.0216,3.0216,3.0216,3.0216,3.0216,3.0125,3.0,2.968,2.9393,2.9035,2.8581,2.8113,2.7736,2.7499,2.7167,2.6784,2.6448,2.6294,2.61,2.5868,2.5684,2.5684,2.5684,2.5684,2.5684,2.5684,2.5684,2.5684,2.5684,2.5684,2.5684,2.5684,2.5684,2.5684,2.5684,2.5684,2.5684,2.5684,2.5684,2.5684,2.5684,2.5684,2.5684,2.5684,2.5684,2.5684,2.5684,2.5684,2.5684,2.5684,2.5684,2.5684,2.5684,2.5684,2.5684,2.5684,2.5684,3.2128,3.2064,3.2099,3.1658,3.1017,3.1496,3.1937,3.2344,3.2599,3.3258,3.4134,3.5031,3.5918,3.6292,3.6417,3.6417,3.6417,3.6417,3.6417,3.6417,3.6417,3.6417,3.637,3.637,3.631,3.6275,3.6098,3.5955,3.5908,3.5668,3.544,3.5414,3.4987,3.4764,3.4305,3.3773,3.3413,3.317,3.3119,3.3124,3.3124,3.3038,3.2939,3.2766,3.268,3.2605,3.2444,3.2487,3.2356,3.2081,3.1994,3.1717,3.1318,3.1062,3.0781,3.0532,3.0306,3.0216,3.0216,3.0216,3.0216,3.0216,3.0216,3.0182,3.0136,2.9726,2.9485,2.9347,2.885,2.8441,2.816,2.7867,2.7489,2.7119,2.6736,2.64,2.6159,2.5868,2.5732,2.5684,2.5684,2.5684,2.5684,2.5684,2.5684,2.5684,2.5684,2.5684,2.5684,2.5684,2.5684,2.5684,2.5684,2.5684,2.5684,2.5684,2.5684,2.5684,2.5684,2.5684,2.5684,2.5684,2.5684,2.5684,2.5684,2.5684,2.5684,2.5684,2.5684,2.5684,2.5684,2.5684,2.5684,2.5684,2.5684,3.2239,3.2088,3.1915,3.1698,3.1451,3.1773,3.2157,3.2562,3.268,3.3377,3.4474,3.5516,3.6157,3.6367,3.6417,3.6417,3.6417,3.6417,3.6417,3.6417,3.6417,3.6417,3.6417,3.6417,3.6417,3.637,3.6275,3.6228,3.6228,3.6086,3.6086,3.5939,3.5635,3.5328,3.4867,3.4272,3.3777,3.3514,3.3257,3.3136,3.3124,3.3124,3.3038,3.2982,3.2939,3.2939,3.2865,3.2822,3.2605,3.2344,3.2257,3.1849,3.135,3.1107,3.0883,3.0623,3.0352,3.0216,3.0216,3.0216,3.0216,3.0216,3.0216,3.0216,3.0216,2.9909,2.968,2.9393,2.9071,2.8721,2.8348,2.8055,2.7726,2.7404,2.7023,2.6544,2.6255,2.5927,2.5732,2.5684,2.5684,2.5684,2.5684,2.5684,2.5684,2.5684,2.5684,2.5684,2.5684,2.5684,2.5684,2.5684,2.5684,2.5684,2.5684,2.5684,2.5684,2.5684,2.5684,2.5684,2.5684,2.5684,2.5684,2.5684,2.5684,2.5684,2.5684,2.5684,2.5684,2.5684,2.5684,2.5684,2.5684,2.5684,2.5684,3.2164,3.1938,3.1609,3.1606,3.1729,3.1981,3.2344,3.2705,3.2997,3.3758,3.4969,3.5805,3.6267,3.6355,3.6417,3.6417,3.6417,3.6417,3.6417,3.6417,3.6417,3.6417,3.6417,3.6417,3.6417,3.6417,3.6417,3.637,3.637,3.6417,3.637,3.6275,3.6203,3.5859,3.5497,3.4848,3.4248,3.3847,3.3583,3.3194,3.3187,3.3124,3.3124,3.3081,3.3081,3.3081,3.3038,3.2995,3.2779,3.2531,3.2313,3.1981,3.1496,3.1095,3.0871,3.0634,3.0385,3.0216,3.0216,3.0216,3.0216,3.0216,3.0216,3.0216,3.0182,3.0011,2.9783,2.9634,2.9312,2.8943,2.8571,2.8243,2.7951,2.762,2.6928,2.6448,2.6304,2.6024,2.583,2.5684,2.5684,2.5684,2.5684,2.5684,2.5684,2.5684,2.5684,2.5684,2.5684,2.5684,2.5684,2.5684,2.5684,2.5684,2.5684,2.5684,2.5684,2.5684,2.5684,2.5684,2.5684,2.5684,2.5684,2.5684,2.5684,2.5684,2.5684,2.5684,2.5684,2.5684,2.5684,2.5684,2.5684,2.5684,2.5684,3.1761,3.1643,3.1231,3.1309,3.1797,3.2213,3.2519,3.2841,3.3527,3.4417,3.5345,3.5621,3.5956,3.6329,3.6417,3.6417,3.6417,3.6417,3.6417,3.6417,3.6417,3.6417,3.6417,3.6417,3.6417,3.6417,3.6417,3.6417,3.6417,3.6417,3.6417,3.6417,3.6358,3.6285,3.6317,3.5768,3.4906,3.4085,3.396,3.3545,3.3282,3.3187,3.3124,3.3124,3.3124,3.3124,3.3124,3.3124,3.2865,3.2487,3.24,3.2038,3.1395,3.1095,3.0871,3.0623,3.034,3.0216,3.0216,3.0216,3.0216,3.0216,3.0216,3.0216,3.0182,3.0057,2.9886,2.9783,2.9451,2.9174,2.8803,2.842,2.8139,2.7668,2.6918,2.64,2.6255,2.6024,2.5781,2.5684,2.5684,2.5684,2.5684,2.5684,2.5684,2.5684,2.5684,2.5684,2.5684,2.5684,2.5684,2.5684,2.5684,2.5684,2.5684,2.5684,2.5684,2.5684,2.5684,2.5684,2.5684,2.5684,2.5684,2.5684,2.5684,2.5684,2.5684,2.5684,2.5684,2.5684,2.5684,2.5684,2.5684,2.5684,2.5684,3.1577,3.1677,3.1532,3.1966,3.2609,3.2448,3.2605,3.3102,3.3991,3.4864,3.547,3.5893,3.6157,3.638,3.6417,3.6417,3.6417,3.6417,3.6417,3.6417,3.6417,3.6417,3.6417,3.6417,3.6417,3.6417,3.6417,3.6417,3.6417,3.6417,3.6417,3.6417,3.6417,3.6417,3.6267,3.5855,3.5219,3.4856,3.4387,3.3796,3.3596,3.3338,3.3149,3.3136,3.3124,3.3124,3.3124,3.3081,3.2865,3.2487,3.24,3.1981,3.1395,3.1095,3.0871,3.0578,3.0352,3.0216,3.0216,3.0216,3.0216,3.0216,3.0216,3.0216,3.017,3.0136,3.0057,2.9886,2.9542,2.9312,2.9035,2.842,2.7998,2.7631,2.7023,2.6496,2.6207,2.5917,2.5684,2.5684,2.5684,2.5684,2.5684,2.5684,2.5684,2.5684,2.5684,2.5684,2.5684,2.5684,2.5684,2.5684,2.5684,2.5684,2.5684,2.5684,2.5684,2.5684,2.5684,2.5684,2.5684,2.5684,2.5684,2.5684,2.5684,2.5684,2.5684,2.5684,2.5684,2.5684,2.5684,2.5684,2.5684,2.5684,2.5684,3.1413,3.1488,3.183,3.2455,3.3113,3.2906,3.3195,3.3953,3.4668,3.527,3.583,3.6267,3.6405,3.6405,3.6417,3.6417,3.6417,3.6417,3.6417,3.6417,3.6417,3.6417,3.6417,3.6417,3.6417,3.6417,3.6417,3.6417,3.6417,3.6417,3.6417,3.6417,3.6417,3.6417,3.6304,3.6019,3.5683,3.5345,3.4781,3.4324,3.3947,3.3571,3.3294,3.3199,3.3124,3.3124,3.3081,3.2982,3.281,3.2475,3.2169,3.1849,3.1362,3.1005,3.0736,3.0499,3.0352,3.0216,3.0216,3.0216,3.0216,3.0216,3.0216,3.0216,3.0216,3.017,3.0136,2.9954,2.9669,2.9439,2.9128,2.8456,2.7904,2.7536,2.7023,2.6496,2.611,2.582,2.5684,2.5684,2.5684,2.5684,2.5684,2.5684,2.5684,2.5684,2.5684,2.5684,2.5684,2.5684,2.5684,2.5684,2.5684,2.5684,2.5684,2.5684,2.5684,2.5684,2.5684,2.5684,2.5684,2.5684,2.5684,2.5684,2.5684,2.5684,2.5684,2.5684,2.5684,2.5684,2.5684,2.5684,2.5684,2.5684,2.5684,3.1248,3.118,3.2103,3.2828,3.3224,3.3603,3.4375,3.542,3.5458,3.5805,3.6392,3.638,3.6417,3.6417,3.6417,3.6417,3.6417,3.6417,3.6417,3.6417,3.6417,3.6417,3.6417,3.6417,3.6417,3.6417,3.6417,3.6417,3.6417,3.6417,3.6417,3.6417,3.6417,3.6417,3.638,3.6292,3.6031,3.5717,3.5345,3.4818,3.4387,3.3922,3.3596,3.3357,3.3156,3.3136,3.3025,3.2884,3.2636,3.2332,3.1994,3.1508,3.1095,3.0769,3.0487,3.0306,3.0216,3.0216,3.0216,3.0216,3.0216,3.0216,3.0216,3.0216,3.0216,3.0216,3.0136,2.9988,2.9715,2.9577,2.9301,2.8549,2.7857,2.7394,2.688,2.6448,2.611,2.5868,2.5732,2.5684,2.5684,2.5684,2.5684,2.5684,2.5684,2.5684,2.5684,2.5684,2.5684,2.5684,2.5684,2.5684,2.5684,2.5684,2.5684,2.5684,2.5684,2.5684,2.5684,2.5684,2.5684,2.5684,2.5684,2.5684,2.5684,2.5684,2.5684,2.5684,2.5684,2.5684,2.5684,2.5684,2.5684,2.5684,2.5684,3.1068,3.1133,3.2442,3.3261,3.3917,3.5027,3.5596,3.5508,3.5495,3.5868,3.6417,3.6417,3.6417,3.6417,3.6417,3.6417,3.6417,3.6417,3.6417,3.6417,3.6417,3.6417,3.6417,3.6417,3.6417,3.6417,3.6417,3.6417,3.6417,3.6417,3.6417,3.6417,3.6417,3.6417,3.6417,3.6417,3.6279,3.6056,3.578,3.532,3.4851,3.4361,3.3997,3.3684,3.3294,3.325,3.3101,3.2822,3.2605,3.2344,3.1937,3.1496,3.1029,3.0736,3.0487,3.0261,3.0216,3.0216,3.0216,3.0216,3.0216,3.0216,3.0216,3.0216,3.0216,3.0216,3.0136,2.9954,2.9715,2.9485,2.9117,2.8466,2.7762,2.7194,2.6726,2.64,2.6062,2.582,2.5684,2.5684,2.5684,2.5684,2.5684,2.5684,2.5684,2.5684,2.5684,2.5684,2.5684,2.5684,2.5684,2.5684,2.5684,2.5684,2.5684,2.5684,2.5684,2.5684,2.5684,2.5684,2.5684,2.5684,2.5684,2.5684,2.5684,2.5684,2.5684,2.5684,2.5684,2.5684,2.5684,2.5684,2.5684,2.5684,2.5684,3.1102,3.1461,3.2901,3.4061,3.5021,3.5975,3.6157,3.5906,3.5868,3.6081,3.6392,3.6417,3.6417,3.6417,3.6417,3.6417,3.6417,3.6417,3.6417,3.6417,3.6417,3.6417,3.6417,3.6417,3.6417,3.6417,3.6417,3.6417,3.6417,3.6417,3.6417,3.6417,3.6417,3.6417,3.6417,3.6417,3.6417,3.6292,3.6056,3.5734,3.5295,3.4889,3.4575,3.4135,3.3684,3.3458,3.3289,3.2953,3.2531,3.2257,3.1849,3.133,3.0939,3.0691,3.0397,3.0216,3.0216,3.0216,3.0216,3.0216,3.0216,3.0216,3.0216,3.0216,3.0216,3.0216,3.0102,2.9931,2.9634,2.9347,2.8839,2.8326,2.7657,2.6993,2.662,2.6304,2.6014,2.5781,2.5684,2.5684,2.5684,2.5684,2.5684,2.5684,2.5684,2.5684,2.5684,2.5684,2.5684,2.5684,2.5684,2.5684,2.5684,2.5684,2.5684,2.5684,2.5684,2.5684,2.5684,2.5684,2.5684,2.5684,2.5684,2.5684,2.5684,2.5684,2.5684,2.5684,2.5684,2.5684,2.5684,2.5684,2.5684,2.5684,2.5684,3.1311,3.1886,3.3411,3.4913,3.6282,3.6405,3.6405,3.6417,3.6367,3.6405,3.6417,3.6417,3.6417,3.6417,3.6417,3.6417,3.6417,3.6417,3.6417,3.6417,3.6417,3.6417,3.6417,3.6417,3.6417,3.6417,3.6417,3.6417,3.6417,3.6417,3.6417,3.6417,3.6417,3.6417,3.6417,3.6417,3.6417,3.638,3.6304,3.6081,3.5708,3.5458,3.5257,3.4743,3.4311,3.3922,3.3627,3.3089,3.2437,3.2106,3.1653,3.1074,3.0736,3.0499,3.0261,3.0216,3.0216,3.0216,3.0216,3.0216,3.0216,3.0216,3.0216,3.0216,3.0216,3.0216,3.0102,2.9829,2.9531,2.9117,2.8606,2.8233,2.7657,2.7051,2.6582,2.6217,2.5878,2.5684,2.5684,2.5684,2.5684,2.5684,2.5684,2.5684,2.5684,2.5684,2.5684,2.5684,2.5684,2.5684,2.5684,2.5684,2.5684,2.5684,2.5684,2.5684,2.5684,2.5684,2.5684,2.5684,2.5684,2.5684,2.5684,2.5684,2.5684,2.5684,2.5684,2.5684,2.5684,2.5684,2.5684,2.5684,2.5684,2.5684,2.5684,3.1402,3.2162,3.409,3.5497,3.6367,3.6417,3.6417,3.6417,3.6417,3.6417,3.6417,3.6417,3.6417,3.6417,3.6417,3.6417,3.6417,3.6417,3.6417,3.6417,3.6417,3.6417,3.6417,3.6417,3.6417,3.6417,3.6417,3.6417,3.6417,3.6417,3.6417,3.6417,3.6417,3.6417,3.6417,3.6417,3.6417,3.6417,3.6392,3.6355,3.6119,3.5683,3.5357,3.5132,3.4818,3.4215,3.3799,3.3316,3.2656,3.2103,3.141,3.0883,3.0408,3.0284,3.0227,3.0227,3.0273,3.0273,3.0216,3.0216,3.0216,3.0216,3.0216,3.0216,3.0216,3.0216,3.008,2.976,2.9393,2.8932,2.8466,2.8092,2.7715,2.7109,2.6544,2.6169,2.5791,2.5732,2.5732,2.5684,2.5684,2.5684,2.5684,2.5684,2.5684,2.5684,2.5684,2.5684,2.5684,2.5684,2.5684,2.5684,2.5684,2.5684,2.5684,2.5684,2.5684,2.5684,2.5684,2.5684,2.5684,2.5684,2.5684,2.5684,2.5684,2.5684,2.5684,2.5684,2.5684,2.5684,2.5684,2.5684,2.5684,2.5684,2.5684,3.1504,3.2472,3.4388,3.5669,3.6307,3.6417,3.6417,3.6417,3.6417,3.6417,3.6417,3.6417,3.6417,3.6417,3.6417,3.6417,3.6417,3.6417,3.6417,3.6417,3.6417,3.6417,3.6417,3.6417,3.6417,3.6417,3.6417,3.6417,3.6417,3.6417,3.6417,3.6417,3.6417,3.6417,3.6417,3.6417,3.6417,3.6417,3.6417,3.6417,3.6417,3.6069,3.5893,3.5755,3.5332,3.4732,3.4338,3.3876,3.3273,3.2693,3.2091,3.1541,3.1182,3.1043,3.0813,3.0663,3.0572,3.0457,3.0308,3.0216,3.0216,3.0216,3.0216,3.0216,3.0216,3.017,2.9988,2.9715,2.9577,2.9163,2.8409,2.794,2.7584,2.7023,2.6747,2.6458,2.611,2.5907,2.582,2.5684,2.5684,2.5684,2.5684,2.5684,2.5684,2.5684,2.5684,2.5684,2.5684,2.5684,2.5684,2.5684,2.5684,2.5684,2.5684,2.5684,2.5684,2.5684,2.5684,2.5684,2.5684,2.5684,2.5684,2.5684,2.5684,2.5684,2.5684,2.5684,2.5684,2.5684,2.5684,2.5684,2.5684,2.5684,2.5684,3.1675,3.2853,3.453,3.5681,3.632,3.6417,3.6417,3.6417,3.6417,3.6417,3.6417,3.6417,3.6417,3.6417,3.6417,3.6417,3.6417,3.6417,3.6417,3.6417,3.6417,3.6417,3.6417,3.6417,3.6417,3.6417,3.6417,3.6417,3.6417,3.6417,3.6417,3.6417,3.6417,3.6417,3.6417,3.6417,3.6417,3.6417,3.6417,3.6417,3.6417,3.6417,3.6355,3.6144,3.5943,3.5515,3.5046,3.4579,3.3995,3.3373,3.2744,3.216,3.1784,3.1549,3.1249,3.1042,3.0882,3.0641,3.0354,3.0216,3.0216,3.0216,3.0216,3.0216,3.0216,3.0125,2.9943,2.9715,2.9577,2.9152,2.8409,2.7893,2.7489,2.7081,2.689,2.6699,2.64,2.6091,2.5907,2.5781,2.5732,2.5732,2.5684,2.5684,2.5684,2.5684,2.5684,2.5684,2.5684,2.5684,2.5684,2.5684,2.5684,2.5684,2.5684,2.5684,2.5684,2.5684,2.5684,2.5684,2.5684,2.5684,2.5684,2.5684,2.5684,2.5684,2.5684,2.5684,2.5684,2.5684,2.5684,2.5684,2.5684,2.5684,2.5684,3.2058,3.3829,3.4956,3.5796,3.6355,3.6405,3.6417,3.6417,3.6417,3.6417,3.6417,3.6417,3.6417,3.6417,3.6417,3.6417,3.6417,3.6417,3.6417,3.6417,3.6417,3.6417,3.6417,3.6417,3.6417,3.6417,3.6417,3.6417,3.6417,3.6417,3.6417,3.6417,3.6417,3.6417,3.6417,3.6417,3.6417,3.6417,3.6417,3.6417,3.6417,3.6417,3.6417,3.6342,3.6317,3.5778,3.5317,3.4863,3.4252,3.3637,3.3005,3.2523,3.2238,3.2022,3.1721,3.1364,3.1203,3.0813,3.0537,3.0285,3.0239,3.0216,3.0216,3.0216,3.0216,3.0216,2.9943,2.9623,2.9393,2.9024,2.842,2.8139,2.7773,2.7214,2.6842,2.6699,2.6448,2.6245,2.6052,2.5917,2.5771,2.5723,2.5684,2.5684,2.5684,2.5684,2.5684,2.5684,2.5684,2.5684,2.5684,2.5684,2.5684,2.5684,2.5684,2.5684,2.5684,2.5684,2.5684,2.5684,2.5684,2.5684,2.5684,2.5684,2.5684,2.5684,2.5684,2.5684,2.5684,2.5684,2.5684,2.5684,2.5684,2.5684,2.5684]}]]